     2.11           OBSERVATION DATA    G (GPS)             RINEX VERSION / TYPE
teqc 2010Oct21 OPUS Account 20111025 14:43:56UTC            PGM / RUN BY / DATE
J 1521                                                      MARKER NAME
1124                                                        MARKER NUMBER
CSMIDDLETON NGS                                             OBSERVER / AGENCY
0220269730 TRIMBLE 5700 NP 1.22 / SP 1.22                   REC # / TYPE / VERS
60041226 TRM41249.00 NONE                                   ANT # / TYPE
  -740158.2426 -5465718.5326  3192441.4658                  APPROX POSITION XYZ
        2.0010        0.0000        0.0000                  ANTENNA: DELTA H/E/N
     1     1                                                WAVELENGTH FACT L1/2
     5    L1    L2    C1    P1    P2                        # / TYPES OF OBSERV
    15                                                      LEAP SECONDS
  2011     7    24     0     0   30.0000000     GPS         TIME OF FIRST OBS
                                                            END OF HEADER
 11  7 24  0  0 30.0000000  0  8G17G10G02G09G28G04G20G27
 -67925599.52357 -52889482.30056  21169503.1884                   21169502.5204
  -1608380.56255  -1241269.17652  24144855.6024                   24144858.0394
 -17002751.35957 -13236152.61455  22841208.3134                   22841206.6724
 -18125263.01257 -14111228.59754  22385996.2504                   22385996.5664
 -85634359.21158 -66722483.92755  21526909.3914                   21526907.8874
 -48190890.72358 -37534158.49856  20052574.9454                   20052574.1454
 -13711935.37156 -10673717.21653  24017339.7814                   24017340.2544
 -31800464.02357 -24767427.43854  22507830.1724                   22507830.4654
 11  7 24  0  1  0.0000000  0  8G17G10G02G09G28G04G20G27
 -67994941.11347 -52943514.69746  21156308.1334                   21156307.3484
                                  24108502.3984                   24108504.6334
 -17188644.34047 -13381004.18945  22805833.4454                   22805832.9384
 -18270089.73847 -14224080.59244  22358436.7894                   22358436.8874
 -85692593.11748 -66767861.01945  21515827.7734                   21515826.5594
 -48322041.62147 -37636353.96146  20027617.3914                   20027617.3554
 -13791430.02746 -10735661.09643  24002213.0084                   24002212.2934
 -31923935.06647 -24863638.66045  22484334.7734                   22484334.7114
 11  7 24  0  1 30.0000000  0  8G17G10G02G09G28G04G20G27
 -68064095.21947 -52997401.01646  21143149.0864                   21143147.8954
  -1990424.48855  -1538965.07852  24072154.2194                   24072157.2934
 -17374221.23847 -13525609.49144  22770519.0004                   22770518.2544
 -18414241.73447 -14336406.78044  22331005.4304                   22331005.0394
 -85750388.90648 -66812896.72845  21504829.5474                   21504828.2464
 -48452548.66847 -37738047.74246  20002783.2034                   20002782.7584
 -13870344.95746 -10797153.29743  23987196.1174                   23987195.9064
 -32046847.74647 -24959414.78645  22460945.1564                   22460944.9344
 11  7 24  0  2  0.0000000  0  8G17G10G02G09G28G04G20G27
 -68133056.12147 -53051136.76946  21130025.9614                   21130024.9614
  -2181409.10545  -1687784.00343  24035810.3364                   24035814.3204
 -17559474.48847 -13669962.58044  22735266.9774                   22735265.1844
 -18557711.36347 -14448201.26644  22303704.0004                   22303703.9774
 -85807739.91448 -66857585.83645  21493916.3594                   21493914.8244
 -48582405.06648 -37839234.50246  19978072.5634                   19978072.1454
 -13948674.06246 -10858188.95043  23972290.9144                   23972290.0944
 -32169195.24647 -25054750.48945  22437663.3674                   22437663.3794
 11  7 24  0  2 30.0000000  0  8G17G10G02G09G28G04G20G27
 -68201827.54347 -53104724.87546  21116939.0084                   21116937.8364
  -2372366.37945  -1836581.61342  23999472.1804                   23999476.0164
 -17744405.36347 -13814064.50844  22700075.2034                   22700074.6914
 -18700500.44547 -14559465.49544  22276532.8444                   22276532.4654
 -85864649.28148 -66901930.80545  21483086.9384                   21483085.7464
 -48711613.65647 -37939916.48946  19953484.4844                   19953484.1334
 -14026420.52346 -10918770.55843  23957495.5704                   23957495.0704
 -32290980.28147 -25149647.93245  22414488.2974                   22414488.1254
 11  7 24  0  3  0.0000000  0  8G17G10G02G09G28G04G20G27
 -68270408.72747 -53158164.75846  21103888.2894                   21103887.1684
  -2563291.86746  -1985354.48042  23963141.4844                   23963142.2774
 -17929010.91047 -13957912.91745  22664945.7274                   22664945.6604
 -18842605.82447 -14670196.95844  22249490.5864                   22249490.5594
 -85921114.81248 -66945929.93945  21472341.1644                   21472341.0824
 -48840172.39548 -38040092.10246  19929020.6414                   19929019.9454
 -14103582.72346 -10978896.93143  23942812.6564                   23942812.2034
 -32412200.71947 -25244105.46045  22391420.4614                   22391420.6214
 11  7 24  0  3 30.0000000  0  8G17G10G02G09G28G04G20G27
 -68338797.72747 -53211454.88646  21090874.1884                   21090873.2304
  -2754180.22745  -2134098.42642  23926815.0394                   23926817.3324
 -18113287.06647 -14101504.62745  22629879.5864                   22629878.4064
 -18984023.61347 -14780392.62644  22222579.7424                   22222579.5984
 -85977133.60548 -66989580.97945  21461681.6954                   21461680.5314
 -48968078.39847 -38139759.08546  19904681.0084                   19904680.3364
 -14180158.12146 -11038566.05043  23928240.7274                   23928239.8754
 -32532853.48847 -25338120.62045  22368461.0704                   22368461.3874
 11  7 24  0  4  0.0000000  0  8G17G10G02G09G28G04G20G27
 -68406993.04347 -53264594.10646  21077897.2894                   21077896.1884
  -2945026.08246  -2282809.15642  23890497.2734                   23890499.6914
 -18297229.93747 -14244836.63844  22594876.4694                   22594874.8874
 -19124750.26247 -14890049.73844  22195800.5164                   22195800.7734
 -86032703.12548 -67032881.91245  21451107.1804                   21451106.3134
 -49095329.05547 -38238915.42146  19880466.1804                   19880465.6094
 -14256144.57046 -11097776.32343  23913780.6024                   23913780.3094
 -32652936.04747 -25431691.47745  22345610.0394                   22345610.3714
 11  7 24  0  4 30.0000000  0  8G17G10G02G09G28G04G20G27
 -66899570.57047 -52089979.19246  21364750.0634                   21364748.9414
  -1560398.07446  -1203878.05142  24153984.2424                   24153986.6644
 -16905409.67247 -13160301.24745  22859731.4614                   22859730.0864
 -17689357.38747 -13771561.75544  22468946.0234                   22468946.0704
 -84512398.86348 -65848229.27045  21740411.6254                   21740410.3914
 -47646497.48447 -37109955.73946  20156169.2344                   20156168.8594
 -12756117.34846  -9928923.83643  24199227.2504                   24199225.2814
 -31197021.60247 -24297212.69845  22622661.7194                   22622661.2194
 11  7 24  0  5  0.0000000  0  8G17G10G02G09G28G04G20G27
 -66967372.27747 -52142811.69546  21351848.2344                   21351847.3794
  -1751143.12146  -1352510.30443  24117686.5084                   24117688.3054
 -17088673.50047 -13303104.14145  22824857.2344                   22824855.3594
 -17828689.41047 -13880132.11344  22442432.5314                   22442432.7814
 -84567060.92648 -65890823.10545  21730010.1094                   21730008.5634
 -47772428.43447 -37208083.72046  20132205.4694                   20132205.1524
 -12830918.21146  -9987210.25943  24184992.2814                   24184991.8794
 -31315954.02347 -24389887.31345  22600029.8364                   22600029.6524
 11  7 24  0  5 30.0000000  0  8G17G10G02G09G28G04G20G27
 -67034975.56247 -52195489.59446  21338983.6724                   21338982.7544
  -1941830.98046  -1501097.99843  24081399.7974                   24081401.9774
 -17271593.31647 -13445638.98745  22790048.1884                   22790046.3954
 -17967320.14847 -13988155.99844  22416052.3754                   22416052.0164
 -84621266.38348 -65933061.14945  21719695.0164                   21719693.5204
 -47897696.75047 -37305695.37246  20108367.6954                   20108367.4964
 -12905124.11746 -10045032.98343  24170871.0394                   24170871.1914
 -31434308.50847 -24482111.62945  22577507.7734                   22577507.6524
 11  7 24  0  6  0.0000000  0  8G17G10G02G09G28G04G20G27
 -67102382.77047 -52248014.69246  21326156.4454                   21326155.1684
  -2132460.22746  -1649640.13543  24045123.7504                   24045127.0904
 -17454169.05547 -13587905.67744  22755304.8054                   22755303.7304
 -18105249.90647 -14095633.70744  22389804.7034                   22389804.2584
 -84675016.37948 -65974944.28645  21709466.4774                   21709465.0044
 -48022303.88347 -37402791.81646  20084655.8594                   20084655.3134
 -12978736.79746 -10102393.58943  24156862.8754                   24156863.1954
 -31552086.17247 -24573886.41945  22555095.6414                   22555095.4884
 11  7 24  0  6 30.0000000  0  8G17G10G02G09G28G04G20G27
 -67169591.00047 -52300384.76046  21313366.7034                   21313366.1844
  -2323024.59846  -1798131.63342  24008860.7034                   24008862.6134
 -17636395.73047 -13729900.38545  22720628.0634                   22720627.2734
 -18242473.61747 -14202561.23044  22363692.0084                   22363691.2974
 -84728307.55148 -66016469.89845  21699325.3674                   21699324.1914
 -48146245.87147 -37499369.96646  20061070.4144                   20061069.8324
 -13051753.03946 -10159289.38043  24142969.0314                   24142968.0474
 -31669283.03147 -24665208.65945  22532793.4844                   22532792.7814
 11  7 24  0  7  0.0000000  0  8G17G10G02G09G28G04G20G27
 -67236603.30947 -52352602.13546  21300615.1954                   21300614.2544
  -2513523.46146  -1946572.15243  23972609.9844                   23972610.2704
 -17818274.23847 -13871623.78745  22686018.2664                   22686016.6094
 -18378992.74647 -14308939.70244  22337712.6724                   22337712.9344
 -84781141.37147 -66057639.12845  21689271.3674                   21689270.4104
 -48269525.08647 -37595431.66746  20037611.2424                   20037610.6764
 -13124175.07846 -10215722.08343  24129186.4924                   24129187.3984
 -31785901.23847 -24756079.99745  22510601.6884                   22510602.1604
 11  7 24  0  7 30.0000000  0  8G17G10G02G09G28G04G20G27
 -67303426.12947 -52404671.88346  21287898.6884                   21287898.6724
  -2703959.73446  -2094963.84743  23936370.4614                   23936372.8134
 -17999808.53947 -14013078.98145  22651472.6484                   22651472.0864
 -18514811.61347 -14414772.55544  22311867.2664                   22311867.7034
 -84833523.35248 -66098456.30445  21679303.6954                   21679302.9844
 -48392146.81247 -37690981.05746  20014277.4454                   20014276.7424
 -13196008.97346 -10271696.55843  24115517.4064                   24115517.0234
 -31901946.29747 -24846504.73645  22488518.3524                   22488519.4694
 11  7 24  0  8  0.0000000  0  8G17G10G02G09G28G04G20G27
 -67370053.22747 -52456589.10846  21275220.3754                   21275219.4694
  -2894323.94546  -2243299.33243  23900145.3834                   23900147.7344
 -18180990.81647 -14154259.86245  22616995.0554                   22616994.1684
 -18649922.44147 -14520053.67844  22286156.6254                   22286156.6604
 -84885447.12148 -66138916.39945  21669422.6954                   21669422.0274
 -48514104.34047 -37786012.86146  19991069.0944                   19991068.9534
 -13267248.30546 -10327207.69643  24101961.8524                   24101960.8164
 -32017411.15647 -24936477.32245  22466546.3134                   22466546.5354
 11  7 24  0  8 30.0000000  0  8G17G10G02G09G28G04G20G27
 -67436492.34048 -52508359.85746  21262577.6094                   21262576.5904
  -3084620.50446  -2391582.23843  23863932.8984                   23863935.3324
 -18361826.44547 -14295170.63145  22582583.0554                   22582581.3404
 -18784331.50047 -14624787.97344  22260579.6884                   22260580.5554
 -84936919.32847 -66179024.63445  21659627.5164                   21659626.7304
 -48635404.78148 -37880532.66846  19967986.5864                   19967986.0514
 -13337900.49246 -10382261.28143  24088516.6644                   24088516.6644
 -32132302.61347 -25026003.14345  22444683.5394                   22444683.4694
 11  7 24  0  9  0.0000000  0  8G17G10G02G09G28G04G20G27
 -67502734.12547 -52559976.87746  21249972.1254                   21249971.1214
  -3274836.54746  -2539802.35743  23827735.9614                   23827737.9384
 -18542304.84847 -14435803.06145  22548239.3754                   22548238.1914
 -18918027.63347 -14728966.73144  22235138.0784                   22235137.5554
 -84987930.12148 -66218773.33645  21649921.0554                   21649919.9734
 -48756038.05947 -37974532.61046  19945030.6254                   19945030.1644
 -13407956.06246 -10436850.08243  24075185.8594                   24075185.7894
 -32246610.63347 -25115074.34645  22422931.5314                   22422931.9574
 11  7 24  0  9 30.0000000  0  8G17G10G02G09G28G04G20G27
 -67568780.92247 -52611441.92146  21237403.6414                   21237402.6414
  -3464970.59046  -2687958.59643  23791554.7734                   23791556.8324
 -18722425.57047 -14576156.76945  22513963.3444                   22513962.3244
 -19051011.66847 -14832590.66944  22209831.7814                   22209832.2774
 -85038480.66848 -66258163.38045  21640301.3674                   21640300.6414
 -48876005.85548 -38068014.01246  19922202.0784                   19922201.3754
 -13477417.06246 -10490975.52543  24061967.4224                   24061967.1174
 -32360336.64547 -25203692.01145  22401290.4694                   22401289.7774
 11  7 24  0 10  0.0000000  0  8G17G10G02G09G28G04G20G27
 -67634635.64147 -52662757.32146  21224872.1644                   21224870.6804
  -3655022.06246  -2836050.37943  23755388.6724                   23755390.9494
 -18902189.62147 -14716232.55145  22479755.6414                   22479754.3834
 -19183284.66047 -14935660.52144  22184660.7194                   22184661.1564
 -85088572.94548 -66297196.36645  21630769.6334                   21630768.2854
 -48995310.26247 -38160978.46146  19899498.8444                   19899498.0984
 -13546285.96146 -10544639.52143  24048861.9384                   24048861.9264
 -32473482.67647 -25291857.73445  22379759.2974                   22379759.3444
 11  7 24  0 10 30.0000000  0  8G17G10G02G09G28G04G20G27
 -67700297.83648 -52713922.67146  21212377.1724                   21212376.1724
  -3844987.07046  -2984074.86243  23719239.9064                   23719240.6564
 -19081594.71546 -14856028.61745  22445615.4614                   22445614.0084
 -19314844.56247 -15038174.72344  22159626.6254                   22159625.6054
 -85138206.08247 -66335871.56045  21621324.3524                   21621324.1214
 -49113950.35247 -38253425.26046  19876922.5784                   19876921.8164
 -13614562.03946 -10597841.66243  24035869.7114                   24035868.7854
 -32586047.61747 -25379570.65845  22358338.7664                   22358338.8674
 11  7 24  0 11  0.0000000  0  8G17G10G02G09G28G04G20G27
 -67765769.93748 -52764939.91046  21199918.6174                   21199917.4064
  -4034864.50046  -3132031.10543  23683107.0944                   23683109.0864
 -19260641.18447 -14995545.28545  22411543.7034                   22411542.5044
 -19445692.39147 -15140134.08344  22134727.2734                   22134726.5824
 -85187381.46148 -66374190.02145  21611967.1094                   21611966.7114
 -49231928.08248 -38345355.95846  19854471.6334                   19854470.8954
 -13682247.54746 -10650583.65943  24022989.3834                   24022988.7854
 -32698033.10547 -25466832.05945  22337028.9224                   22337029.3164
 11  7 24  0 11 30.0000000  0  8G17G10G02G09G28G04G20G27
 -67831056.43047 -52815812.50546  21187494.3204                   21187493.1294
  -4224655.12546  -3279919.71543  23646991.3834                   23646993.5634
 -19439331.71147 -15134784.55745  22377540.0784                   22377538.5514
 -19575831.39147 -15241541.11644  22109962.3444                   22109962.2504
 -85236103.51647 -66412155.28545  21602695.5084                   21602694.5944
 -49349247.30948 -38436773.52446  19832146.7974                   19832146.1764
 -13749347.38346 -10702869.25843  24010220.4614                   24010220.8714
 -32809443.02747 -25553644.98045  22315827.8834                   22315828.4844
 11  7 24  0 12  0.0000000  0  8G17G10G02G09G28G04G20G27
 -67896156.22348 -52866539.62546  21175106.6414                   21175105.5234
  -4414354.59846  -3427737.33343  23610891.3444                   23610894.8484
 -19617663.17247 -15273744.04945  22343605.2114                   22343602.8834
 -19705258.80547 -15342393.65444  22085333.3444                   22085332.9344
 -85284370.25047 -66449765.75445  21593509.9774                   21593509.6524
 -49465906.47348 -38527676.74846  19809947.0784                   19809947.0004
 -13815859.82845 -10754697.05543  23997562.5554                   23997563.6174
 -32920275.50047 -25640007.93745  22294737.2274                   22294737.2934
 11  7 24  0 12 30.0000000  0  8G17G10G02G09G28G04G20G27
 -66385641.69147 -51689515.32746  21462547.5084                   21462546.7974
  -3028527.70746  -2347872.01843  23874604.7734                   23874608.2974
 -18220202.12147 -14184813.29545  22609533.0864                   22609532.1954
 -18258543.10947 -14215082.76944  22360633.9694                   22360633.2854
 -83756753.52348 -65259415.07545  21884205.6564                   21884204.4454
 -48006475.64848 -37390457.91246  20087667.8444                   20087667.5824
 -12306357.00045  -9578460.97643  24284812.7424                   24284811.8244
 -31455100.74647 -24498313.32445  22573550.5164                   22573551.2194
 11  7 24  0 13  0.0000000  0  8G17G10G02G09G28G04G20G27
 -66450364.37547 -51739948.59446  21450231.7344                   21450230.3204
  -3218030.91846  -2495536.64543  23838544.8284                   23838546.4264
 -18397805.80147 -14323205.66145  22575735.8524                   22575734.7734
 -18386539.09047 -14314819.91745  22336277.0864                   22336276.9224
 -83804103.42247 -65296311.15745  21875195.6414                   21875194.0354
 -48121809.52048 -37480328.44046  20065720.3594                   20065720.2274
 -12371690.77745  -9629370.47543  24272380.3204                   24272378.8794
 -31564772.94547 -24583772.19145  22552680.9534                   22552681.0434
 11  7 24  0 13 30.0000000  0  8G17G10G02G09G28G04G20G27
 -66514899.64547 -51790235.82446  21437951.1024                   21437950.2074
  -3407431.49246  -2643121.36743  23802503.3134                   23802504.4104
 -18575043.93447 -14461313.22345  22542008.6254                   22542006.8914
 -18513818.44547 -14413998.65645  22312056.6644                   22312057.1214
 -83850995.23047 -65332850.25845  21866272.7814                   21866271.9184
 -48236481.13348 -37569682.92946  20043898.9694                   20043898.4574
 -12436436.18745  -9679821.46943  24260059.7894                   24260058.6994
 -31673865.11347 -24668779.09445  22531921.4064                   22531921.1804
 11  7 24  0 14  0.0000000  0  8G17G10G02G09G28G04G20G27
 -66579247.25047 -51840376.80946  21425706.1094                   21425705.0864
  -3596726.21946  -2790623.63643  23766481.1094                   23766482.2664
 -18751914.78947 -14599134.58245  22508351.0634                   22508348.8014
 -18640380.06247 -14512618.07144  22287972.9304                   22287972.6954
 -83897428.66447 -65369032.18345  21857436.6884                   21857436.1844
 -48350490.23448 -37658521.16446  20022204.0704                   20022203.5234
 -12500593.64545  -9729814.22743  24247850.5394                   24247849.7934
 -31782376.80147 -24753333.66045  22511272.2424                   22511271.9024
 11  7 24  0 14 30.0000000  0  8G17G10G02G09G28G04G20G27
 -66643400.64847 -51890366.47346  21413497.9844                   21413497.6334
  -3785905.02346  -2938035.52543  23730481.6094                   23730482.3324
 -18928409.67247 -14736662.99545  22474765.1644                   22474763.1994
 -18766216.03547 -14610672.09044  22264026.2734                   22264026.4264
 -83943396.34447 -65404851.17745  21848689.9144                   21848688.5634
 -48463829.97748 -37746837.83546  20000635.9304                   20000635.8134
 -12564156.02045  -9779343.34943  24235754.8444                   24235755.3714
 -31890300.67247 -24837430.17945  22490735.7424                   22490735.2074
 11  7 24  0 15  0.0000000  0  8G17G10G02G09G28G04G20G27
 -66707359.05947 -51940204.19246  21401327.1484                   21401325.8794
  -3974963.18746  -3085353.38543  23694504.7734                   23694506.4064
 -19104525.91447 -14873896.35545  22441251.2664                   22441250.0514
 -18891323.82447 -14708158.66344  22240219.2194                   22240219.6524
 -83988896.65247 -65440305.97745  21840031.3674                   21840030.1724
 -48576498.76648 -37834631.68446  19979195.9774                   19979195.5664
 -12627123.07045  -9828408.58243  24223773.0474                   24223772.3834
 -31997635.36747 -24921067.60545  22470310.1334                   22470309.9184
 11  7 24  0 15 30.0000000  0  8G17G10G02G09G28G04G20G27
 -66771127.93748 -51989894.21846  21389192.1564                   21389191.3714
  -4163903.19147  -3232579.12544  23658550.5164                   23658551.8404
 -19280267.19947 -15010837.53245  22407808.2814                   22407807.3754
 -19015707.85547 -14805081.25644  22216550.0084                   22216550.1374
 -84033934.59447 -65475400.52145  21831460.5554                   21831459.8984
 -48688502.30148 -37921907.14546  19957882.0944                   19957881.9614
 -12689499.71946  -9877013.71643  24211902.2194                   24211902.7584
 -32104386.01647 -25004249.93545  22449995.9844                   22449996.2194
 11  7 24  0 16  0.0000000  0  8G17G10G02G09G28G04G20G27
 -66834700.04747 -52039430.92546  21377094.8674                   21377094.1524
  -4352713.93447  -3379704.22243  23622621.2504                   23622622.5864
 -19455624.20747 -15147479.26045  22374439.6804                   22374437.9454
 -19139359.81647 -14901433.38744  22193020.2504                   22193019.7974
 -84078502.14547 -65510128.50345  21822979.7274                   21822978.2974
 -48799832.66048 -38008658.06246  19936697.1254                   19936696.1334
 -12751279.31245  -9925153.62043  24200146.4844                   24200145.9454
 -32210544.77047 -25086971.04145  22429794.9454                   22429794.8674
 11  7 24  0 16 30.0000000  0  8G17G10G02G09G28G04G20G27
 -66898071.27747 -52088811.10246  21365035.9384                   21365035.0394
  -4541387.76246  -3526722.63343  23586717.5004                   23586719.5434
 -19630591.61347 -15283817.41545  22341144.2734                   22341142.4654
 -19262274.81647 -14997211.26244  22169629.9224                   22169629.4224
 -84122595.68047 -65544487.13745  21814588.9454                   21814587.9144
 -48910485.97748 -38094881.40546  19915639.8364                   19915639.8324
 -12812457.89146  -9972825.25143  24188504.8134                   24188503.4694
 -32316107.52047 -25169227.73845  22409706.7894                   22409707.1954
 11  7 24  0 17  0.0000000  0  8G17G10G02G09G28G04G20G27
 -66961239.55947 -52138033.14946  21353015.4304                   21353014.8244
  -4729919.71946  -3673630.48343  23550840.8524                   23550842.3484
 -19805165.69547 -15419849.07445  22307923.9384                   22307922.3954
 -19384449.73447 -15092412.43444  22146380.5084                   22146380.6214
 -84166212.24647 -65578474.09045  21806288.9694                   21806287.8364
 -49020460.12948 -38180575.52346  19894712.8134                   19894712.5474
 -12873033.58246 -10020027.08043  24176977.3984                   24176976.5554
 -32421071.74247 -25251018.00045  22389732.9774                   22389732.9144
 11  7 24  0 17 30.0000000  0  8G17G10G02G09G28G04G20G27
 -67024210.36747 -52187101.31946  21341032.3284                   21341031.6214
  -4918310.83246  -3820428.59443  23514990.7504                   23514992.6524
 -19979349.27347 -15555576.45345  22274777.5634                   22274775.9024
 -19505888.34847 -15187039.90545  22123271.9384                   22123271.8634
 -84209356.44947 -65612092.97645  21798078.5784                   21798077.7344
 -49129759.62548 -38265743.95646  19873913.7734                   19873913.3754
 -12933011.71146 -10066763.19843  24165563.9454                   24165563.7344
 -32525441.83647 -25332345.32845  22369871.4064                   22369870.9184
 11  7 24  0 18  0.0000000  0  8G17G10G02G09G28G04G20G27
 -67086980.48048 -52236013.10846  21329087.2274                   21329086.3444
  -5106555.25446  -3967112.38344  23479169.3914                   23479170.8094
 -20153138.02347 -15690996.19145  22241706.7344                   22241704.9144
 -19626586.90647 -15281090.71644  22100303.5234                   22100303.3554
 -84252025.09047 -65645341.27745  21789959.5554                   21789958.1174
 -49238381.82048 -38350384.60446  19853243.7344                   19853243.1134
 -12992389.58246 -10113031.67843  24154264.2114                   24154264.6724
 -32629214.93747 -25413207.50945  22350124.2194                   22350124.7234
 11  7 24  0 18 30.0000000  0  8G17G10G02G09G28G04G20G27
 -67149541.93747 -52284762.30546  21317182.3524                   21317181.5004
  -5294641.04346  -4113672.56443  23443378.0004                   23443379.9024
 -20326522.14147 -15826100.58045  22208712.3364                   22208710.8874
 -19746536.35247 -15374557.79944  22077477.8204                   22077477.7194
 -84294209.70747 -65678212.43545  21781932.4224                   21781931.2974
 -49346318.33248 -38434490.94446  19832703.5864                   19832703.2114
 -13051159.38346 -10158826.27043  24143081.4304                   24143081.2074
 -32732382.57847 -25493597.83545  22330491.7504                   22330492.2584
 11  7 24  0 19  0.0000000  0  8G17G10G02G09G28G04G20G27
 -67211900.86747 -52333353.67746  21305315.7424                   21305315.5124
  -5482570.87146  -4260111.21943  23407615.8284                   23407616.6214
 -20499506.15247 -15960893.25845  22175795.0234                   22175793.5084
 -19865741.96147 -15467445.29244  22054793.5634                   22054793.9264
 -84335916.14147 -65710710.97545  21773995.3834                   21773994.4144
 -49453575.20347 -38518067.71946  19812293.5234                   19812293.3524
 -13109327.70346 -10204152.21543  24132011.5234                   24132011.8324
 -32834950.79347 -25573521.13645  22310974.1174                   22310974.4224
 11  7 24  0 19 30.0000000  0  8G17G10G02G09G28G04G20G27
 -67274059.80947 -52381789.22946  21293487.7664                   21293487.1524
  -5670343.97346  -4406427.73343  23371883.3364                   23371884.8984
 -20672090.59447 -16095374.55545  22142953.3914                   22142951.4734
 -19984205.23847 -15559754.36044  22032251.1644                   22032251.2894
 -84377146.58647 -65742838.61145  21766149.5634                   21766149.0044
 -49560155.29348 -38601117.10846  19792011.9384                   19792011.5784
 -13166897.33246 -10249011.69943  24121056.4534                   24121057.2974
 -32936921.73047 -25652978.99745  22291569.6644                   22291569.9964
 11  7 24  0 20  0.0000000  0  8G17G10G02G09G28G04G20G27
 -67336019.02347 -52430069.15946  21281697.0004                   21281696.0944
  -5857956.96146  -4552619.55743  23336180.9614                   23336182.2424
 -20844274.44147 -16229543.72645  22110187.3754                   22110185.1524
 -20101925.53947 -15651484.46044  22009849.7344                   22009849.0004
 -84417900.84447 -65774595.20245  21758394.7274                   21758393.5554
 -49666058.58247 -38683639.14246  19771859.3444                   19771858.5164
 -13223868.59446 -10293404.83043  24110215.8754                   24110215.0394
 -33038295.44547 -25731971.51845  22272279.0474                   22272279.1294
 11  7 24  0 20 30.0000000  0  8G17G10G02G09G28G04G20G27
 -67397775.32048 -52478190.95146  21269945.2274                   21269944.9804
  -6045403.36346  -4698681.57043  23300511.9304                   23300513.3874
 -21016052.94947 -16363397.03145  22077498.8204                   22077497.1764
 -20218898.96947 -15742632.61444  21987590.7504                   21987590.2344
 -84458175.73847 -65805978.24445  21750730.3594                   21750729.7424
 -49771282.05947 -38765631.44846  19751836.1564                   19751835.3914
 -13280239.25446 -10337330.02042  24099489.3914                   24099488.1024
 -33139068.70347 -25810496.12045  22253102.1174                   22253102.3914
 11  7 24  0 21  0.0000000  0  8G17G10G02G09G28G04G20G27
 -65883903.46947 -51298550.54646  21558025.6024                   21558025.2384
  -4657249.98846  -3617003.48143  23564668.4384                   23564670.4734
 -19611995.49247 -15269326.22145  22344682.4844                   22344680.5044
 -18759697.54747 -14605592.59344  22265267.3754                   22265266.5704
 -82922546.44947 -64609384.02445  22042950.9304                   22042950.2704
 -48300399.35947 -37619489.05746  20031735.8054                   20031735.0634
 -11760584.45746  -9153183.40242  24388669.0944                   24388668.2074
 -31663814.62147 -24660947.51145  22533834.2114                   22533834.0124
 11  7 24  0 21 30.0000000  0  8G17G10G02G09G28G04G20G27
 -65945251.93447 -51346354.55746  21546350.7424                   21546350.5164
  -4844350.43746  -3762795.92943  23529063.5784                   23529065.0234
 -19782956.13347 -15402542.23445  22312150.0474                   22312148.1374
 -18875172.85247 -14695573.36544  22243293.1644                   22243293.0434
 -82961859.62547 -64640017.69145  22035469.8674                   22035468.9844
 -48404261.82848 -37700420.81946  20011971.0394                   20011970.3484
 -11815752.77346  -9196171.66643  24378171.7274                   24378171.1374
 -31763384.57047 -24738534.47845  22514886.2584                   22514886.8204
 11  7 24  0 22  0.0000000  0  8G17G10G02G09G28G04G20G27
 -66006405.29747 -51394006.55146  21534714.3984                   21534714.0744
  -5031281.47346  -3908456.32843  23493492.0634                   23493493.6954
 -19953514.01647 -15535444.41145  22279693.5864                   22279691.8364
 -18989906.60947 -14784976.32944  22221459.7194                   22221459.9494
 -83000700.25047 -64670283.12045  22028078.4144                   22028078.2854
 -48507452.32848 -37780828.98546  19992335.3134                   19992334.2894
 -11870329.09046  -9238698.65343  24367785.6564                   24367785.5904
 -31862361.09847 -24815659.05845  22496051.9844                   22496051.8914
 11  7 24  0 22 30.0000000  0  8G17G10G02G09G28G04G20G27
 -66067360.72348 -51441504.28346  21523114.8834                   21523113.7384
  -5218037.02346  -4053980.03143  23457953.3754                   23457955.4614
 -20123665.02347 -15668029.54145  22247314.9304                   22247312.6254
 -19103895.55147 -14873798.92044  22199768.1564                   22199768.0204
 -83039065.57447 -64700178.21645  22020778.1884                   22020777.5434
 -48609968.55547 -37860711.74546  19972826.5784                   19972825.8444
 -11924311.36746  -9280762.82343  24357512.9224                   24357511.8134
 -31960741.68047 -24892319.27045  22477330.5944                   22477330.3324
 11  7 24  0 23  0.0000000  0  8G17G10G02G09G28G04G20G27
 -66128112.54747 -51488843.37846  21511554.4304                   21511553.5434
  -5404607.89546  -4199359.86444  23422450.6884                   23422451.4384
 -20293402.11347 -15800292.14545  22215014.7344                   22215013.2234
 -19217133.44547 -14962036.26944  22178220.0164                   22178220.2504
 -83076949.73047 -64729698.37145  22013568.6094                   22013568.0824
 -48711805.08247 -37940064.86346  19953447.6094                   19953447.2704
 -11977694.75046  -9322360.23643  24347354.2504                   24347354.1914
 -32058520.59847 -24968510.65345  22458724.4774                   22458723.8794
 11  7 24  0 23 30.0000000  0  8G17G10G02G09G28G04G20G27
 -66188663.85947 -51536026.22646  21500031.6414                   21500031.1214
  -5590993.35546  -4344595.19044  23386982.2584                   23386983.8014
 -20462726.49647 -15932233.14645  22182793.3914                   22182791.2734
 -19329622.84847 -15049690.39645  22156814.4454                   22156814.0474
 -83114355.54347 -64758845.79545  22006450.5784                   22006449.9694
 -48812965.35248 -38018891.02146  19934197.9694                   19934196.9224
 -12030482.44946  -9363493.43443  24337309.9384                   24337309.5394
 -32155700.91047 -25044235.59245  22440231.5004                   22440231.9844
 11  7 24  0 24  0.0000000  0  8G17G10G02G09G28G04G20G27
 -66249018.29748 -51583055.65346  21488547.0084                   21488545.2074
  -5777193.55146  -4489686.16344  23351549.5314                   23351551.3204
 -20631640.31648 -16063854.24745  22150650.2114                   22150648.5474
 -19441366.32447 -15136763.24344  22135550.1094                   22135550.2624
 -83151286.68447 -64787623.31745  21999423.0234                   21999421.8914
 -48913452.90648 -38097192.99346  19915075.5864                   19915075.0824
 -12082678.79746  -9404165.92843  24327377.2424                   24327376.2234
 -32252286.07047 -25119496.78345  22421851.5634                   22421852.0394
 11  7 24  0 24 30.0000000  0  8G17G10G02G09G28G04G20G27
 -66309179.04348 -51629934.15646  21477098.3054                   21477097.3324
  -5963208.57046  -4634632.77544  23316151.9454                   23316153.2894
 -20800145.50448 -16195156.93045  22118585.1564                   22118582.5274
 -19552366.91447 -15223257.18744  22114427.2424                   22114427.6844
 -83187746.01247 -64816033.21145  21992485.4454                   21992484.3484
 -49013271.36348 -38174973.57946  19896080.6414                   19896079.9344
 -12134287.62946  -9444380.65242  24317556.0634                   24317555.2734
 -32348279.63347 -25194296.97045  22403584.5784                   22403585.0354
 11  7 24  0 25  0.0000000  0  8G17G10G02G09G28G04G20G27
 -66369138.71147 -51676655.96846  21465688.3914                   21465687.5514
  -6149027.13746  -4779426.38743  23280791.5634                   23280792.6134
 -20968232.97347 -16326134.10345  22086598.4144                   22086596.8244
 -19662616.59847 -15309166.02444  22093447.4064                   22093446.4414
 -83223725.93047 -64844069.55845  21985638.1334                   21985637.8404
 -49112413.59048 -38252227.24246  19877214.3524                   19877213.9924
 -12185302.11746  -9484132.20843  24307848.8834                   24307847.1764
 -32443674.10247 -25268630.35845  22385431.8524                   22385431.4414
 11  7 24  0 25 30.0000000  0  8G17G10G02G09G28G04G20G27
 -66428898.05547 -51723221.70646  21454316.4224                   21454315.9304
  -6334646.71146  -4924064.91344  23245469.7894                   23245470.0864
 -21135901.98848 -16456785.22145  22054692.2894                   22054690.5634
 -19772115.70747 -15394489.99944  22072610.6884                   22072610.9304
 -83259227.32047 -64871733.02745  21978882.8284                   21978881.8914
 -49210880.77748 -38328954.91046  19858477.0554                   19858476.3754
 -12235723.63746  -9523421.68042  24298253.9304                   24298253.4454
 -32538470.37947 -25342497.59845  22367392.8834                   22367393.5634
 11  7 24  0 26  0.0000000  0  8G17G10G02G09G28G04G20G27
 -66488464.26247 -51769636.92546  21442981.3134                   21442980.4144
  -6520071.58646  -5068551.77444  23210184.6094                   23210186.4224
 -21303158.82047 -16587115.15145  22022863.8204                   22022862.2624
 -19880871.47347 -15479234.72844  22051915.3054                   22051915.1604
 -83294257.71147 -64899029.44645  21972216.8754                   21972215.7464
 -49308681.06648 -38405162.90846  19839865.6954                   19839865.1844
 -12285560.43746  -9562255.50042  24288769.1954                   24288769.4224
 -32632676.27347 -25415904.78245  22349465.7584                   22349466.1024
 11  7 24  0 26 30.0000000  0  8G17G10G02G09G28G04G20G27
 -66547834.39147 -51815899.36546  21431683.7664                   21431683.2304
  -6705294.70746  -5212881.38044  23174937.5554                   23174939.1644
 -21469998.52347 -16717120.04745  21991115.8524                   21991113.5474
 -19988880.10547 -15563397.25745  22031361.6414                   22031361.4844
 -83328813.48847 -64925956.08445  21965640.7344                   21965639.6484
 -49405811.09448 -38480848.63746  19821382.8284                   19821382.1644
 -12334810.20746  -9600631.93442  24279397.7584                   24279397.2974
 -32726288.45347 -25488849.36345  22331652.0084                   22331652.2544
 11  7 24  0 27  0.0000000  0  8G17G10G02G09G28G04G20G27
 -66607011.46547 -51862011.37046  21420422.7194                   21420421.2154
  -6890315.61746  -5357053.39944  23139728.9924                   23139730.9734
 -21636422.59447 -16846801.07345  21959446.3984                   21959444.7034
 -20096144.41847 -15646979.84245  22010949.8984                   22010949.3554
 -83362897.82047 -64952515.31445  21959154.8284                   21959153.5274
 -49502274.43447 -38556014.86746  19803026.5704                   19803025.8014
 -12383476.25846  -9638553.53942  24270137.1724                   24270136.3244
 -32819309.96146 -25561333.68845  22313950.3914                   22313950.6564
 11  7 24  0 27 30.0000000  0  8G17G10G02G09G28G04G20G27
 -66665996.29347 -51907973.57846  21409198.2894                   21409196.9184
  -7075131.46546  -5501065.67544  23104560.3524                   23104561.0634
 -21802430.82848 -16976158.06645  21927855.8134                   21927854.1604
 -20202664.80947 -15729982.71944  21990679.6174                   21990679.5044
 -83396511.63747 -64978707.94245  21952758.5314                   21952757.8054
 -49598072.56248 -38630662.73346  19784796.4694                   19784795.9414
 -12431560.46946  -9676021.71542  24260987.2114                   24260985.7194
 -32911742.19547 -25633358.81245  22296361.2664                   22296362.0164
 11  7 24  0 28  0.0000000  0  8G17G10G02G09G28G04G20G27
 -66724787.18747 -51953784.64946  21398010.9694                   21398009.6644
  -7259737.77046  -5644914.64644  23069430.2424                   23069431.6564
 -21968020.57447 -17105188.96545  21896345.2814                   21896343.1994
 -20308439.60547 -15812404.63544  21970551.2814                   21970551.1884
 -83429653.86747 -65004533.10845  21946451.2424                   21946450.3914
 -49693204.73848 -38704791.69146  19766693.3834                   19766693.1294
 -12479062.46145  -9713036.26242  24251947.5164                   24251945.6024
 -33003584.02347 -25704923.90445  22278884.6094                   22278884.7464
 11  7 24  0 28 30.0000000  0  8G17G10G02G09G28G04G20G27
 -66783384.64847 -51999445.02346  21386860.0164                   21386859.1994
  -7444131.36346  -5788597.89344  23034341.2504                   23034343.3404
 -22133190.30147 -17233892.58245  21864914.3134                   21864912.3324
 -20413468.86747 -15894245.57945  21950565.0784                   21950564.9694
 -83462324.50447 -65029990.78045  21940234.9304                   21940234.0044
 -49787671.35548 -38778402.03346  19748717.3524                   19748716.2304
 -12525982.74646  -9749597.51642  24243019.0314                   24243017.5824
 -33094835.83247 -25776029.21645  22261520.3204                   22261519.9414
 11  7 24  0 29  0.0000000  0  9G17G10G02G09G28G04G20G27G12
 -66841789.60947 -52044955.37546  21375746.0554                   21375745.1564
  -7628309.44546  -5932113.19744  22999293.6564                   22999294.6294
 -22297939.83647 -17362268.78845  21833563.0864                   21833561.2504
 -20517753.39847 -15975506.24344  21930720.3444                   21930720.0704
 -83494524.63347 -65055081.81345  21934107.9144                   21934107.1844
 -49881474.28548 -38851495.22746  19730866.9304                   19730866.5084
 -12572323.87545  -9785707.48442  24234200.7664                   24234200.2854
 -33185499.06647 -25846675.90845  22244267.5474                   22244267.6954
   4445625.93456   3481414.18253  24490003.0944                   24490002.5704
 11  7 24  0 29 30.0000000  0  9G17G10G02G09G28G04G20G27G12
 -65324594.21947 -50862725.20146  21664458.2424                   21664458.2034
  -6236856.60946  -4847864.12044  23264078.3134                   23264079.1454
 -20886856.21147 -16262723.05245  22102083.4694                   22102081.4884
 -19045883.75847 -14828594.82644  22210807.6414                   22210807.7544
 -81950847.43447 -63852216.50645  22227860.0704                   22227858.0234
 -48399205.08648 -37696480.25146  20012932.9694                   20012932.6954
 -11042678.61745  -8593776.10942  24525282.9844                   24525281.4454
 -31700164.94147 -24689272.72245  22526917.3204                   22526917.0704
   5832369.34446   4561993.58143  24753891.3284                   24753890.7814
 11  7 24  0 30  0.0000000  0  9G17G10G02G09G28G04G20G27G12
 -65382647.37547 -50907961.42746  21653411.3834                   21653411.5124
  -6420627.15246  -4991061.86244  23229107.4924                   23229107.9414
 -21050794.99647 -16390467.48845  22070886.6024                   22070885.5274
 -19148712.03147 -14908720.71845  22191240.2504                   22191240.8284
 -81982140.60247 -63876600.81945  22221904.9224                   22221903.0394
 -48491715.64847 -37768566.40246  19995329.3444                   19995328.6334
 -11087896.53545  -8629010.84442  24516677.4224                   24516676.0634
 -31789685.11347 -24759028.70645  22509881.8984                   22509882.4264
   5643749.14146   4415016.69942  24717997.3444                   24717997.5704
 11  7 24  0 30 30.0000000  0  9G17G10G02G09G28G04G20G27G12
 -65440526.85247 -50953062.32946  21642397.3834                   21642396.2854
  -6604190.80546  -5134098.32643  23194176.6254                   23194176.5554
 -21214328.35947 -16517896.03045  22039767.4384                   22039765.2194
 -19250814.07847 -14988280.75044  22171810.8364                   22171811.0474
 -82012982.37947 -63900633.39545  22216035.9384                   22216034.3984
 -48583582.97348 -37840151.32246  19977847.4694                   19977846.8484
 -11132556.60545  -8663810.88342  24508179.2424                   24508176.9224
 -31878636.46547 -24828341.48345  22492955.4064                   22492955.1414
   5455194.05946   4268090.72843  24682116.5554                   24682117.2584
 11  7 24  0 31  0.0000000  0  9G17G10G02G09G28G04G20G27G12
 -65498237.07047 -50998031.33746  21631415.6414                   21631414.7974
  -6787548.78946  -5276974.59044  23159284.1334                   23159285.7234
 -21377459.78147 -16645011.38445  22008724.8444                   22008723.1484
 -19352194.61347 -15067278.56345  22152519.0864                   22152518.6884
 -82043377.71547 -63924318.11145  22210251.6644                   22210250.1414
 -48674812.57847 -37911239.31346  19960487.2034                   19960485.9494
 -11176664.08645  -8698180.34042  24499785.2974                   24499784.6374
 -31967023.96547 -24897214.87445  22476135.6884                   22476135.2384
   5266701.18046   4121213.26043  24646248.1724                   24646248.2154
 11  7 24  0 31 30.0000000  0  9G17G10G02G09G28G04G20G27G12
 -65555773.52347 -51042864.94546  21620466.4064                   21620465.8404
  -6970692.60546  -5419683.94744  23124433.4064                   23124433.5864
 -21540183.14147 -16771808.76945  21977759.7424                   21977757.7034
 -19452848.73047 -15145710.31545  22133364.5634                   22133364.5394
 -82073321.88347 -63947651.24245  22204553.4694                   22204552.2544
 -48765400.20347 -37981827.06746  19943248.6884                   19943248.2664
 -11220215.32045  -8732116.38342  24491498.4454                   24491497.7234
 -32054843.17647 -24965645.43244  22459424.0314                   22459424.0594
   5078277.44946   3974389.60843  24610392.0554                   24610392.8714
 11  7 24  0 32  0.0000000  0  9G17G10G02G09G28G04G20G27G12
 -65613132.36747 -51087560.15646  21609552.1174                   21609550.5124
  -7153615.53146  -5562221.17543  23089623.7114                   23089624.2934
 -21702493.81648 -16898284.56845  21946872.8834                   21946870.9694
 -19552772.85247 -15223573.25445  22114349.9304                   22114350.4414
 -82102811.73847 -63970630.38945  22198941.8914                   22198941.1994
 -48855342.95748 -38051912.31446  19926133.5234                   19926132.4774
 -11263207.83655  -8765617.07052  24483316.4614                   24483316.2974
 -32142091.21147 -25033630.94345  22442821.4694                   22442821.1564
   4889928.11546   3827623.91043  24574550.5704                   24574551.7114
 11  7 24  0 32 30.0000000  0  9G17G10G02G09G28G04G20G27G12
 -65670312.02747 -51132115.76746  21598670.9924                   21598670.0354
  -7336312.55546  -5704582.37344  23054857.3754                   23054857.6804
 -21864388.64848 -17024436.35245  21916065.3444                   21916063.2774
 -19651965.49247 -15300866.22245  22095473.7664                   22095473.8594
 -82131845.84847 -63993254.40245  22193417.3364                   22193416.4804
 -48944640.21147 -38121494.58246  19909140.4224                   19909139.8484
 -11305640.89845  -8798681.80142  24475242.1884                   24475240.7934
 -32228766.80147 -25101170.36745  22426327.5394                   22426327.7114
   4701656.47746   3680918.91143  24538723.1804                   24538723.7274
 11  7 24  0 33  0.0000000  0  9G17G10G02G09G28G04G20G27G12
 -65727308.91847 -51176528.94646  21587824.9614                   21587823.4104
  -7518776.39546  -5846761.90044  23020135.9694                   23020136.1884
 -22025863.27348 -17150260.68946  21885337.6414                   21885335.4144
 -19750423.30547 -15377586.58645  22076738.3834                   22076738.5004
 -82160421.09847 -64015520.83145  22187979.5864                   22187978.4454
 -49033289.05548 -38190571.57446  19892270.8984                   19892270.4264
 -11347512.17255  -8831308.69952  24467275.0394                   24467273.2814
 -32314866.99647 -25168261.42945  22409943.1804                   22409943.4804
   4513467.78546   3534278.42744  24502912.3054                   24502912.8164
 11  7 24  0 33 30.0000000  0  9G17G10G02G09G28G04G20G27G12
 -65784124.73047 -51220801.04046  21577013.1564                   21577012.1804
  -7701005.50446  -5988758.52344  22985459.1094                   22985460.4024
 -22186918.14147 -17275757.92445  21854689.3674                   21854687.9534
 -19848148.16047 -15453735.83444  22058141.7274                   22058141.4384
 -82188539.15647 -64037431.07245  22182628.6564                   22182627.3204
 -49121292.04748 -38259145.33546  19875525.0554                   19875524.6294
 -11388824.27345  -8863500.01242  24459413.1644                   24459411.0514
 -32400394.13347 -25234905.97545  22393667.6024                   22393668.1524
   4325362.35247   3387702.88344  24467117.1564                   24467116.7544
 11  7 24  0 34  0.0000000  0  9G17G10G02G09G28G04G20G27G12
 -65840756.42247 -51264929.65146  21566236.5394                   21566235.4454
  -7882993.51246  -6130567.21744  22950827.6954                   22950828.9224
 -22347548.98847 -17400924.78745  21824122.7344                   21824120.8094
 -19945136.99247 -15529311.52444  22039685.1884                   22039685.9534
 -82216197.39147 -64058982.96345  22177364.9454                   22177364.8874
 -49208647.11747 -38327214.22546  19858901.2114                   19858900.9884
 -11429575.34445  -8895254.15242  24451657.9224                   24451655.8524
 -32485345.78947 -25301102.06445  22377502.0314                   22377501.7234
   4137345.29747   3241196.18444  24431338.9304                   24431338.5904
 11  7 24  0 34 30.0000000  0  9G17G10G02G09G28G04G20G27G12
 -65897205.44547 -51308915.93046  21555494.4534                   21555493.9264
  -8064738.47346  -6272186.55344  22916243.1724                   22916245.1374
 -22507756.05548 -17525761.41345  21793636.3914                   21793634.4734
 -20041391.54747 -15604315.11445  22021369.2114                   22021369.1094
 -82243397.69147 -64080178.02845  22172189.1024                   22172188.8524
 -49295356.44948 -38394779.91646  19842401.6334                   19842400.6994
 -11469767.99245  -8926573.08642  24444009.9774                   24444008.6134
 -32569723.91447 -25366851.25745  22361445.2584                   22361446.2624
   3949416.75446   3094758.47044  24395576.8444                   24395577.6414
 11  7 24  0 35  0.0000000  0  9G17G10G02G09G28G04G20G27G12
 -65953476.32847 -51352763.40546  21544786.5864                   21544785.4804
  -8246241.34046  -6413617.24544  22881704.2814                   22881704.9694
 -22667542.76247 -17650270.48845  21763229.7664                   21763228.0124
 -20136916.74247 -15678750.31445  22003190.8444                   22003191.3164
 -82270144.84047 -64101020.00745  22167099.1414                   22167098.9264
 -49381425.62548 -38461846.78346  19826023.0634                   19826022.1844
 -11509407.84845  -8957461.32842  24436467.5864                   24436465.3134
 -32653533.63747 -25432157.54045  22345496.8364                   22345497.1724
   3761573.87546   2948387.51143  24359830.5704                   24359831.8984
 11  7 24  0 35 30.0000000  0  9G17G10G02G09G28G04G20G27G12
 -66009562.98447 -51396467.30846  21534113.4614                   21534113.0124
  -8427492.60946  -6554851.90744  22847212.6174                   22847213.6914
 -22826902.17648 -17774446.60745  21732904.3674                   21732902.1134
 -20231706.87947 -15752612.78145  21985152.9694                   21985153.4184
 -82296433.08647 -64121504.38744  22162097.0164                   22162096.1254
 -49466849.28548 -38528410.67246  19809767.6094                   19809766.1254
 -11548490.19545  -8987915.04342  24429029.4304                   24429028.0474
 -32736769.47747 -25497016.62745  22329657.8984                   22329658.2034
   3573824.62145   2802089.46942  24324103.9064                   24324104.2034
 11  7 24  0 36  0.0000000  0  9G17G10G02G09G28G04G20G27G12
 -66065468.68747 -51440030.23146  21523474.8984                   21523474.2664
  -8608492.28547  -6695890.49744  22812770.0084                   22812770.4844
 -22985836.20748 -17898291.25345  21702660.4924                   21702658.0474
 -20325765.40247 -15825905.15045  21967254.7504                   21967255.1914
 -82322266.25047 -64141634.14344  22157181.2274                   22157179.9454
 -49551631.78548 -38594474.93946  19793633.9694                   19793633.0704
 -11587019.38345  -9017937.77042  24421697.7114                   24421695.9964
 -32819435.50047 -25561431.71445  22313926.7504                   22313927.3834
   3386167.75046   2655863.43442  24288392.7344                   24288393.0394
 11  7 24  0 36 30.0000000  0  9G17G10G02G09G28G04G20G27G12
 -66121191.74247 -51483450.80146  21512871.3594                   21512870.6414
  -8789235.12947  -6836729.01044  22778376.1954                   22778376.3674
 -23144342.19547 -18021802.37445  21672497.7424                   21672495.9184
 -20419091.14847 -15898626.53844  21949495.0554                   21949495.5004
 -82347642.95347 -64161408.22344  22152351.7034                   22152351.0394
 -49635772.44147 -38660039.08146  19777622.3364                   19777621.7464
 -11624995.27045  -9047529.35542  24414472.0474                   24414469.8754
 -32901530.73047 -25625402.03245  22298304.7274                   22298305.2074
   3198606.59446   2509711.89842  24252701.5084                   24252700.3244
 11  7 24  0 37  0.0000000  0  9G17G10G02G09G28G04G20G27G12
 -66176736.63747 -51526732.53946  21502301.1254                   21502300.5944
  -8969722.10546  -6977368.08644  22744030.0864                   22744030.7384
 -23302423.71548 -18144982.72045  21642416.0084                   21642413.4264
 -20511688.91847 -15970780.68544  21931874.2584                   21931873.8444
 -82372568.23847 -64180830.55945  22147609.5864                   22147608.1804
 -49719276.92248 -38725107.49246  19761731.8914                   19761731.1294
 -11662423.352 5                  24407348.797
 -32983060.71947 -25688931.89245  22282790.0944                   22282789.7384
   3011138.44946   2363632.90242  24217026.9384                   24217026.5164
 11  7 24  0 37 30.0000000  0  9G17G10G02G09G28G04G20G27G12
 -66232098.55947 -51569871.73146  21491766.7194                   21491765.2704
  -9149945.37947  -7117801.71044  22709734.2504                   22709735.4024
 -23460075.22347 -18267828.00745  21612415.7664                   21612413.8954
 -20603554.79747 -16042364.52345  21914392.8524                   21914392.8284
 -82397037.78947 -64199897.79044  22142952.7584                   22142951.5004
 -49802141.38748 -38789677.20246  19745963.0314                   19745962.9494
 -11699300.254 5                  24400332.281
 -33064021.46947 -25752018.19545  22267383.6954                   22267384.3444
   2823770.29346   2217631.72243  24181372.5554                   24181372.2934
 11  7 24  0 38  0.0000000  0  9G17G10G02G09G28G04G20G27G12
 -64711857.80947 -50385268.56145  21781058.7344                   21781057.6334
  -7754477.75047  -6030424.25144  22975282.1484                   22975283.8444
 -22041872.30548 -17162734.75545  21882290.6564                   21882288.5124
 -19119268.11747 -14885777.54745  22196843.3834                   22196843.3444
 -80845633.62547 -62991011.43245  22438174.7114                   22438174.0634
 -48308946.65648 -37626148.83646  20030109.0164                   20030108.3984
 -10160208.199 5                  24693211.867
 -31568993.28147 -24587061.16745  22551878.4844                   22551878.1564
   4211927.89546   3299313.00743  24445531.0864                   24445530.6134
 11  7 24  0 38 30.0000000  0  9G17G10G02G09G28G04G20G27G12
 -64766852.02747 -50428121.24446  21770593.9144                   21770592.3794
  -7934161.81647  -6170437.70644  22941089.5554                   22941090.9534
 -22198658.31248 -17284905.63646  21852455.5234                   21852453.1024
 -19209669.42247 -14956220.13645  22179640.5164                   22179641.0354
 -80869191.80547 -63009368.47944  22433692.3284                   22433691.4344
 -48390532.93448 -37689722.53546  20014583.7974                   20014583.0004
 -10195985.11715                  24686402.242
 -31648816.12547 -24649260.77745  22536688.7974                   22536688.4574
   4024766.71546   3153473.15744  24409915.1644                   24409914.6994
 11  7 24  0 39  0.0000000  0  9G17G10G02G09G28G04G20G27G12
 -64821664.73847 -50470832.44245  21760163.1724                   21760162.3284
  -8113573.17647  -6310238.70644  22906948.6024                   22906949.8404
 -22355012.60547 -17406740.10546  21822701.9384                   21822699.7114
 -19299341.32847 -15026094.34944  22162576.8134                   22162575.9694
 -80892297.23047 -63027372.74745  22429295.5634                   22429295.2974
 -48471483.82448 -37752801.14246  19999179.6024                   19999178.6914
 -10231216.07815                  24679698.844
 -31728073.50047 -24711019.79145  22521606.3594                   22521606.5784
   3837709.32047   3007714.21644  24374320.1024                   24374320.0704
 11  7 24  0 39 30.0000000  0  8G17G10G02G09G28G04G27G12
 -64876290.93047 -50513398.31945  21749768.2194                   21749767.1954
  -8292703.87547  -6449820.94744  22872861.7584                   22872862.1214
 -22510929.46547 -17528233.69845  21793031.6804                   21793029.6334
 -19388280.09047 -15095397.30545  22145652.0084                   22145652.3754
 -80914945.69147 -63045020.92445  22424985.8134                   22424984.8094
 -48551795.95348 -37815382.00346  19983896.1024                   19983895.5004
 -31806761.56647 -24772335.16545  22506632.1954                   22506632.9184
   3650762.31647   2862041.27644  24338744.8284                   24338744.9804
 11  7 24  0 40  0.0000000  0  8G17G10G02G09G28G04G27G12
 -64930729.04347 -50555817.64546  21739408.8754                   21739408.3754
  -8471548.79347  -6589180.54744  22838828.5004                   22838828.2894
 -22666406.33647 -17649384.47645  21763445.4454                   21763443.3794
 -19476484.80947 -15164128.24844  22128866.6804                   22128866.9574
 -80937136.25047 -63062312.30145  22420762.8834                   22420761.7584
 -48631468.93048 -37877464.83446  19968735.1954                   19968734.0984
 -31884879.62147 -24833206.42545  22491767.5314                   22491767.4304
   3463929.47346   2716457.31244  24303191.3984                   24303192.0124
 11  7 24  0 40 30.0000000  0  8G17G10G02G09G28G04G27G12
 -64984968.31247 -50598082.02246  21729087.3594                   21729087.3014
  -8650093.81246  -6728306.47744  22804852.5164                   22804853.1374
 -22821431.23848 -17770183.04345  21733945.8444                   21733942.8794
 -19563944.79747 -15232278.91945  22112224.1884                   22112224.4264
 -80958858.44147 -63079238.72444  22416629.4454                   22416627.9844
 -48710492.78948 -37939041.85246  19953697.3204                   19953696.2074
 -31962417.61747 -24893625.67045  22477012.1334                   22477012.4614
   3277223.78146   2570972.41544  24267662.0554                   24267663.2774
 11  7 24  0 41  0.0000000  0  8G17G10G02G09G28G04G27G12
 -65038998.86747 -50640183.77245  21718805.9844                   21718805.0664
  -8828325.68747  -6867188.35544  22770936.2734                   22770936.8794
 -22975993.65248 -17890621.24945  21704533.0004                   21704530.5944
 -19650651.23847 -15299842.37144  22095724.1414                   22095724.5164
 -80980103.06247 -63095792.98745  22412586.7034                   22412585.8674
 -48788859.28548 -38000106.63046  19938784.6644                   19938783.9454
 -32039366.80947 -24953586.11145  22462369.4064                   22462369.7384
   3090656.18846   2425595.16143  24232159.5314                   24232160.0594
 11  7 24  0 41 30.0000000  0  8G17G10G02G09G28G04G27G12
 -65092817.65647 -50682120.51445  21708564.0944                   21708564.3984
  -9006238.02347  -7005821.23744  22737080.3834                   22737079.9884
 -23130089.73448 -18010696.07245  21675209.7584                   21675207.4804
 -19736601.97347 -15366816.97845  22079368.1884                   22079369.1804
 -81000867.88747 -63111973.39445  22408634.7344                   22408634.0864
 -48866566.51248 -38060657.70846  19923997.4454                   19923996.4344
 -32115725.31246 -25013086.27945  22447838.8524                   22447838.9804
   2904232.49646   2280330.03044  24196683.7274                   24196684.4344
 11  7 24  0 42  0.0000000  0  8G17G10G02G09G28G04G27G12
 -65146428.79747 -50723895.42245  21698362.7344                   21698361.6914
  -9183831.46547  -7144205.67444  22703285.5474                   22703285.6604
 -23283722.32048 -18130409.72245  21645974.0944                   21645971.7074
 -19821801.76246 -15433206.42544  22063155.7894                   22063155.7344
 -81021157.51247 -63127783.56545  22404774.5084                   22404773.7854
 -48943619.50048 -38120698.97646  19909334.4774                   19909334.1174
 -32191497.86747 -25072129.88545  22433419.9384                   22433420.0204
   2717949.95346   2135174.94443  24161234.7584                   24161236.4184
 11  7 24  0 42 30.0000000  0  8G17G10G02G09G28G04G27G12
 -65199834.55547 -50765510.31046  21688199.8364                   21688198.7704
  -9361105.00047  -7282340.78144  22669550.4304                   22669551.6484
 -23436893.21947 -18249763.62145  21616826.7034                   21616824.4344
 -19906253.71947 -15499013.15145  22047084.9534                   22047084.8164
 -81040975.00847 -63143225.78745  22401003.3284                   22401002.6644
 -49020022.14548 -38180233.49846  19894795.7274                   19894794.9344
 -32266688.03147 -25130719.65644  22419111.7584                   22419111.3444
   2531808.15646   1990129.44743  24125813.8984                   24125814.6524
 11  7 24  0 43  0.0000000  0  8G17G10G02G09G28G04G27G12
 -65253042.02047 -50806970.67746  21678075.2274                   21678074.5704
  -9538062.66447  -7420229.78244  22635876.9384                   22635877.4414
 -23589608.89548 -18368762.81545  21587765.9694                   21587763.7814
 -19989965.82847 -15564243.35445  22031155.0784                   22031155.7664
 -81060328.41847 -63158306.39344  22397320.2424                   22397320.0044
 -49095783.24648 -38239268.10446  19880378.7894                   19880377.8164
 -32341304.24647 -25188862.22345  22404912.5314                   22404912.4924
   2345801.68446   1845189.39043  24090418.2504                   24090418.4344
 11  7 24  0 43 30.0000000  0  8G17G10G02G09G28G04G27G12
 -65306047.81247 -50848273.90846  21667988.2974                   21667987.6254
  -9714697.69547  -7557867.37844  22602265.2664                   22602265.1254
 -23741864.97748 -18487403.86845  21558792.9844                   21558790.4024
 -20072935.87947 -15628895.34845  22015366.6564                   22015366.9384
 -81079214.93447 -63173023.20444  22393726.0704                   22393726.2974
 -49170900.77748 -38297801.25246  19866084.6094                   19866083.6764
 -32415344.15647 -25246555.68744  22390823.3914                   22390822.6174
   2159935.96146   1700358.94543  24055048.8594                   24055048.4104
 11  7 24  0 44  0.0000000  0  8G17G10G02G09G28G04G27G12
 -65358856.61747 -50889423.63346  21657939.2274                   21657938.5744
  -9891011.75047  -7695254.83444  22568713.0704                   22568713.0084
 -23893665.73448 -18605690.13046  21529905.8674                   21529903.6174
 -20155169.46547 -15692973.45245  21999717.9774                   21999717.9024
 -81097640.24247 -63187380.64544  22390220.8914                   22390219.7664
 -49245380.63748 -38355837.50246  19851911.5944                   19851911.1174
 -32488813.59447 -25303804.66445  22376842.9694                   22376842.8444
   1974207.93447   1555635.83043  24019707.2114                   24019706.2664
 11  7 24  0 44 30.0000000  0  8G17G10G02G09G28G04G27G12
 -65411467.03147 -50930418.76245  21647927.6254                   21647926.6724
 -10066999.60547  -7832388.13244  22535224.2424                   22535225.0594
 -24045008.76647 -18723619.70346  21501106.3134                   21501103.4924
 -20236665.94147 -15756477.21245  21984209.9224                   21984209.1094
 -81115603.28947 -63201377.84244  22386802.1884                   22386801.4144
 -49319222.87948 -38413376.89946  19837859.4144                   19837858.8984
 -32561712.30547 -25360608.88945  22362970.3754                   22362970.4144
   1788621.33247   1411022.93043  23984390.2974                   23984390.0004
 11  7 24  0 45  0.0000000  0  8G17G10G02G09G28G04G27G12
 -65463882.90647 -50971262.30146  21637952.8134                   21637952.5164
 -10242661.74647  -7969267.63044  22501796.4534                   22501797.0474
 -24195897.08247 -18841194.96646  21472392.5784                   21472390.4344
 -20317430.15647 -15819410.36944  21968840.4844                   21968839.9964
 -81133109.14847 -63215018.83344  22383470.5784                   22383470.1604
 -49392432.74648 -38470423.53746  19823928.1804                   19823927.6994
 -32634045.27347 -25416972.29245  22349206.1094                   22349206.5944
   1603174.20747   1266518.66444  23949101.1254                   23949100.2154
 11  7 24  0 45 30.0000000  0  8G17G10G02G09G28G04G27G12
 -65516099.10247 -51011950.25345  21628016.6094                   21628015.9224
 -10417989.99247  -8105886.94344  22468432.5394                   22468432.5274
 -24346324.73047 -18958411.28546  21443767.6174                   21443765.2664
 -20397457.96947 -15881769.70145  21953611.5944                   21953611.9024
 -81150153.30547 -63228300.02144  22380227.2344                   22380226.4844
 -49465006.56648 -38526974.56646  19810118.1484                   19810117.1724
 -32705808.38347 -25472891.63544  22335549.6724                   22335550.0434
   1417873.21547   1122128.29743  23913839.0784                   23913839.2934
 11  7 24  0 46  0.0000000  0  8G17G10G02G09G28G04G27G12
 -65568112.43447 -51052480.12045  21618118.7274                   21618118.3164
 -10592977.87147  -8242241.05444  22435133.2734                   22435133.6024
 -24496288.00447 -19075265.71046  21415230.5084                   21415228.4224
 -20476747.55147 -15943553.79344  21938523.6954                   21938523.5634
 -81166733.09447 -63241219.35944  22377072.3444                   22377072.0904
 -49536942.95348 -38583028.89546  19796428.8054                   19796428.0164
 -32776999.94147 -25528365.62945  22322002.4774                   22322003.2934
   1232723.63347    977855.93844  23878606.7114                   23878606.6994
 11  7 24  0 46 30.0000000  0  8G17G10G02G09G28G04G27G12
 -65619926.93747 -51092855.05845  21608259.1334                   21608258.5004
 -10767626.25447  -8378330.61745  22401899.0474                   22401899.9574
 -24645790.63747 -19191761.22846  21386781.2194                   21386778.8524
 -20555304.19947 -16004766.76545  21923574.8134                   21923574.6804
 -81182853.93747 -63253781.09944  22374005.0634                   22374003.8914
 -49608246.96148 -38638590.46246  19782860.2584                   19782859.2034
 -32847625.38747 -25583398.48645  22308563.3204                   22308562.8164
   1047723.50047    833700.02743  23843402.4064                   23843401.1954
 11  7 24  0 47  0.0000000  0  8G17G10G02G09G28G04G27G12
 -64096120.33247 -49905473.29246  21898229.6954                   21898229.2544
  -9366505.35247  -7286548.00444  22668522.8834                   22668523.8634
 -23219406.34047 -18080292.90445  21658212.8674                   21658210.0824
 -19057705.82847 -14837807.03445  22208558.1174                   22208557.7544
 -79623095.59447 -62038385.04545  22670816.9144                   22670816.6724
 -48103497.65648 -37466058.53446  20069204.1414                   20069203.6094
 -31342263.17247 -24410389.00845  22595024.0234                   22595024.2274
   2438301.20746   1917267.12243  24108020.3054                   24108018.8554
 11  7 24  0 47 30.0000000  0  8G17G10G02G09G28G04G27G12
 -64147535.05148 -49945536.72146  21888446.1564                   21888444.9614
  -9540462.48847  -7422098.93444  22635420.1334                   22635420.9104
 -23367983.22347 -18196067.04046  21629939.7504                   21629937.2274
 -19134797.84846 -14897878.72744  22193888.1254                   22193888.2154
 -79638298.90247 -62050231.79444  22667923.3984                   22667923.1214
 -48173540.24648 -37520637.18246  20055875.7034                   20055874.7664
 -31411757.94947 -24464540.80944  22581799.8284                   22581800.0314
   2253607.48846   1773350.05043  24072873.6564                   24072873.8054
 11  7 24  0 48  0.0000000  0  8G17G10G02G09G28G04G27G12
 -64198750.89847 -49985445.17146  21878699.6884                   21878699.3874
  -9714070.53947  -7557377.88044  22602383.4694                   22602384.1054
 -23516097.50047 -18311480.70346  21601754.5314                   21601752.3634
 -19211160.63747 -14957382.19744  22179356.7584                   22179357.3484
 -79653045.82847 -62061722.96844  22665117.8834                   22665116.8594
 -48242955.75048 -37574727.18446  20042666.6724                   20042665.8324
 -31480690.66047 -24518254.60644  22568681.9844                   22568682.7304
   2069068.26646   1629553.32043  24037757.3594                   24037757.3094
 11  7 24  0 48 30.0000000  0  8G17G10G02G09G28G04G27G12
 -64249767.60547 -50025198.45046  21868991.8834                   21868990.5664
  -9887325.45347  -7692381.62844  22569413.7194                   22569414.2704
 -23663747.91848 -18426532.93046  21573657.5554                   21573655.2544
 -19286795.08247 -15016318.17045  22164964.0314                   22164964.4104
 -79667337.09847 -62072859.05744  22662398.2734                   22662397.3134
 -48311745.20348 -37628329.36146  20029576.6254                   20029575.3984
 -31549062.03147 -24571531.04045  22555671.2344                   22555671.8914
   1884686.40246   1485879.21344  24002671.4144                   24002670.4774
 11  7 24  0 49  0.0000000  0  8G17G10G02G09G28G04G27G12
 -64300582.24247 -50064794.26845  21859321.9224                   21859320.8404
 -10060221.19947  -7827105.49345  22536513.0944                   22536513.3054
 -23810931.12947 -18541221.08346  21545648.8834                   21545647.1804
 -19361699.25047 -15074685.06245  22150710.4304                   22150710.3244
 -79681170.96147 -62083638.72644  22659765.2894                   22659765.1054
 -48379907.46548 -37681442.81346  20016605.1884                   20016604.7854
 -31616870.82847 -24624369.08745  22542768.7114                   22542768.7274
   1700466.53146   1342331.38144  23967614.8594                   23967614.8554
 11  7 24  0 49 30.0000000  0  8G17G10G02G09G28G04G27G12
 -64351193.24247 -50104231.43545  21849691.0864                   21849690.1994
 -10232753.23447  -7961545.97545  22503681.2974                   22503681.3634
 -23957645.05947 -18655543.58546  21517730.4844                   21517728.2544
 -19435873.19546 -15132483.00344  22136595.6174                   22136596.0234
 -79694546.48847 -62094061.22844  22657219.8284                   22657219.6884
 -48447442.48448 -37734067.51146  20003753.7894                   20003752.9574
 -31684116.99647 -24676768.71144  22529971.4064                   22529971.8054
   1516412.14846   1198912.49344  23932589.2734                   23932589.9344
 11  7 24  0 50  0.0000000  0  8G17G10G02G09G28G04G27G12
 -64401604.95747 -50143513.28645  21840098.3914                   21840096.7624
 -10404922.32447  -8095703.61344  22470918.3364                   22470918.7274
 -24103893.73048 -18769503.54446  21489900.3134                   21489897.7464
 -19509322.60947 -15189716.32844  22122617.7114                   22122619.2704
 -79707468.98047 -62104130.76144  22654761.3364                   22654760.6214
 -48514356.37148 -37786208.20346  19991020.8984                   19991020.3054
 -31750806.25847 -24728734.36645  22517280.8284                   22517281.7624
   1332520.89546   1055620.70744  23897596.6334                   23897596.5124
 11  7 24  0 50 30.0000000  0  8G17G10G02G09G28G04G27G12
 -64451813.65647 -50182636.96446  21830543.9614                   21830542.5744
 -10576721.87947  -8229573.32644  22438226.3444                   22438227.2704
 -24249672.90647 -18883097.63746  21462159.5234                   21462156.3874
 -19582045.56247 -15246383.60044  22108779.5164                   22108779.8014
 -79719936.10547 -62113845.45544  22652388.6884                   22652387.5704
 -48580647.39548 -37837863.53646  19978405.3754                   19978405.1134
 -31816936.65647 -24780264.58344  22504696.6484                   22504697.1414
   1148797.86746    912460.01344  23862634.8284                   23862635.8984
 11  7 24  0 51  0.0000000  0  8G17G10G02G09G28G04G27G12
 -64501821.91447 -50221604.45646  21821027.9614                   21821026.5124
 -10748151.04747  -8363154.43044  22405604.2504                   22405604.4884
 -24394984.25847 -18996327.22146  21434507.5864                   21434505.0704
 -19654045.72947 -15302487.70444  22095078.1024                   22095078.7074
 -79731951.36747 -62123208.04244  22650102.6024                   22650101.7304
 -48646319.58248 -37889036.66446  19965908.9694                   19965908.0084
 -31882511.93047 -24831362.18144  22492217.9614                   22492218.7584
    965242.83246    769430.24844  23827705.5634                   23827705.8674
 11  7 24  0 51 30.0000000  0  8G17G10G02G09G28G04G27G12
 -64551628.11747 -50260414.49345  21811549.6644                   21811548.1724
 -10919204.86347  -8496443.04544  22373053.7974                   22373053.0824
 -24539825.87947 -19109190.76745  21406944.5314                   21406942.1914
 -19725322.60247 -15358028.12444  22081515.1954                   22081515.1644
 -79743514.04747 -62132217.94644  22647902.4844                   22647901.8754
 -48711372.98848 -37939727.63446  19953529.5634                   19953528.7034
 -31947531.60947 -24882026.91544  22479845.2274                   22479845.7544
    781859.56646    626534.23244  23792809.3134                   23792809.1334
 11  7 24  0 52  0.0000000  0  8G17G10G02G09G28G04G27G12
 -64601234.86347 -50299069.12045  21802109.8754                   21802108.6564
 -11089883.35947  -8629439.19444  22340574.8914                   22340574.0784
 -24684200.19147 -19221690.18546  21379471.5084                   21379468.7854
 -19795881.03547 -15413008.77844  22068088.2664                   22068088.3634
 -79754628.21547 -62140878.33144  22645787.1484                   22645786.5004
 -48775812.42248 -37989940.18946  19941267.2114                   19941266.4224
 -32012000.72347 -24932262.59044  22467577.2814                   22467577.8204
    598646.77346    483771.12544  23757945.1884                   23757944.5434
 11  7 24  0 52 30.0000000  0  8G17G10G02G09G28G04G27G12
 -64650643.22747 -50337569.17846  21792707.5784                   21792706.8324
 -11260183.82447  -8762140.78644  22308167.5634                   22308167.4384
 -24828107.50048 -19333825.68746  21352086.8364                   21352084.4024
 -19865723.22347 -15467431.31444  22054797.7584                   22054798.1134
 -79765295.72346 -62149190.75044  22643757.4454                   22643756.0084
 -48839640.50048 -38039676.34946  19929120.8364                   19929120.1644
 -32075921.16047 -24982070.74544  22455413.4064                   22455414.0864
    415606.04747    341142.01944  23723113.3364                   23723112.3754
 11  7 24  0 53  0.0000000  0  8G17G10G02G09G28G04G27G12
 -64699850.70747 -50375912.69445  21783344.2424                   21783343.6454
 -11430100.99247  -8894543.69944  22275832.8674                   22275833.2274
 -24971545.31648 -19445595.36546  21324791.2424                   21324788.8484
 -19934848.53947 -15521295.22945  22041644.3204                   22041643.8874
 -79775515.07847 -62157153.91144  22641813.1174                   22641812.0594
 -48902856.63748 -38088935.66846  19917091.6024                   19917090.5274
 -32139292.69547 -25031451.16545  22443354.3364                   22443355.0984
    232741.23446    198650.00343  23688315.6414                   23688313.5234
 11  7 24  0 53 30.0000000  0  8G17G10G02G09G28G04G27G12
 -64748860.99647 -50414102.54846  21774017.8054                   21774017.2344
 -11599634.98447  -9026648.02344  22243571.9924                   22243572.3554
 -25114516.69548 -19557001.58446  21297584.6564                   21297582.3054
 -20003262.37147 -15574604.75444  22028624.9774                   22028625.7624
 -79785291.85247 -62164772.21344  22639952.6644                   22639952.8674
 -48965466.52748 -38137722.57946  19905177.1564                   19905176.4734
 -32202120.42647 -25080407.84345  22431398.5084                   22431399.1054
     50050.69946     56293.72744  23653549.6724                   23653548.8244
 11  7 24  0 54  0.0000000  0  8G17G10G02G09G28G04G27G12
 -64797673.74247 -50452138.48745  21764728.8284                   21764728.1024
 -11768782.80947  -9158451.44645  22211383.9844                   22211384.3404
 -25257021.12148 -19668043.95146  21270466.9614                   21270464.5824
 -20070965.92647 -15627360.81245  22015741.9924                   22015741.8324
 -79794626.48447 -62172045.96744  22638176.0554                   22638176.2854
 -49027471.47348 -38186038.10946  19893377.7504                   19893377.0744
 -32264405.75847 -25128941.87544  22419546.8134                   22419546.4224
   -132463.53546    -85925.09344  23618819.0004                   23618818.5084
 11  7 24  0 54 30.0000000  0  8G17G10G02G09G28G04G27G12
 -64846285.97747 -50490018.17646  21755478.5314                   21755477.3834
 -11937538.01647  -9289948.95844  22179270.8134                   22179270.6094
 -25399054.91447 -19778719.58546  21243438.8284                   21243436.8914
 -20137957.77347 -15679562.28745  22002993.3364                   22002993.5164
 -79803517.31647 -62178973.92044  22636484.1174                   22636484.1134
 -49088870.55548 -38233881.56446  19881693.9774                   19881693.3714
 -32326147.18047 -25177052.07745  22407797.3444                   22407797.7234
   -314796.19546   -228002.49144  23584122.5474                   23584122.1024
 11  7 24  0 55  0.0000000  0  8G17G10G02G09G28G04G27G12
 -64894699.44947 -50527742.97645  21746265.3834                   21746265.0904
 -12105899.06247  -9421139.32245  22147233.0704                   22147232.3524
 -25540619.32848 -19889029.48446  21216500.1174                   21216497.3794
 -20204241.38746 -15731211.88345  21990379.8984                   21990381.1094
 -79811966.87547 -62185558.04844  22634876.8674                   22634875.6804
 -49149667.17248 -38281255.54346  19870124.9614                   19870124.4104
 -32387347.93047 -25224740.97544  22396150.8914                   22396152.0234
   -496946.96946   -369938.16743  23549459.8204                   23549460.2154
 11  7 24  0 55 30.0000000  0  8G17G10G02G09G28G04G27G12
 -64942915.57447 -50565314.01445  21737090.3364                   21737089.3524
 -12273864.33247  -9552021.28844  22115270.0084                   22115269.2894
 -25681715.76648 -19998974.71546  21189650.6334                   21189647.6724
 -20269820.02346 -15782312.15145  21977901.1334                   21977901.1134
 -79819978.20747 -62191800.65644  22633351.9534                   22633351.4614
 -49209864.80548 -38328162.77346  19858669.6024                   19858668.8794
 -32448011.51647 -25272011.29944  22384606.4614                   22384607.1454
   -678915.53546   -511731.81244  23514832.7504                   23514832.9924
 11  7 24  0 56  0.0000000  0  8G17G10G02G09G28G04G27G12
 -63415513.85247 -49375130.87245  22027745.4384                   22027744.6644
 -10866006.24647  -8454988.93944  22383176.6484                   22383175.7154
 -24246920.61748 -18880952.47246  21462682.4614                   21462680.1604
 -18759274.52347 -14605263.72045  22265348.7344                   22265348.2194
 -78252133.40646 -60970103.44344  22931702.4454                   22931701.9924
 -47694044.73048 -37147004.27146  20147120.6094                   20147119.6134
 -30932718.85947 -24091263.77444  22672957.7194                   22672958.0594
    714724.91446    574221.85544  23780033.3914                   23780033.5904
 11  7 24  0 56 30.0000000  0  8G17G10G02G09G28G04G27G12
 -63463337.93447 -49412396.41345  22018644.5474                   22018643.7664
 -11033173.51247  -8585249.08445  22351365.5704                   22351365.3484
 -24387083.28547 -18990170.09546  21436010.5164                   21436008.2974
 -18823451.50846 -14655271.76445  22253135.6334                   22253135.8554
 -78259274.65647 -60975668.07344  22930343.7274                   22930343.9654
 -47753053.30948 -37192984.98146  20135891.5944                   20135890.9454
 -30992316.12947 -24137703.19844  22661616.7034                   22661616.6764
    533124.10546    432714.70644  23745475.4924                   23745475.4344
 11  7 24  0 57  0.0000000  0  8G17G10G02G09G28G04G27G12
 -63510961.78147 -49449505.91145  22009582.2584                   22009581.0354
 -11199932.68747  -8715191.26944  22319632.3284                   22319631.9734
 -24526774.10948 -19099020.05546  21409428.2974                   21409426.0474
 -18886926.14847 -14704732.50945  22241056.9844                   22241056.8324
 -78265978.40247 -60980891.84244  22929068.2114                   22929068.4224
 -47811466.02748 -37238501.37846  20124776.1254                   20124775.8284
 -31051378.53947 -24183725.87444  22650378.1564                   22650378.3634
    351714.23447    291356.40144  23710955.3204                   23710954.7034
 11  7 24  0 57 30.0000000  0  8G17G10G02G09G28G04G27G12
 -63558384.46547 -49486458.66845  22000557.9534                   22000556.2934
 -11366280.14847  -8844812.60245  22287977.3834                   22287976.7274
 -24665992.16848 -19207501.61946  21382936.0864                   21382933.1914
 -18949699.50847 -14753646.83045  22229111.7194                   22229111.8244
 -78272245.17647 -60985775.03444  22927875.8134                   22927874.5004
 -47869284.12948 -37283554.42746  20113773.4454                   20113772.6684
 -31109907.24247 -24229332.65744  22639239.9844                   22639240.7584
    170497.95347    150148.98044  23676471.1024                   23676470.6844
 11  7 24  0 58  0.0000000  0  8G17G10G02G09G28G04G27G12
 -63605607.95347 -49523256.20545  21991571.8594                   21991570.8284
 -11532214.76647  -8974112.24845  22256401.3834                   22256401.0824
 -24804739.20348 -19315616.16446  21356532.9844                   21356530.6214
 -19011775.52346 -14802017.75745  22217299.0234                   22217299.5434
 -78278078.62147 -60990320.59544  22926765.6644                   22926764.9184
 -47926511.62948 -37328147.29046  20102883.7664                   20102882.9224
 -31167905.95347 -24274526.46745  22628203.6094                   22628203.3914
    -10524.80547      9092.33444  23642022.5004                   23642022.5434
 11  7 24  0 58 30.0000000  0  8G17G10G02G09G28G04G27G12
 -63652629.69547 -49559896.53446  21982623.7194                   21982622.9534
 -11697730.94147  -9103085.83045  22224903.8524                   22224903.8284
 -24943012.66447 -19423361.67946  21330220.7584                   21330217.9414
 -19073153.86347 -14849845.02744  22205618.5864                   22205618.9774
 -78283477.53147 -60994527.56244  22925738.4774                   22925737.6414
 -47983148.08248 -37372279.57646  20092106.1094                   20092105.3014
 -31225374.28147 -24319307.01144  22617267.5234                   22617267.3914
   -191349.27747   -131809.75844  23607613.6174                   23607613.5474
 11  7 24  0 59  0.0000000  0  8G17G10G02G09G28G04G27G12
 -63699452.63747 -49596381.96245  21973713.4064                   21973712.7584
 -11862828.14147  -9231732.94445  22193487.1484                   22193488.0354
 -25080815.08648 -19530740.15046  21303997.6724                   21303995.3404
 -19133839.05547 -14897132.17245  22194070.6724                   22194071.0664
 -78288445.84847 -60998399.01844  22924793.7424                   22924792.0634
 -48039198.22748 -37415955.00646  20081440.0784                   20081439.4964
 -31282316.58647 -24363677.65244  22606431.4224                   22606432.0554
   -371976.59447   -272558.22344  23573240.4224                   23573241.4884
 11  7 24  0 59 30.0000000  0  8G17G10G02G09G28G04G27G12
 -63746073.82047 -49632710.14545  21964841.4384                   21964841.0354
 -12027500.23447  -9360048.81145  22162151.0704                   22162151.6994
 -25218142.96947 -19637748.86646  21277865.2974                   21277862.7974
 -19193829.77747 -14943878.17044  22182655.2814                   22182655.6954
 -78292981.82847 -61001933.56544  22923929.7504                   22923928.8754
 -48094661.27748 -37459172.95046  20070885.9064                   20070884.9924
 -31338731.75047 -24407637.51844  22595696.0554                   22595696.6414
   -552401.26646   -413148.75544  23538906.4384                   23538907.5434
 11  7 24  1  0  0.0000000  0  8G17G10G02G09G28G04G27G12
 -63792487.86747 -49668876.96245  21956009.5554                   21956008.7584
 -12191739.02747  -9488027.00945  22130897.8594                   22130897.5554
 -25354991.31648 -19744383.91146  21251823.8524                   21251821.1054
 -19253123.14547 -14990080.78845  22171371.7584                   22171372.3094
 -78297081.87147 -61005128.40844  22923148.7504                   22923148.3324
 -48149533.91048 -37501930.85946  20060444.4924                   20060442.7034
 -31394616.58647 -24451184.17544  22585062.1804                   22585061.9774
   -732616.29346   -553575.96544  23504613.6024                   23504613.5394
 11  7 24  1  0 30.0000000  0  8G17G10G02G09G28G04G27G12
 -63838698.18447 -49704884.99445  21947216.3284                   21947215.0164
 -12355545.22347  -9615668.14645  22099726.3134                   22099726.0864
 -25491363.21948 -19850647.69546  21225872.6024                   21225870.7194
 -19311724.86347 -15035744.45344  22160220.7344                   22160219.7384
 -78300750.94547 -61007987.46544  22922451.3134                   22922451.1954
 -48203821.89848 -37544233.17646  20050113.4384                   20050112.7584
 -31449976.66047 -24494321.92444  22574526.8204                   22574527.7894
   -912623.53946   -693841.28644  23470359.2584                   23470358.8594
 11  7 24  1  1  0.0000000  0  8G17G10G02G09G28G04G27G12
 -63884704.52347 -49740734.07446  21938461.3754                   21938460.6174
 -12518915.46547  -9742969.53945  22068637.6334                   22068638.1294
 -25627258.55548 -19956540.13246  21200012.7504                   21200010.1174
 -19369636.70347 -15080870.54744  22149199.9614                   22149200.7664
 -78303989.94547 -61010511.35344  22921834.9534                   22921834.7544
 -48257526.95748 -37586081.26846  20039893.4224                   20039892.9884
 -31504813.54347 -24537051.99644  22564091.7194                   22564092.5234
  -1092420.35546   -833942.60444  23436144.7194                   23436144.3914
 11  7 24  1  1 30.0000000  0  8G17G10G02G09G28G04G27G12
 -63930506.90647 -49776424.22945  21929745.3284                   21929744.7544
 -12681846.90647  -9869929.03145  22037633.0164                   22037633.0004
 -25762677.07048 -20062061.02946  21174243.5234                   21174240.9844
 -19426860.97747 -15125460.86645  22138310.6414                   22138310.7304
 -78306800.62547 -61012701.51644  22921300.2734                   22921299.7074
 -48310651.67248 -37627477.15146  20029784.2584                   20029783.4654
 -31559129.43747 -24579376.09244  22553756.1954                   22553756.2114
  -1272004.95746   -973878.51544  23401970.1884                   23401970.1684
 11  7 24  1  2  0.0000000  0  8G17G10G02G09G28G04G27G12
 -63976104.19547 -49811954.58545  21921068.0864                   21921068.0554
 -12844335.25047  -9996543.27145  22006712.4774                   22006712.6174
 -25897617.44147 -20167209.33946  21148565.2114                   21148562.2584
 -19483398.59047 -15169516.12544  22127551.6564                   22127551.5394
 -78309183.14147 -61014558.03344  22920847.5394                   22920846.4774
 -48363196.73447 -37668421.35446  20019785.0944                   20019784.2584
 -31612925.15646 -24621294.87244  22543518.9224                   22543519.4654
  -1451373.96146  -1113646.53944  23367837.6254                   23367836.6684
 11  7 24  1  2 30.0000000  0  8G17G10G02G09G28G04G27G12
 -64021490.62947 -49847320.61945  21912431.5084                   21912430.6134
 -13006371.55947 -10122805.25345  21975878.0004                   21975878.0124
 -26032073.90648 -20271980.57646  21122979.0314                   21122976.3634
 -19539246.00047 -15213033.56645  22116924.4454                   22116924.8634
 -78311133.35247 -61016077.69744  22920475.8754                   22920475.4924
 -48415158.59448 -37708911.10446  20009897.2664                   20009896.2234
 -31666196.84047 -24662805.30944  22533381.4064                   22533382.5704
  -1630519.87146  -1253240.68744  23333746.8754                   23333747.1134
 11  7 24  1  3  0.0000000  0  8G17G10G02G09G28G04G27G12
 -64066666.45347 -49882522.56845  21903834.9614                   21903833.5044
 -13167953.32047 -10248713.03345  21945129.9614                   21945129.8404
 -26166047.06648 -20376375.22846  21097484.5944                   21097482.1954
 -19594405.75847 -15256015.19144  22106427.8524                   22106427.8674
 -78312653.23447 -61017262.07744  22920186.4534                   22920185.8834
 -48466540.14848 -37748948.68746  20000119.4614                   20000119.2384
 -31718947.26247 -24703909.58344  22523343.6724                   22523344.2154
  -1809441.30946  -1392659.90044  23299700.2814                   23299699.5784
 11  7 24  1  3 30.0000000  0  8G17G10G02G09G28G04G27G12
 -64111631.63347 -49917560.36245  21895278.6954                   21895278.2424
 -13329077.18747 -10374264.02645  21914469.7974                   21914469.4024
 -26299536.62548 -20480393.03746  21072082.6024                   21072080.0944
 -19648879.78147 -15298462.47245  22096061.4304                   22096062.3164
 -78313743.85247 -61018111.91044  22919978.9454                   22919979.3794
 -48517343.28148 -37788535.54946  19990452.3834                   19990451.6054
 -31771177.93046 -24744608.84444  22513405.2194                   22513405.3524
  -1988135.94546  -1531902.42444  23265695.1884                   23265693.5004
 11  7 24  1  4  0.0000000  0  8G17G10G02G09G28G04G27G12
 -64156383.06247 -49952431.59945  21886762.3674                   21886761.6334
 -13489737.58647 -10499453.87945  21883896.3754                   21883895.9384
 -26432539.18747 -20584031.38346  21046773.1094                   21046770.2814
 -19702667.44947 -15340374.92344  22085826.4224                   22085826.9654
 -78314403.91047 -61018626.29444  22919853.1884                   22919853.3404
 -48567567.14848 -37827671.02146  19980895.1724                   19980894.0984
 -31822888.16847 -24784902.54044  22503564.6954                   22503564.8484
  -2166598.50447  -1670964.11644  23231734.8834                   23231734.2734
 11  7 24  1  4 30.0000000  0  8G17G10G02G09G28G04G27G12
 -64200920.84447 -49987136.38145  21878287.6644                   21878285.5124
 -13649931.76647 -10624280.41745  21853412.2034                   21853411.8164
 -26565055.19148 -20687290.57646  21021555.8524                   21021553.0864
 -19755771.79347 -15381754.93544  22075720.8834                   22075720.7624
 -78314635.30947 -61018806.65844  22919810.0474                   22919808.9064
 -48617214.33248 -37866357.13846  19971447.3834                   19971446.0474
 -31874080.24247 -24824792.49744  22493823.0944                   22493823.6094
  -2344827.48046  -1809843.80644  23197818.8754                   23197818.5474
 11  7 24  1  5  0.0000000  0  9G17G10G02G09G28G04G05G27G12
 -62669826.94947 -48794076.17445  22169644.8914                   22169643.8834
 -12234234.27347  -9521139.47045  22122810.5084                   22122809.8874
 -25121663.38348 -19562569.64846  21296224.5474                   21296221.7504
 -18232776.10546 -14195005.02544  22365537.6174                   22365537.3874
 -76739022.39847 -59791056.34244  23219638.8134                   23219637.7504
 -47090868.24248 -36676996.56246  20261901.5314                   20261900.5704
  12328230.60956   9625888.93553  24816834.8444                   24816838.6954
 -30349337.53146 -23636681.30244  22783971.6414                   22783972.6604
   -947397.80947   -720937.51744  23463741.2974                   23463741.3554
 11  7 24  1  5 30.0000000  0  9G17G10G02G09G28G04G05G27G12
 -62713952.12147 -48828459.43145  22161247.8054                   22161246.6684
 -12393501.16047  -9645243.46545  22092503.2344                   22092502.2114
 -25253220.84848 -19665081.93646  21271189.6024                   21271186.9774
 -18284534.62947 -14235336.35644  22355688.2584                   22355688.0234
 -76738415.39146 -59790583.39743  23219753.8524                   23219754.0514
 -47139383.08248 -36714800.32846  20252669.2734                   20252668.8324
  12139106.43445   9478519.78542  24780846.4304                   24780850.1294
 -30399514.03547 -23675779.90244  22774423.9774                   22774424.8404
  -1125167.90647   -859459.65644  23429912.5784                   23429911.6454
 11  7 24  1  6  0.0000000  0  9G17G10G02G09G28G04G05G27G12
 -62757883.18747 -48862691.45645  22152888.4454                   22152887.4384
 -12552312.33647  -9768992.37445  22062282.5784                   22062282.0984
 -25384311.34448 -19767230.33646  21246244.2114                   21246241.3014
 -18335635.90247 -14275155.51744  22345964.2344                   22345963.5554
 -76737403.83247 -59789795.20343  23219946.8054                   23219946.5004
 -47187347.65248 -36752175.32646  20243542.1954                   20243541.2274
  11949995.41445   9331160.80542  24744859.3524                   24744862.7114
 -30449198.38347 -23714495.03644  22764969.0554                   22764970.0554
  -1302717.74647   -997810.17644  23396126.2734                   23396125.5744
 11  7 24  1  6 30.0000000  0  9G17G10G02G09G28G04G05G27G12
 -62801613.25847 -48896766.83945  22144566.4614                   22144565.5044
 -12710658.01647  -9892378.56445  22032150.1174                   22032150.0514
 -25514927.90248 -19869009.43946  21221388.4144                   21221386.1524
 -18386075.39547 -14314459.02644  22336365.3674                   22336365.9964
 -76735982.42647 -59788687.62644  23220217.1334                   23220216.9884
 -47234757.16848 -36789117.80446  20234520.2114                   20234518.9924
  11760907.52745   9183819.90642  24708876.2034                   24708880.7584
 -30498385.57446 -23752822.71144  22755609.2974                   22755609.4654
  -1480038.09847  -1135981.89644  23362382.7424                   23362381.8014
 11  7 24  1  7  0.0000000  0  9G17G10G02G09G28G04G05G27G12
 -62845140.40647 -48930684.09945  22136283.7974                   22136283.2664
 -12868533.66447 -10015398.50345  22002107.2194                   22002106.5944
 -25645069.15248 -19970418.17446  21196623.4924                   21196620.4184
 -18435853.85547 -14353247.44045  22326892.7504                   22326893.3094
 -76734151.23447 -59787260.74744  23220565.2894                   23220565.0594
 -47281612.16848 -36825628.17346  20225603.8834                   20225603.1174
  11571846.37546   9036499.80942  24672899.2344                   24672902.4494
 -30547076.49246 -23790763.72044  22746342.9454                   22746344.2384
  -1657125.88747  -1273972.38444  23328684.5474                   23328683.5744
 11  7 24  1  7 30.0000000  0  9G17G10G02G09G28G04G05G27G12
 -62888466.39147 -48964444.60245  22128038.8984                   22128038.0664
 -13025938.18447 -10138051.32945  21972154.1484                   21972153.6024
 -25774736.59848 -20071457.70446  21171948.5234                   21171945.6054
 -18484975.63747 -14391524.18245  22317545.6174                   22317545.8204
 -76731913.37547 -59785517.02143  23220991.3594                   23220991.0704
 -47327916.89548 -36861709.79146  20216792.5554                   20216791.9494
  11382812.64846   8889201.05142  24636927.5554                   24636928.9534
 -30595274.75447 -23828320.80844  22737172.0864                   22737172.4144
  -1833980.34047  -1411781.03745  23295030.4924                   23295030.0234
 11  7 24  1  8  0.0000000  0  9G17G10G02G09G28G04G05G27G12
 -62931579.84847 -48998039.51245  22119835.0234                   22119834.2194
 -13182857.41047 -10260325.99545  21942293.1954                   21942292.7304
 -25903919.15648 -20172119.40846  21147366.1724                   21147363.2974
 -18533431.80547 -14429282.23844  22308325.2194                   22308324.9344
 -76729259.48047 -59783449.07744  23221496.9694                   23221496.5474
 -47373662.23848 -36897355.50546  20208087.1884                   20208087.1054
  11193819.85946   8741934.22643  24600962.4774                   24600964.8244
 -30642971.27347 -23865486.97144  22728095.1024                   22728095.5044
  -2010588.01647  -1549397.41044  23261423.2424                   23261422.0234
 11  7 24  1  8 30.0000000  0  9G17G10G02G09G28G04G05G27G12
 -62974478.31647 -49031466.89145  22111671.5554                   22111670.1334
 -13339285.79347 -10382218.20945  21912525.9384                   21912525.8754
 -26032614.80548 -20272401.69346  21122876.0314                   21122873.0394
 -18581222.51647 -14466521.79544  22299230.2194                   22299230.9224
 -76726188.71147 -59781056.29444  23222081.5634                   23222080.4844
 -47418848.36348 -36932565.46946  20199488.7034                   20199488.1604
  11004872.60546   8594702.84243  24565006.9064                   24565010.3594
 -30690166.21147 -23902262.25344  22719114.9614                   22719114.8014
  -2186944.36747  -1686817.91144  23227863.0864                   23227862.9414
 11  7 24  1  9  0.0000000  0  9G17G10G02G09G28G04G05G27G12
 -63017164.91847 -49064729.18045  22103548.4304                   22103547.7624
 -13495224.12947 -10503728.57545  21882852.1484                   21882851.6564
 -26160826.97748 -20372307.25146  21098477.8984                   21098474.8834
 -18628353.93747 -14503247.59444  22290261.5314                   22290262.2544
 -76722706.16447 -59778342.65744  23222743.7344                   23222743.8204
 -47463480.90648 -36967344.06946  20190995.2424                   20190994.4494
  10815969.83246   8447506.16443  24529060.3834                   24529063.2704
 -30736865.34046 -23938651.20044  22710227.9064                   22710229.3444
  -2363051.44547  -1824044.18244  23194351.5004                   23194350.5234
 11  7 24  1  9 30.0000000  0  9G17G10G02G09G28G04G05G27G12
 -63059637.47347 -49097824.68945  22095465.8834                   22095464.9024
 -13650667.01647 -10624852.85045  21853272.0864                   21853271.4454
 -26288553.23448 -20471834.16746  21074172.2664                   21074169.3594
 -18674825.98847 -14539459.57844  22281418.3444                   22281418.7504
 -76718811.13346 -59775307.61743  23223484.8594                   23223484.3054
 -47507559.88347 -37001691.29746  20182607.5704                   20182607.2194
  10627116.39146   8300347.88543  24493122.2034                   24493125.2894
 -30783068.25047 -23974653.50044  22701436.0704                   22701436.4654
  -2538904.38347  -1961072.37544  23160887.1564                   23160887.5164
 11  7 24  1 10  0.0000000  0  9G17G10G02G09G28G04G05G27G12
 -63101888.30947 -49130747.42545  22087426.2194                   22087426.0274
 -13805603.49247 -10745582.52445  21823788.8054                   21823788.3554
 -26415786.07048 -20570976.59246  21049960.4454                   21049958.1914
 -18720633.49647 -14575153.77544  22272701.7194                   22272701.5554
 -76714497.45746 -59771946.33944  23224305.9694                   23224305.5554
 -47551079.89148 -37035602.99746  20174325.8674                   20174325.7664
  10438322.39846   8153236.05143  24457195.3914                   24457199.0004
 -30828769.50847 -24010264.89844  22692739.5394                   22692739.9144
  -2714493.21947  -2097894.79644  23127473.9144                   23127472.6914
 11  7 24  1 10 30.0000000  0  9G17G10G02G09G28G04G05G27G12
 -63143916.87147 -49163496.95545  22079428.5634                   22079427.7544
 -13960031.03947 -10865915.63745  21794402.0634                   21794401.7704
 -26542525.36748 -20669734.45346  21025843.0234                   21025840.4454
 -18765778.93047 -14610332.02044  22264110.7504                   22264110.7504
 -76709767.03146 -59768260.35544  23225205.5634                   23225205.6214
 -47594043.21148 -37069080.90046  20166150.0944                   20166149.5274
  10249590.14846   8006172.22843  24421281.0864                   24421284.1724
 -30873971.36347 -24045487.14244  22684137.3674                   22684138.4344
  -2889815.64147  -2234509.63844  23094110.9534                   23094110.6414
 11  7 24  1 11  0.0000000  0  9G17G10G02G09G28G04G05G27G12
 -63185723.71547 -49196073.70345  22071472.9774                   22071472.0044
 -14113946.64847 -10985849.82345  21765112.3524                   21765112.1914
 -26668771.75848 -20768108.22446  21001819.1094                   21001816.2704
 -18810265.22747 -14644996.70144  22255645.4614                   22255645.4454
 -76704621.64546 -59764250.99843  23226184.7194                   23226184.6684
 -47636452.27748 -37102126.91846  20158080.1334                   20158079.5044
  10060922.23846   7859158.53643  24385378.7664                   24385381.5354
 -30918676.24247 -24080322.12844  22675630.1334                   22675631.6954
  -3064869.97747  -2370915.54044  23060799.3364                   23060798.5744
 11  7 24  1 11 30.0000000  0  9G17G10G02G09G28G04G05G27G12
 -63227312.21947 -49228480.34545  22063559.1024                   22063558.6134
 -14267351.59847 -11105386.11345  21735921.1564                   21735919.8594
 -26794529.12148 -20866100.94746  20977887.9304                   20977885.6724
 -18854098.71947 -14679152.68244  22247303.7344                   22247303.2814
 -76699066.69146 -59759922.49244  23227241.6724                   23227242.3164
 -47678313.56648 -37134746.10446  20150114.2114                   20150113.6414
   9872317.08246   7712193.78043  24349487.9534                   24349490.1564
 -30962890.45347 -24114774.75144  22667216.9384                   22667217.7424
  -3239657.85547  -2507113.82644  23027538.3754                   23027537.8794
 11  7 24  1 12  0.0000000  0  9G17G10G02G09G28G04G05G27G12
 -63268682.16847 -49260716.67245  22055686.4224                   22055685.4454
 -14420242.79747 -11224522.06645  21706826.4144                   21706825.6484
 -26919797.60248 -20963712.73746  20954050.3364                   20954047.6604
 -18897282.20746 -14712802.18244  22239086.2814                   22239086.9494
 -76693103.85946 -59755276.21644  23228376.7584                   23228377.0864
 -47719629.27747 -37166940.15246  20142251.6414                   20142251.6564
   9683777.09846   7565279.82443  24313609.7974                   24313611.7774
 -31006616.18447 -24148846.78444  22658895.7344                   22658896.3914
  -3414177.26247  -2643102.93544  22994328.7814                   22994328.0044
 11  7 24  1 12 30.0000000  0  9G17G10G02G09G28G04G05G27G12
 -63309825.41447 -49292776.35745  22047856.9844                   22047856.3954
 -14572609.00447 -11343248.95245  21677832.1954                   21677831.6174
 -27044568.71548 -21060936.95246  20930307.3754                   20930304.6484
 -18939809.75846 -14745940.56244  22230992.8364                   22230994.1764
 -76686726.50046 -59750306.88943  23229590.8134                   23229591.1254
 -47760393.43448 -37198704.44046  20134494.7114                   20134494.1214
   9495312.65646   7418424.74943  24277745.4614                   24277747.9184
 -31049847.25847 -24182533.37844  22650669.6884                   22650670.1454
  -3588417.57447  -2778874.51945  22961171.6024                   22961171.3364
 11  7 24  1 13  0.0000000  0  9G17G10G02G09G28G04G05G27G12
 -63350746.32047 -49324662.78045  22040070.6484                   22040069.0004
 -14724452.81247 -11461568.74245  21648937.0474                   21648936.9884
 -27168848.00448 -21157777.92146  20906657.4454                   20906654.6294
 -18981689.22347 -14778573.94844  22223024.8754                   22223024.3444
 -76679941.43746 -59745019.87344  23230882.1644                   23230882.4924
 -47800613.61748 -37230044.83746  20126841.2114                   20126840.3794
   9306921.43046   7271626.59143  24241895.2194                   24241897.8364
 -31092591.00447 -24215840.21444  22642535.9844                   22642536.1884
  -3762381.78547  -2914430.96744  22928067.1954                   22928066.3404
 11  7 24  1 13 30.0000000  0  9G17G10G02G09G28G04G05G27G12
 -63391437.57847 -49356370.25645  22032326.8524                   22032326.2384
 -14875763.58247 -11579473.19045  21620143.7584                   21620143.6414
 -27292628.27048 -21254230.06046  20883102.8754                   20883100.3754
 -19022915.57047 -14810698.38045  22215179.9454                   22215179.9064
 -76672742.99646 -59739410.73943  23232251.7274                   23232251.0394
 -47840284.58248 -37260957.25946  20119291.8984                   20119291.4454
   9118613.39546   7124893.33143  24206062.8674                   24206064.3834
 -31134842.48046 -24248763.47944  22634495.3914                   22634496.2034
  -3936060.28547  -3049764.80945  22895017.6884                   22895016.8594
 11  7 24  1 14  0.0000000  0  9G17G10G02G09G28G04G05G27G12
 -63431896.04347 -49387896.35845  22024627.8204                   22024627.4064
 -15026535.47347 -11696957.74545  21591452.9144                   21591452.5514
 -27415906.42248 -21350290.93846  20859643.7034                   20859641.4224
 -19063488.41847 -14842313.62745  22207459.1724                   22207458.8794
 -76665129.66446 -59733478.33644  23233700.2424                   23233699.7624
 -47879405.53547 -37291441.13346  20111847.4304                   20111847.1484
   8930394.27046   6978229.35743  24170244.7274                   24170247.5234
 -31176600.87147 -24281302.46444  22626549.6644                   22626549.9304
  -4109447.39847  -3184871.58244  22862022.9774                   22862021.8984
 11  7 24  1 14 30.0000000  0  9G17G10G02G09G28G04G05G27G12
 -61896702.26247 -48191641.45745  22316765.7344                   22316764.8484
 -13601342.72347 -10586417.90245  21862657.7734                   21862657.1484
 -25963260.58248 -20218359.08846  21136072.8054                   21136070.2974
 -17527991.41047 -13645822.48544  22499653.9454                   22499653.6764
 -75081685.83646 -58499626.02643  23535019.6414                   23535019.1484
 -46342559.91848 -36093899.07746  20404299.4614                   20404298.6524
  10317690.37146   8059239.61143  24434238.2344                   24434240.2544
 -29642449.38346 -23085859.79145  22918488.9144                   22918490.3444
  -2707117.44147  -2092146.84445  23128877.3204                   23128876.4694
 11  7 24  1 15  0.0000000  0  9G17G10G02G09G28G04G05G27G12
 -61936704.06647 -48222811.69845  22309153.5164                   22309152.5634
 -13751038.12947 -10703063.62445  21834171.6334                   21834171.4734
 -26085544.76248 -20313645.42846  21112803.2114                   21112800.4384
 -17567275.52347 -13676433.49044  22492178.1484                   22492178.5204
 -75073258.28546 -58493059.13943  23536623.2664                   23536623.5824
 -46380598.00048 -36123539.13846  20397061.1564                   20397060.4024
  10129646.13746   7912711.88543  24398454.0634                   24398456.6374
 -29683238.47746 -23117643.52044  22910725.9844                   22910728.0904
  -2879925.35247  -2226802.32744  23095992.7504                   23095992.2114
 11  7 24  1 15 30.0000000  0  9G17G10G02G09G28G04G05G27G12
 -61976480.78147 -48253806.54745  22301584.1334                   22301584.0704
 -13900194.53147 -10819289.35545  21805788.1174                   21805787.4104
 -26207335.82848 -20408547.54046  21089627.2664                   21089624.5984
 -17605922.67646 -13706548.21844  22484824.1094                   22484823.7074
 -75064429.42646 -58486179.50443  23538303.8524                   23538303.8594
 -46418101.62548 -36152762.74746  20389924.3594                   20389923.8054
   9941689.75446   7766252.65343  24362687.2504                   24362688.9924
 -29723549.84446 -23149055.03844  22903055.7894                   22903056.0944
  -3052443.85947  -2361232.24345  23063163.5084                   23063163.3914
 11  7 24  1 16  0.0000000  0  9G17G10G02G09G28G04G05G27G12
 -62016028.10547 -48284622.65945  22294059.0314                   22294057.9774
 -14048804.86347 -10935089.56645  21777508.0084                   21777507.7194
 -26328629.75448 -20503062.25446  21066545.5554                   21066542.9924
 -17643931.43747 -13736165.47044  22477591.8914                   22477591.2734
 -75055196.82446 -58478985.30843  23540060.3834                   23540061.3164
 -46455069.02048 -36181568.50246  20382889.5394                   20382889.8244
   9753828.20346   7619867.34743  24326938.2734                   24326940.1254
 -29763381.68446 -23180092.86444  22895475.7974                   22895475.8244
  -3224666.27747  -2495431.48044  23030390.4224                   23030389.2424
 11  7 24  1 16 30.0000000  0  9G17G10G02G09G28G04G05G27G12
 -62055340.48847 -48315255.66545  22286577.5784                   22286576.8364
 -14196861.51647 -11050458.34445  21749334.1564                   21749333.6644
 -26449421.78548 -20597185.88846  21043559.6254                   21043556.8634
 -17681299.41047 -13765283.39044  22470480.0944                   22470480.6884
 -75045557.32046 -58471474.00443  23541895.0394                   23541894.7424
 -46491497.66848 -36209954.46546  20375957.6174                   20375957.2584
   9566068.60946   7473561.34743  24291209.3054                   24291210.3324
 -29802731.45747 -23210755.01044  22887988.0004                   22887987.7584
  -3396585.55547  -2629394.50044  22997675.5164                   22997675.3244
 11  7 24  1 17  0.0000000  0  9G17G10G02G09G28G04G05G27G12
 -62094424.53947 -48345710.81045  22279140.5394                   22279138.8714
 -14344368.08647 -11165398.48545  21721264.2194                   21721263.7304
 -26569719.02048 -20690923.97346  21020667.8054                   21020664.8444
 -17718036.46147 -13793909.70844  22463489.4534                   22463490.1134
 -75035519.22746 -58463652.11143  23543805.2114                   23543804.7664
 -46527396.45748 -36237927.54946  20369126.3594                   20369125.6604
   9378406.77346   7327331.50943  24255498.4454                   24255499.2934
 -29841608.14147 -23241048.57044  22880590.6724                   22880590.1134
  -3568206.16847  -2763124.78145  22965017.3674                   22965016.8984
 11  7 24  1 17 30.0000000  0  9G17G10G02G09G28G04G05G27G12
 -62133277.54347 -48375985.86545  22271746.8914                   22271745.5784
 -14491319.27047 -11279905.86945  21693300.9614                   21693299.7664
 -26689518.75048 -20784274.39746  20997870.7114                   20997868.0314
 -17754142.35947 -13822044.19044  22456618.4224                   22456619.1414
 -75025082.06646 -58455519.30843  23545791.4224                   23545790.4734
 -46562765.41848 -36265487.78246  20362395.7894                   20362395.2154
   9190848.25446   7181182.24043  24219807.2664                   24219807.7464
 -29880011.62546 -23270973.37844  22873282.4694                   22873282.3524
  -3739523.35947  -2896618.66844  22932416.4224                   22932415.9964
 11  7 24  1 18  0.0000000  0  9G17G10G02G09G28G04G05G27G12
 -62171899.94947 -48406081.24245  22264396.6564                   22264396.4344
 -14637713.37947 -11393979.13245  21665442.4614                   21665441.6294
 -26808822.45748 -20877238.27946  20975168.0944                   20975165.4144
 -17789621.09847 -13849689.97844  22449867.4304                   22449867.7934
 -75014248.59446 -58447077.62943  23547853.0234                   23547852.2504
 -46597608.02048 -36292637.86646  20355765.6564                   20355764.8954
   9003394.16046   7035114.27743  24184134.3444                   24184136.5514
 -29917945.41446 -23300532.19544  22866063.7504                   22866063.8364
  -3910535.70747  -3029874.98045  22899873.6094                   22899872.7504
 11  7 24  1 18 30.0000000  0  9G17G10G02G09G28G04G05G27G12
 -62210292.25847 -48435997.33145  22257091.4924                   22257090.6134
 -14783547.66047 -11507616.21745  21637691.9614                   21637690.7194
 -26927630.62548 -20969816.04846  20952559.3674                   20952556.4884
 -17824475.72747 -13876849.49245  22443235.2814                   22443235.2034
 -75003020.73046 -58438328.71543  23549989.3134                   23549989.1684
 -46631926.71548 -36319379.71446  20349234.8204                   20349234.3914
   8816046.88346   6889129.63443  24148483.7344                   24148485.9304
 -29955412.09847 -23329727.03744  22858933.8754                   22858934.8014
  -4081241.04347  -3162892.10545  22867389.8364                   22867388.8914
 11  7 24  1 19  0.0000000  0  9G17G10G02G09G28G04G05G27G12
 -62248455.16047 -48465734.65445  22249829.2974                   22249828.5904
 -14928821.11747 -11620816.25845  21610047.1334                   21610046.2424
 -27045944.92248 -21062008.98446  20930045.0004                   20930042.4574
 -17858710.28547 -13903525.79344  22436720.1724                   22436720.9024
 -74991401.36746 -58429274.71343  23552200.2814                   23552200.3324
 -46665725.15248 -36345716.15746  20342803.3364                   20342802.5164
   8628808.10246   6743229.43344  24112853.6724                   24112855.2544
 -29992415.25847 -23358560.72144  22851892.2274                   22851892.5514
  -4251638.68047  -3295669.45645  22834963.9844                   22834963.3914
 11  7 24  1 19 30.0000000  0  9G17G10G02G09G28G04G05G27G12
 -62286384.84447 -48495290.24145  22242611.4924                   22242610.7114
 -15073527.36347 -11733574.35545  21582510.1804                   21582509.1724
 -27163762.02348 -21153814.50046  20907625.5474                   20907622.1334
 -17892324.55947 -13929718.75244  22430323.8444                   22430324.3164
 -74979389.07046 -58419914.51843  23554486.1094                   23554485.8834
 -46699002.43448 -36371646.51246  20336470.8754                   20336470.0274
   8441683.43446   6597418.15544  24077244.5234                   24077245.9264
 -30028954.01247 -23387032.53544  22844939.1564                   22844939.9614
  -4421722.69947  -3428202.44444  22802598.1724                   22802597.1254
 11  7 24  1 20  0.0000000  0  9G17G10G02G09G28G04G05G27G12
 -62324084.32447 -48524666.46745  22235437.4304                   22235436.9344
 -15217666.44547 -11845890.47245  21555081.2664                   21555080.4494
 -27281085.37148 -21245235.26846  20885299.4694                   20885296.6454
 -17925324.01647 -13955432.64344  22424044.1644                   22424044.0744
 -74966988.84446 -58410252.04143  23556845.9694                   23556846.2274
 -46731763.89848 -36397174.93646  20330236.6724                   20330235.2304
   8254672.68846   6451695.62344  24041658.1334                   24041658.9104
 -30065033.74647 -23415146.63744  22838073.9064                   22838074.5744
  -4591494.01247  -3560491.76145  22770292.0164                   22770291.0234
 11  7 24  1 20 30.0000000  0  9G17G10G02G09G28G04G05G27G12
 -62361556.30147 -48553865.40145  22228307.2194                   22228306.6684
 -15361238.86747 -11957765.03945  21527760.3524                   21527759.5594
 -27397918.15248 -21336273.77846  20863066.5554                   20863063.8284
 -17957714.82447 -13980672.25844  22417880.4144                   22417880.2974
 -74954205.39146 -58400290.98243  23559278.8204                   23559278.9734
 -46764015.18448 -36422305.80946  20324099.6804                   20324099.3404
   8067775.06646   6306061.20844  24006092.3984                   24006094.1564
 -30100660.15647 -23442907.51144  22831294.9614                   22831294.7584
  -4760952.91447  -3692537.64545  22738044.8834                   22738043.8134
 11  7 24  1 21  0.0000000  0  9G17G10G02G09G28G04G05G27G12
 -62398800.66447 -48582886.98145  22221219.6414                   22221218.2624
 -15504241.67647 -12069195.76945  21500547.8674                   21500547.1994
 -27514260.46148 -21426930.10446  20840927.6644                   20840924.7194
 -17989499.34447 -14005439.44644  22411832.7424                   22411832.1374
 -74941040.20746 -58390032.36843  23561784.2344                   23561783.7854
 -46795758.28948 -36447040.70746  20318058.9774                   20318058.7624
   7880993.59446   6160517.29544  23970548.1094                   23970550.3404
 -30135835.48047 -23470316.85044  22824600.5784                   22824601.4144
  -4930097.20747  -3824338.37444  22705857.3984                   22705856.8524
 11  7 24  1 21 30.0000000  0  9G17G10G02G09G28G04G05G27G12
 -62435814.25847 -48611728.74745  22214176.1094                   22214175.5514
 -15646670.05147 -12180178.88945  21473444.9614                   21473444.4414
 -27630110.72748 -21517203.00146  20818881.8594                   20818878.9384
 -18020678.62547 -14029734.98444  22405898.7274                   22405899.4924
 -74927493.08246 -58379476.25543  23564362.4924                   23564362.4024
 -46826993.85948 -36471380.12346  20312115.3364                   20312114.0984
   7694333.05146   6015067.61644  23935028.1884                   23935029.1174
 -30170560.01647 -23497374.94844  22817992.8984                   22817993.5394
  -5098922.54747  -3955890.55945  22673731.2734                   22673730.5394
 11  7 24  1 22  0.0000000  0  9G17G10G02G09G28G04G05G27G12
 -62472595.71547 -48640389.63445  22207177.0944                   22207175.1764
 -15788519.27747 -12290710.70445  21446451.3754                   21446450.6454
 -27745466.74648 -21607090.78446  20796930.6644                   20796927.6174
 -18051253.61347 -14053559.66544  22400080.6644                   22400081.2074
 -74913564.04746 -58368622.43143  23567012.7974                   23567013.3324
 -46857722.12148 -36495324.22346  20306267.7194                   20306266.3754
   7507798.24246   5869715.93844  23899531.2424                   23899533.3244
 -30204833.95747 -23524081.93044  22811470.9384                   22811470.3594
  -5267424.37547  -4087190.64545  22641666.8364                   22641665.4064
 11  7 24  1 22 30.0000000  0  9G17G10G02G09G28G04G05G27G12
 -62509144.17247 -48668868.95045  22200221.9694                   22200220.5864
 -15929786.63747 -12400789.12845  21419569.3674                   21419568.0634
 -27860329.62948 -21696594.29546  20775072.4694                   20775069.4734
 -18081227.33247 -14076915.86444  22394377.3984                   22394376.8914
 -74899254.99247 -58357472.52843  23569736.1954                   23569735.7814
 -46887945.56648 -36518874.97146  20300515.7664                   20300515.7544
   7321391.50846   5724464.07144  23864059.9614                   23864061.4844
 -30238659.90647 -23550439.87444  22805033.5474                   22805033.4844
  -5435600.34847  -4218236.84645  22609663.9924                   22609662.9224
 11  7 24  1 23  0.0000000  0  9G17G10G02G09G28G04G05G27G12
 -62545464.50447 -48697170.48545  22193310.1954                   22193308.9774
 -16070474.76247 -12510416.19845  21392797.1644                   21392796.5744
 -27974704.54748 -21785717.55646  20753307.9694                   20753304.8794
 -18110607.79347 -14099809.75344  22388786.0944                   22388786.5474
 -74884572.73046 -58346031.86044  23572529.8594                   23572529.7934
 -46917671.50448 -36542038.05046  20294859.4064                   20294859.0084
   7135110.46546   5579310.12144  23828611.4224                   23828612.4844
 -30272045.60947 -23576454.69944  22798680.8754                   22798681.3204
  -5603453.27747  -4349031.28945  22577722.4304                   22577721.8554
 11  7 24  1 23 30.0000000  0  9G17G10G02G09G28G04G05G27G12
 -62581553.17647 -48725291.52445  22186442.7974                   22186441.7384
 -16210577.66847 -12619587.26645  21366136.2424                   21366135.4224
 -28088588.35248 -21874458.16146  20731636.6724                   20731633.5084
 -18139394.47747 -14122240.95044  22383308.0394                   22383308.4804
 -74869515.92646 -58334299.31643  23575394.3914                   23575395.1374
 -46946899.28948 -36564812.94446  20289297.9144                   20289296.8244
   6948960.93046   5434258.63244  23793188.3284                   23793189.7384
 -30304990.36347 -23602125.98344  22792411.8364                   22792412.8284
  -5770977.52747  -4479569.61545  22545843.3284                   22545842.3594
 11  7 24  1 24  0.0000000  0  9G17G10G02G09G28G04G05G27G12
 -61041989.50847 -47525631.52945  22479411.8754                   22479410.9654
 -14774668.74247 -11500697.18345  21639380.6024                   21639379.8164
 -26626558.65248 -20735214.20546  21009851.5234                   21009848.3874
 -16592170.53947 -12916611.93744  22677734.6804                   22677735.0514
 -73278667.64147 -57094677.34543  23878123.2424                   23878123.0784
 -45400211.14148 -35359601.41146  20583622.6804                   20583621.7154
   8338371.23446   6516916.13644  24057584.3364                   24057584.6804
 -28762076.21947 -22399855.24944  23086018.7814                   23086019.5904
  -4362745.98847  -3382246.26945  22813821.0784                   22813820.4654
 11  7 24  1 24 30.0000000  0  9G17G10G02G09G28G04G05G27G12
 -61077615.23447 -47553391.84745  22472632.7504                   22472631.8914
 -14913594.70347 -11608951.12445  21612943.8674                   21612942.8134
 -26739463.13748 -20823191.68346  20988366.1414                   20988363.4654
 -16619780.35247 -12938126.11644  22672481.2734                   22672481.3554
 -73262868.51646 -57082366.33143  23881130.2194                   23881129.7234
 -45428451.28948 -35381606.72446  20578248.9064                   20578248.3204
   8152491.67246   6372075.04544  24022212.1094                   24022212.9144
 -28794147.77347 -22424846.08144  23079915.6804                   23079916.2154
  -4529607.10247  -3512267.86045  22782068.0944                   22782066.7304
 11  7 24  1 25  0.0000000  0  9G17G10G02G09G28G04G05G27G12
 -61113006.32847 -47580969.34145  22465898.1094                   22465896.8874
 -15051925.19147 -11716741.06645  21586620.6564                   21586619.3204
 -26851875.59848 -20910785.76746  20966974.9304                   20966972.1374
 -16646803.54747 -12959183.16844  22667339.0004                   22667338.7854
 -73246698.36746 -57069766.23143  23884206.9614                   23884206.8444
 -45456198.33648 -35403227.81546  20572968.7504                   20572968.3164
   7966753.80946   6227344.37944  23986867.5784                   23986869.1644
 -28825783.89847 -22449497.66744  23073894.8674                   23073895.7734
  -4696130.30947  -3642026.13045  22750379.7344                   22750379.4614
 11  7 24  1 25 30.0000000  0  9G17G10G02G09G28G04G05G27G12
 -61148167.50047 -47608367.63645  22459206.6334                   22459205.9104
 -15189662.98047 -11824069.19245  21560409.1724                   21560409.1294
 -26963801.62548 -20998000.82246  20945676.0164                   20945672.8404
 -16673248.24647 -12979789.45344  22662306.9614                   22662306.6954
 -73230164.31246 -57056882.59143  23887352.8444                   23887352.7894
 -45483460.07848 -35424470.74446  20567781.2894                   20567780.7234
   7781155.34846   6082722.38543  23951548.2974                   23951550.4774
 -28856992.10547 -22473815.83444  23067956.9064                   23067956.7034
  -4862318.49247  -3771523.37445  22718755.6884                   22718754.1254
 11  7 24  1 26  0.0000000  0  9G17G10G02G09G28G04G05G27G12
 -61183096.36347 -47635584.94745  22452560.4384                   22452559.1804
 -15326803.80547 -11930932.14845  21534312.5784                   21534312.1214
 -27075240.12548 -21084835.98046  20924469.7894                   20924466.8284
 -16699115.55947 -12999945.83944  22657384.1884                   22657384.4924
 -73213266.33246 -57043715.33443  23890568.3134                   23890567.9804
 -45510237.02748 -35445335.92046  20562685.6024                   20562684.6334
   7595700.50447   5938212.27544  23916257.9304                   23916259.4104
 -28887773.29347 -22497801.23044  23062098.8524                   23062100.4774
  -5028167.69147  -3900756.42245  22687195.3364                   22687194.3094
 11  7 24  1 26 30.0000000  0  9G17G10G02G09G28G04G05G27G12
 -61217792.89847 -47662621.20945  22445957.9844                   22445956.1804
 -15463344.83647 -12037327.70545  21508329.8134                   21508329.5164
 -27186190.98048 -21171291.16046  20903356.7504                   20903353.9414
 -16724408.43747 -13019654.59644  22652571.0554                   22652571.0664
 -73196006.12146 -57030265.90343  23893852.7034                   23893852.6294
 -45536531.57448 -35465825.18046  20557681.8984                   20557681.3794
   7410392.11747   5793816.25644  23880995.3674                   23880996.4224
 -28918129.94546 -22521455.80644  23056322.0864                   23056323.3954
  -5193674.96547  -4029723.03745  22655700.7974                   22655700.1564
 11  7 24  1 27  0.0000000  0  9G17G10G02G09G28G04G05G27G12
 -61252257.80547 -47689476.96645  22439399.1804                   22439398.1054
 -15599284.66447 -12143254.80545  21482461.8754                   21482460.5704
 -27296655.77348 -21257367.58346  20882335.7894                   20882332.7194
 -16749131.28547 -13038919.20144  22647866.1484                   22647867.6334
 -73178386.88346 -57016536.63742  23897204.6884                   23897205.2894
 -45562347.19148 -35485941.24446  20552769.1254                   20552768.9184
   7225232.13747   5649535.89844  23845760.6724                   23845761.1724
 -28948065.57446 -22544782.37044  23050626.4304                   23050626.9454
  -5358838.94947  -4158422.17645  22624270.8754                   22624269.5394
 11  7 24  1 27 30.0000000  0  9G17G10G02G09G28G04G05G27G12
 -61286490.92647 -47716152.12545  22432884.6484                   22432883.7034
 -15734621.24647 -12248711.85245  21456707.4534                   21456707.1414
 -27406635.57448 -21343066.09046  20861407.4694                   20861404.6414
 -16773287.62147 -13057742.36344  22643269.5234                   22643270.2854
 -73160410.96946 -57002529.40642  23900626.3754                   23900625.8484
 -45587686.87948 -35505686.47346  20547947.4694                   20547946.9654
   7040222.44546   5505372.68343  23810553.5164                   23810554.2624
 -28977583.06247 -22567783.08544  23045009.7034                   23045010.0784
  -5523658.02347  -4286852.53245  22592905.8204                   22592905.8714
 11  7 24  1 28  0.0000000  0  9G17G10G02G09G28G04G05G27G12
 -61320486.90247 -47742642.50645  22426415.7114                   22426414.6134
 -15869346.56647 -12353692.59045  21431070.3134                   21431069.4454
 -27516125.58248 -21428382.95746  20840572.3834                   20840569.0004
 -16796874.80147 -13076122.02544  22638781.1094                   22638781.6914
 -73142075.05546 -56988241.74242  23904115.1254                   23904114.1954
 -45612547.69948 -35525058.55746  20543216.6644                   20543215.6684
   6855371.18446   5361332.85144  23775378.1954                   23775378.8324
 -29006679.99647 -22590456.11444  23039472.4224                   23039473.2854
  -5688124.39147  -4415008.07745  22561609.6484                   22561609.0204
 11  7 24  1 28 30.0000000  0  9G17G10G02G09G28G04G05G27G12
 -61354251.53947 -47768952.60145  22419989.8754                   22419989.9844
 -16003464.29347 -12458199.87345  21405548.8524                   21405547.7194
 -27625132.66047 -21513323.49446  20819828.9774                   20819825.9224
 -16819902.41447 -13094065.66444  22634399.9384                   22634399.5944
 -73123387.53546 -56973679.94043  23907672.3674                   23907671.6374
 -45636938.46148 -35544064.33446  20538574.9774                   20538574.0864
   6670674.86347   5217413.79644  23740231.1804                   23740232.1684
 -29035365.13346 -22612808.25944  23034014.1414                   23034014.8404
  -5852241.74647  -4542891.66045  22530378.6804                   22530377.0554
 11  7 24  1 29  0.0000000  0  9G17G10G02G09G28G04G05G27G12
 -61387783.71947 -47795081.60345  22413609.4614                   22413609.3324
 -16136971.14147 -12562231.15045  21380143.3204                   21380142.5354
 -27733656.11747 -21597887.20646  20799177.5944                   20799174.6644
 -16842372.73847 -13111575.03544  22630123.9384                   22630123.9654
 -73104349.07846 -56958844.89343  23911296.0944                   23911295.5004
 -45660860.64848 -35562705.00746  20534023.0944                   20534022.4494
   6486137.17646   5073618.31344  23705114.2734                   23705115.1564
 -29063640.12547 -22634840.79344  23028632.6484                   23028634.3054
  -6016007.06647  -4670500.89945  22499215.0004                   22499214.8634
 11  7 24  1 29 30.0000000  0  9G17G10G02G09G28G04G05G27G12
 -61421085.75047 -47821031.21245  22407272.3914                   22407271.5124
 -16269867.30947 -12665786.57945  21354853.8834                   21354853.3054
 -27841699.17248 -21682076.55846  20778617.5474                   20778614.3714
 -16864291.46547 -13128654.51944  22625952.5234                   22625951.5864
 -73084964.59046 -56943740.14743  23914984.0394                   23914983.9104
 -45684319.40248 -35580984.56046  20529558.7274                   20529558.1414
   6301757.93447   4929946.29644  23670028.7664                   23670029.1644
 -29091510.12947 -22656557.74744  23023330.0634                   23023330.4734
  -6179420.34447  -4797835.87045  22468118.8834                   22468117.5434
 11  7 24  1 30  0.0000000  0  9G17G10G02G09G28G04G05G27G12
 -61454154.81647 -47846799.35045  22400979.8284                   22400978.2464
 -16402148.30947 -12768862.62845  21329681.0314                   21329680.7234
 -27949260.07048 -21765890.20646  20758149.1564                   20758146.5704
 -16885659.80147 -13145305.18544  22621885.8444                   22621885.2074
 -73065234.02746 -56928365.71743  23918738.6724                   23918738.4064
 -45707315.25448 -35598903.40746  20525183.0164                   20525182.2384
   6117541.85947   4786401.42844  23634972.8674                   23634973.3134
 -29118975.79346 -22677959.59644  23018103.2034                   23018105.0904
  -6342477.44547  -4924893.27445  22437090.1484                   22437088.2114
 11  7 24  1 30 30.0000000  0  9G17G10G02G09G28G04G05G27G12
 -61486994.07447 -47872388.37045  22394730.7814                   22394729.2304
 -16533814.98847 -12871459.99545  21304626.1804                   21304625.2274
 -28056342.45748 -21849331.01046  20737772.0084                   20737769.3094
 -16906483.82446 -13161531.72144  22617923.4694                   22617922.8054
 -73045162.21146 -56912725.33643  23922558.8204                   23922558.6134
 -45729853.35548 -35616465.58446  20520894.0394                   20520893.4304
   5933488.96146   4642983.71044  23599948.7034                   23599950.0234
 -29146042.72747 -22699050.77544  23012953.1804                   23012953.6564
  -6505178.71947  -5051673.42545  22406128.6094                   22406128.3594
 11  7 24  1 31  0.0000000  0  9G17G10G02G09G28G04G05G27G12
 -61519598.32447 -47897794.27845  22388526.0704                   22388525.2424
 -16664860.03947 -12973572.99045  21279689.0634                   21279687.8754
 -28162942.07848 -21932395.60846  20717487.0084                   20717484.1844
 -16926761.93447 -13177332.88844  22614064.6724                   22614065.2974
 -73024746.28946 -56896816.92943  23926442.9694                   23926443.3014
 -45751931.73848 -35633669.50346  20516692.4694                   20516692.3094
   5749606.57846   4499698.88843  23564957.2734                   23564958.1134
 -29172708.77746 -22719829.53844  23007878.6644                   23007879.2704
  -6667517.04747  -5178170.77345  22375237.1724                   22375235.7934
 11  7 24  1 31 30.0000000  0  9G17G10G02G09G28G04G05G27G12
 -61551966.03547 -47923015.83745  22382367.3054                   22382366.0434
 -16795279.89547 -13075198.82045  21254870.6804                   21254870.0664
 -28269058.60547 -22015083.77946  20697293.9144                   20697290.1334
 -16946496.61746 -13192710.55244  22610309.2894                   22610309.7344
 -73003987.40646 -56880641.16443  23930393.9614                   23930393.5904
 -45773551.81648 -35650516.31846  20512578.6024                   20512577.7464
   5565898.56346   4356549.92544  23529998.7734                   23529999.4654
 -29198975.79746 -22740297.37544  23002879.3754                   23002880.9414
  -6829488.86347  -5304382.53945  22344414.5474                   22344412.7584
 11  7 24  1 32  0.0000000  0  9G17G10G02G09G28G04G05G27G12
 -61584099.93047 -47948055.24145  22376251.5314                   22376251.4454
 -16925075.37547 -13176338.11445  21230171.6024                   21230170.3714
 -28374695.48048 -22097398.20546  20677191.5704                   20677188.5164
 -16965693.62946 -13207669.28144  22606656.1414                   22606656.1954
 -72982890.48846 -56864202.07743  23934409.4304                   23934408.2154
 -45794718.85248 -35667010.11846  20508550.2504                   20508549.9144
   5382364.48447   4213536.45744  23495073.5084                   23495074.1134
 -29224849.29746 -22760458.54744  22997956.3594                   22997957.1454
  -6991094.68047  -5430309.12645  22313662.1644                   22313660.8594
 11  7 24  1 32 30.0000000  0  9G17G10G02G09G28G04G05G27G12
 -61615998.32447 -47972911.13445  22370181.4534                   22370180.9614
 -17054242.59847 -13276987.85945  21205591.9844                   21205591.2464
 -28479851.98448 -22179338.30846  20657181.0704                   20657178.0594
 -16984355.14547 -13222210.79044  22603105.5944                   22603106.0354
 -72961456.43446 -56847500.29443  23938487.0474                   23938487.4264
 -45815434.16848 -35683151.90346  20504608.4144                   20504607.7034
   5199008.50447   4070661.83844  23460181.7814                   23460182.0084
 -29250330.67646 -22780314.18444  22993107.1644                   22993108.4774
  -7152331.26247  -5555947.99245  22282979.8364                   22282978.6024
 11  7 24  1 33  0.0000000  0  9G17G10G02G09G28G04G05G27G12
 -61647662.02747 -47997584.15645  22364156.4844                   22364155.0784
 -17182780.55147 -13377147.25845  21181131.7504                   21181131.6054
 -28584529.76648 -22260905.38246  20637261.2504                   20637258.5164
 -17002485.80546 -13236338.57044  22599655.3754                   22599655.8284
 -72939688.43746 -56830538.32443  23942629.5084                   23942629.6564
 -45835701.49248 -35698944.62346  20500751.7274                   20500751.3364
   5015832.24647   3927927.21544  23425323.7974                   23425324.8794
 -29275423.80546 -22799867.31044  22988332.3984                   22988333.0164
  -7313197.15247  -5681298.01945  22252367.7114                   22252366.9104
 11  7 24  1 33 30.0000000  0  9G17G10G02G09G28G04G05G27G12
 -61679092.91047 -48022075.75445  22358175.0704                   22358174.7504
 -17310688.91847 -13476816.09345  21156791.5164                   21156791.0004
 -28688731.56248 -22342101.57546  20617432.4224                   20617429.4494
 -17020090.72747 -13250056.72544  22596304.9064                   22596304.9654
 -72917590.47346 -56813319.16443  23946834.4144                   23946834.5704
 -45855525.21548 -35714391.68646  20496979.3674                   20496979.0124
   4832836.66446   3785333.37744  23390501.0474                   23390501.8984
 -29300133.27346 -22819121.46544  22983630.6884                   22983631.7074
  -7473691.81647  -5806358.78945  22221827.0784                   22221825.6764
 11  7 24  1 34  0.0000000  0  9G17G10G02G09G28G04G05G27G12
 -61710292.34447 -48046387.00745  22352238.1804                   22352237.0164
 -17437967.56647 -13575994.21545  21132571.5944                   21132570.5004
 -28792460.25048 -22422929.09646  20597693.7734                   20597690.8364
 -17037175.24646 -13263369.40544  22593053.4144                   22593053.8834
 -72895166.90646 -56795846.21343  23951101.8204                   23951101.3554
 -45874909.94948 -35729496.68446  20493290.3834                   20493289.8484
   4650021.96947   3642880.53844  23355712.8444                   23355712.8284
 -29324464.14546 -22838080.58343  22979000.6724                   22979001.5084
  -7633814.98447  -5931130.08645  22191356.3524                   22191355.2544
 11  7 24  1 34 30.0000000  0  9G17G10G02G09G28G04G05G27G12
 -60165839.37147 -46842917.14645  22646137.9774                   22646136.6884
 -15989190.18448 -12447076.73445  21408264.7034                   21408263.6134
 -27320292.75448 -21275785.55946  20877837.7114                   20877834.4534
 -15478321.97347 -12048678.56744  22889693.7424                   22889693.2234
 -71297000.25046 -55550521.66943  24255222.9534                   24255222.6484
 -44318437.72348 -34516661.16146  20789477.5634                   20789476.4144
   6042817.23447   4728175.67544  23620752.5314                   23620753.2074
 -27772998.35246 -21629146.23444  23274234.9064                   23274235.9964
  -6218139.05547  -4828005.95745  22460750.3984                   22460749.3094
 11  7 24  1 35  0.0000000  0  9G17G10G02G09G28G04G05G27G12
 -60196573.20347 -46866865.57645  22640288.8284                   22640288.6094
 -16115200.67248 -12545266.69845  21384285.6334                   21384284.8484
 -27423074.28548 -21355875.04746  20858278.7344                   20858275.7384
 -15494373.04747 -12061185.91244  22886638.7814                   22886640.7664
 -71273928.93445 -55532544.10242  24259612.5634                   24259612.4844
 -44336949.81248 -34531086.17846  20785955.1564                   20785954.5204
   5860375.05147   4586013.07444  23586034.9614                   23586035.5904
 -27796577.66046 -21647519.76743  23269747.5004                   23269749.0274
  -6377509.91447  -4952191.05245  22430423.2424                   22430422.3674
 11  7 24  1 35 30.0000000  0  9G17G10G02G09G28G04G05G27G12
 -60227076.82047 -46890634.62645  22634484.5944                   22634483.5394
 -16240576.69147 -12642962.28145  21360426.9384                   21360426.2894
 -27525386.71148 -21435598.99546  20838809.6484                   20838806.6024
 -15509915.44947 -12073296.96444  22883681.9144                   22883681.8244
 -71250540.11345 -55514319.09842  24264062.5004                   24264063.5394
 -44355032.37148 -34545176.49346  20782513.8674                   20782512.8634
   5678120.19147   4443996.43445  23551352.7194                   23551353.3094
 -27819788.64846 -21665606.27744  23265330.2734                   23265331.9774
  -6536504.03147  -5076082.58345  22400167.5784                   22400167.1454
 11  7 24  1 36  0.0000000  0  9G17G10G02G09G28G04G05G27G12
 -60257345.75047 -46914220.78045  22628724.1954                   22628724.0864
 -16365312.04748 -12740158.62545  21336690.9534                   21336690.5084
 -27627226.50848 -21514954.65146  20819429.9304                   20819426.9804
 -15524948.63347 -12085011.19644  22880821.1094                   22880821.4964
 -71226831.72345 -55495845.09442  24268574.5704                   24268574.3284
 -44372683.94148 -34558930.94946  20779154.8364                   20779153.8094
   5496059.36346   4302131.03344  23516707.5164                   23516708.7154
 -27842629.87946 -21683404.65244  23260984.2114                   23260985.7424
  -6695114.95347  -5199675.47745  22369984.6254                   22369983.6174
 11  7 24  1 36 30.0000000  0  9G17G10G02G09G28G04G05G27G12
 -60287386.06647 -46937628.82545  22623008.9454                   22623007.3914
 -16489410.74247 -12836858.88245  21313075.3674                   21313074.9884
 -27728600.19548 -21593947.11146  20800139.3204                   20800136.1484
 -15539482.06647 -12096336.01344  22878055.5554                   22878056.3244
 -71202812.19945 -55477128.64542  24273145.0784                   24273145.5554
 -44389913.30548 -34572356.42846  20775875.7584                   20775874.9024
   5314189.03146   4160414.06044  23482099.0474                   23482099.3874
 -27865110.05546 -21700921.73144  23256706.1564                   23256707.2234
  -6853346.43747  -5322972.74045  22339874.6024                   22339873.7194
 11  7 24  1 37  0.0000000  0  9G17G10G02G09G28G04G05G27G12
 -60317197.89847 -46960858.79745  22617335.1484                   22617333.8754
 -16612871.46147 -12933062.01445  21289581.3594                   21289580.6764
 -27829509.31648 -21672577.58146  20780936.9224                   20780933.6604
 -15553519.82047 -12107274.58744  22875384.4304                   22875385.2034
 -71178484.40246 -55458172.01642  24277776.3984                   24277776.0824
 -44406723.47348 -34585455.26846  20772676.8364                   20772676.4574
   5132511.42647   4018847.17844  23447526.2424                   23447527.1764
 -27887232.62146 -21718160.18544  23252496.2034                   23252497.5634
  -7011197.03947  -5445973.19845  22309836.6174                   22309835.7304
 11  7 24  1 37 30.0000000  0  9G17G10G02G09G28G04G05G27G12
 -60346777.94947 -46983908.15845  22611706.2424                   22611705.3954
 -16735688.97748 -13028763.93145  21266210.2584                   21266209.5204
 -27929951.79348 -21750844.41546  20761823.1024                   20761820.0904
 -15567062.68447 -12117827.54144  22872807.1884                   22872807.7934
 -71153847.93746 -55438974.81343  24282463.8204                   24282463.4064
 -44423114.25048 -34598227.29946  20769558.4304                   20769557.6684
   4951031.90247   3877434.68444  23412992.4454                   23412992.3164
 -27908998.00846 -21735120.28044  23248354.7424                   23248355.0314
  -7168661.65647  -5568672.86445  22279872.0314                   22279871.1484
 11  7 24  1 38  0.0000000  0  9G17G10G02G09G28G04G05G27G12
 -60376127.43747 -47006777.88345  22606121.6484                   22606120.6954
 -16857862.59847 -13123964.11845  21242961.0554                   21242960.4774
 -28029929.46948 -21828749.07846  20742798.2344                   20742795.2234
 -15580114.64847 -12127997.98744  22870323.6174                   22870324.7974
 -71128905.45346 -55419539.16442  24287210.0634                   24287209.5434
 -44439089.52048 -34610675.54846  20766518.1174                   20766517.6804
   4769752.51247   3736178.18944  23378495.0314                   23378496.3794
 -27930409.80145 -21751804.86043  23244280.2584                   23244281.2894
  -7325738.59047  -5691070.43645  22249981.0864                   22249980.1454
 11  7 24  1 38 30.0000000  0  9G17G10G02G09G28G04G05G27G12
 -60405244.15647 -47029466.24645  22600580.8984                   22600580.0314
 -16979388.55947 -13218659.65246  21219835.5554                   21219835.2464
 -28129441.50048 -21906290.90446  20723861.5944                   20723858.5704
 -15592677.64847 -12137787.40744  22867933.0944                   22867934.1884
 -71103657.68446 -55399865.59042  24292014.1644                   24292014.0984
 -44454649.82448 -34622800.46346  20763557.3754                   20763556.5434
   4588677.36346   3595080.80444  23344038.0004                   23344038.3754
 -27951469.30946 -21768214.89443  23240272.6414                   23240274.0824
  -7482423.90247  -5813162.83345  22220164.7344                   22220164.3164
 11  7 24  1 39  0.0000000  0  9G17G10G02G09G28G04G05G27G12
 -60434129.21147 -47051974.05245  22595084.2504                   22595083.3014
 -17100266.37147 -13312850.12246  21196833.5704                   21196832.7934
 -28228489.97748 -21983471.49946  20705013.2504                   20705010.1094
 -15604756.49647 -12147199.52544  22865634.4774                   22865635.0594
 -71078108.30146 -55379957.07042  24296877.2664                   24296876.0084
 -44469799.19148 -34634605.16346  20760674.3914                   20760673.4304
   4407807.77747   3454143.60444  23309619.4614                   23309619.9304
 -27972180.60546 -21784353.68644  23236331.1334                   23236333.4264
  -7638716.41847  -5934949.17245  22190423.3134                   22190422.5434
 11  7 24  1 39 30.0000000  0  9G17G10G02G09G28G04G05G27G12
 -60462785.59447 -47074303.70845  22589630.2664                   22589630.5234
 -17220497.07047 -13406536.34945  21173954.1644                   21173953.7114
 -28327079.03948 -22060294.12846  20686252.7114                   20686249.5314
 -15616358.09847 -12156239.81844  22863426.7664                   22863427.0634
 -71052263.09447 -55359818.01443  24301795.1724                   24301795.1804
 -44484543.48048 -34646094.20846  20757868.9774                   20757867.5554
   4227143.07847   3313366.04544  23275239.9144                   23275240.3014
 -27992550.16046 -21800226.14344  23232455.7114                   23232456.8054
  -7794617.61347  -6056430.60945  22160756.5864                   22160754.6254
 11  7 24  1 40  0.0000000  0  8G17G10G02G09G04G05G27G12
 -60491209.24647 -47096452.01445  22584222.3364                   22584221.0474
 -17340074.75848 -13499713.74045  21151199.6724                   21151198.3284
 -28425205.43048 -22136756.20746  20667579.7274                   20667576.2154
 -15627481.89147 -12164907.73044  22861310.7504                   22861311.1804
 -44498881.33648 -34657266.55546  20755140.1724                   20755139.9924
   4046689.86747   3172753.28144  23240900.7114                   23240900.9694
 -28012576.70746 -21815831.31544  23228644.7344                   23228645.7584
  -7950120.82447  -6177601.89945  22131165.0634                   22131163.3014
 11  7 24  1 40 30.0000000  0  8G17G10G02G09G04G05G27G12
 -60519398.90647 -47118417.95045  22578857.7344                   22578856.0044
 -17458997.05547 -13592380.43545  21128569.5554                   21128568.2934
 -28522869.51248 -22212858.08346  20648994.6094                   20648991.4924
 -15638130.76647 -12173205.56444  22859283.9304                   22859283.7814
 -44512814.56648 -34668123.61646  20752488.7114                   20752488.0784
   3866452.02047   3032308.35944  23206603.2424                   23206602.7704
 -28032262.41046 -21831170.90243  23224899.0004                   23224899.7274
  -8105223.07047  -6298460.74445  22101649.8134                   22101648.9884
 11  7 24  1 41  0.0000000  0  8G17G10G02G09G04G05G27G12
 -60547342.61347 -47140192.25445  22573540.2274                   22573538.3984
 -17577250.23848 -13684525.75946  21106066.3674                   21106065.8164
 -28620060.38348 -22288591.19946  20630500.1254                   20630497.0354
 -15648296.50047 -12181126.94144  22857349.2734                   22857349.6294
 -44526334.16448 -34678658.35646  20749916.1414                   20749914.9024
   3686443.61747   2892042.15744  23172348.4534                   23172348.5784
 -28051598.55146 -21846238.04844  23221220.0164                   23221219.5664
  -8259910.41447  -6418996.31645  22072213.8754                   22072213.7234
 11  7 24  1 41 30.0000000  0  8G17G10G02G09G04G05G27G12
 -60575034.17247 -47161770.08545  22568271.1094                   22568269.4844
 -17694825.98448 -13776143.17645  21083692.1254                   21083692.0984
 -28716772.68048 -22363951.40346  20612095.9534                   20612092.7934
 -15657976.14847 -12188669.54744  22855507.4454                   22855508.1374
 -44539436.56648 -34688868.01846  20747422.8284                   20747421.8484
   3506673.54747   2751961.70644  23138139.7664                   23138139.4144
 -28070581.53946 -21861030.04044  23217606.8444                   23217607.9024
  -8414174.32047  -6539201.91945  22042858.5004                   22042857.4304
 11  7 24  1 42  0.0000000  0  8G17G10G02G09G04G05G27G12
 -60602475.05947 -47183152.57945  22563048.8054                   22563048.3284
 -17811724.50848 -13867232.90345  21061447.6174                   21061446.6094
 -28813008.92648 -22438940.65146  20593782.7974                   20593779.8484
 -15667175.43747 -12195837.84544  22853757.2814                   22853757.9734
 -44552125.87948 -34698755.79046  20745008.1024                   20745007.4774
   3327142.62147   2612067.64444  23103974.5084                   23103975.3874
 -28089216.36346 -21875550.70443  23214060.5474                   23214061.6914
  -8568014.44147  -6659077.28845  22013583.6954                   22013581.9694
 11  7 24  1 42 30.0000000  0  8G17G10G02G09G04G05G27G12
 -60629665.64147 -47204340.06445  22557874.6884                   22557874.0864
 -17927944.94947 -13957794.25045  21039331.5944                   21039330.5904
 -28908770.87948 -22513560.33746  20575560.1804                   20575556.9614
 -15675898.38347 -12202634.91344  22852096.8524                   22852097.9844
 -44564405.75848 -34708324.52846  20742671.1884                   20742670.9414
   3147852.85547   2472361.45744  23069856.9064                   23069857.3834
 -28107506.56646 -21889802.85443  23210580.4304                   23210581.3094
  -8721429.06247  -6778621.13945  21984390.1094                   21984389.0394
 11  7 24  1 43  0.0000000  0  8G17G10G02G09G04G05G27G12
 -60656613.03547 -47225338.02045  22552747.0164                   22552745.4264
 -18043492.45747 -14047831.24146  21017343.1884                   21017342.6524
 -29004066.82448 -22587816.88646  20557425.9614                   20557422.4884
 -15684155.96147 -12209069.39244  22850524.9924                   22850525.9924
 -44576285.93048 -34717581.80146  20740410.3134                   20740409.7274
   2968800.03547   2332839.90844  23035784.2194                   23035784.0124
 -28125462.28946 -21903794.40043  23207163.6024                   23207164.5784
  -8874423.01647  -6897837.15445  21955276.0004                   21955275.5204
 11  7 24  1 43 30.0000000  0  8G17G10G02G09G04G05G27G12
 -60683317.50047 -47246146.69545  22547665.3984                   22547664.4184
 -18158365.91447 -14137342.97246  20995483.8834                   20995482.4844
 -29098897.82848 -22661711.14146  20539380.0474                   20539376.8404
 -15691952.12547 -12215144.32244  22849041.2894                   22849043.2814
 -44587769.47748 -34726529.99646  20738225.1334                   20738224.5394
   2789985.78147   2193504.18944  23001758.1254                   23001757.1724
 -28143087.01646 -21917527.99843  23203809.8204                   23203810.7774
  -9026994.70347  -7016724.17245  21926242.4844                   21926241.1094
 11  7 24  1 44  0.0000000  0  8G17G10G02G09G04G05G27G12
 -60709778.68447 -47266765.80445  22542629.4384                   22542628.7974
 -18272563.66047 -14226328.20545  20973752.5864                   20973751.4224
 -29193265.08248 -22735244.04146  20521422.5164                   20521419.2344
 -15699290.55546 -12220862.63144  22847645.1414                   22847646.5044
 -44598859.08648 -34735171.25946  20736115.2424                   20736114.2934
   2611412.65247   2054356.41345  22967775.8834                   22967776.4104
 -28160383.87546 -21931006.11444  23200518.0864                   23200519.3874
  -9179141.86347  -7135280.37445  21897289.4454                   21897288.2854
 11  7 24  1 44 30.0000000  0  8G17G10G02G09G04G05G27G12
 -59160578.34047 -46059596.70445  22837432.6414                   22837430.9104
 -16810663.40648 -13087185.11846  21251943.0634                   21251941.8164
 -27711749.55548 -21580816.33546  20803345.7114                   20803342.1644
 -14130757.51647 -10998629.07044  23146127.4844                   23146127.6254
 -43034139.84848 -33515909.50946  21033871.0864                   21033870.2734
   4008506.64547   3143001.21945  23233634.1724                   23233634.4694
 -26601938.33246 -20716633.03144  23497080.7584                   23497081.6804
  -7755440.11347  -6025902.35045  22168211.3834                   22168210.0824
 11  7 24  1 45  0.0000000  0  8G17G10G02G09G04G05G27G12
 -59186560.30147 -46079842.39745  22832488.2814                   22832487.8674
 -16923512.89548 -13175119.75246  21230468.3444                   21230467.0664
 -27805200.44948 -21653635.18046  20785562.5314                   20785559.0314
 -14137199.21947 -11003648.54443  23144901.6484                   23144902.2814
 -43044457.10547 -33523948.92146  21031907.5634                   21031907.2974
   3830416.50047   3004229.78645  23199745.3284                   23199745.4454
 -26618596.32446 -20729613.34043  23493910.9924                   23493912.2854
  -7906739.23047  -6143797.72845  22139419.8674                   22139419.2344
 11  7 24  1 45 30.0000000  0  8G17G10G02G09G04G05G27G12
 -59212303.97747 -46099902.38945  22827589.3284                   22827588.6644
 -17035687.03147 -13262528.12146  21209122.3134                   21209121.1294
 -27898195.74248 -21726099.00946  20767865.5234                   20767862.8714
 -14143199.47747 -11008324.11344  23143759.6884                   23143760.5594
 -43054393.84048 -33531691.83646  21030017.1644                   21030016.2504
   3652570.27747   2865648.38245  23165901.7274                   23165900.9064
 -26634940.78946 -20742349.29043  23490800.1174                   23490802.0004
  -8057611.90247  -6261360.85545  22110710.0784                   22110708.9694
 11  7 24  1 46  0.0000000  0  8G17G10G02G09G04G05G27G12
 -59237806.19947 -46119774.27445  22822736.4454                   22822735.8404
 -17147181.73048 -13349407.08446  21187905.4844                   21187904.2584
 -27990734.13348 -21798206.82346  20750256.4224                   20750252.8554
 -14148759.37147 -11012656.49044  23142702.1644                   23142702.1804
 -43063949.85248 -33539138.07846  21028198.3524                   21028197.7274
   3474973.41047   2727261.27945  23132106.0864                   23132105.2854
 -26650972.11346 -20754841.32843  23487749.2034                   23487750.9614
  -8208053.78947  -6378588.24645  22082081.5394                   22082080.0354
 11  7 24  1 46 30.0000000  0  8G17G10G02G09G04G05G27G12
 -59263073.89147 -46139463.37445  22817928.4384                   22817927.6054
 -17258002.16048 -13435760.62845  21166817.1094                   21166815.9264
 -28082823.55148 -21869964.77446  20732732.5864                   20732729.0394
 -14153889.40247 -11016653.98244  23141725.7504                   23141726.7704
 -43073134.85547 -33546295.23646  21026450.6564                   21026449.7114
   3297621.65647   2589065.18344  23098356.8524                   23098356.1604
 -26666700.30146 -20767097.06343  23484756.8364                   23484757.4774
  -8358070.00047  -6495483.93045  22053534.6024                   22053532.9694
 11  7 24  1 47  0.0000000  0  8G17G10G02G09G04G05G27G12
 -59288106.65247 -46158969.45345  22813164.9924                   22813164.0744
 -17368146.74648 -13521587.54346  21145857.5784                   21145856.0234
 -28174465.01248 -21941373.67546  20715293.4454                   20715290.5124
 -14158593.09047 -11020319.21544  23140830.4144                   23140830.9574
 -43081951.23048 -33553165.14146  21024773.0234                   21024772.1764
   3120517.49647   2451062.02545  23064655.3834                   23064654.7344
 -26682128.26646 -20779118.88943  23481821.3524                   23481821.2274
  -8507657.60547  -6612045.66245  22025069.0314                   22025067.6564
 11  7 24  1 47 30.0000000  0  8G17G10G02G09G04G05G27G12
 -59312901.99247 -46178290.48045  22808446.2584                   22808444.9574
 -17477611.59848 -13606884.78945  21125026.8834                   21125025.4024
 -28265656.76248 -22012432.14946  20697940.1024                   20697936.8554
 -14162871.60547 -11023653.12544  23140016.6254                   23140016.3554
 -43090399.16848 -33559747.94446  21023165.7734                   21023164.7274
   2943666.21947   2313255.95545  23031001.0864                   23031001.4734
 -26697256.47346 -20790907.17643  23478942.4774                   23478943.5354
  -8656811.77747  -6728269.63345  21996685.7504                   21996685.9494
 11  7 24  1 48  0.0000000  0  8G17G10G02G09G04G05G27G12
 -59337460.13347 -46197426.66845  22803773.4614                   22803772.2274
 -17586395.96548 -13691651.79746  21104325.9614                   21104324.3674
 -28356400.40248 -22083141.44146  20680672.3594                   20680669.0664
 -14166729.29747 -11026659.14744  23139281.8284                   23139283.0084
 -43098481.77048 -33566046.07246  21021627.6334                   21021626.3134
   2767070.10247   2175648.68045  22997396.3364                   22997395.7774
 -26712088.49246 -20802464.65144  23476121.3754                   23476121.8874
  -8805530.90647  -6844154.61445  21968385.3204                   21968384.1094
 11  7 24  1 48 30.0000000  0  8G17G10G02G09G04G05G27G12
 -59361782.08647 -46216378.84045  22799144.8984                   22799144.0664
 -17694499.52348 -13775888.31245  21083754.2894                   21083753.4064
 -28446698.70348 -22153503.72146  20663489.1954                   20663486.1134
 -14170171.22747 -11029341.22344  23138626.8984                   23138627.9144
 -43106203.30548 -33572062.84946  21020157.8284                   21020157.1644
   2590730.32047   2038241.14044  22963839.3284                   22963839.1294
 -26726628.96546 -20813794.90944  23473352.6884                   23473354.5204
  -8953814.40647  -6959700.12745  21940168.0554                   21940166.3324
 11  7 24  1 49  0.0000000  0  8G17G10G02G09G04G05G27G12
 -59385870.20747 -46235148.80045  22794561.5394                   22794559.8754
 -17801923.04747 -13859594.91145  21063312.1644                   21063311.4104
 -28536554.85948 -22223521.48646  20646390.2894                   20646386.8874
 -14173203.26247 -11031703.90044  23138050.1174                   23138050.9414
 -43113568.16448 -33577801.71046  21018756.1954                   21018755.8524
   2414647.16047   1901033.56744  22930331.5164                   22930330.6374
 -26740883.17646 -20824902.16244  23470640.4454                   23470642.6024
  -9101662.19147  -7074906.13045  21912033.6334                   21912031.5944
 11  7 24  1 49 30.0000000  0  8G17G10G02G09G04G05G27G12
 -59409726.07847 -46253737.77945  22790021.4064                   22790020.2624
 -17908667.08248 -13942772.03946  21042999.3524                   21042998.2384
 -28625971.78948 -22293196.98146  20629374.6414                   20629371.4844
 -14175831.07847 -11033751.65344  23137550.7424                   23137551.6684
 -43120581.22748 -33583266.43646  21017421.9144                   21017421.2234
   2238821.20747   1764026.40145  22896873.9924                   22896872.6684
 -26754856.19946 -20835790.29143  23467980.8984                   23467983.5554
  -9249074.00447  -7189772.40945  21883981.6724                   21883981.2154
 11  7 24  1 50  0.0000000  0  8G17G10G02G09G04G05G27G12
 -59433347.33247 -46272143.96745  22785526.6174                   22785525.5864
 -18014728.44147 -14025417.23046  21022816.7584                   21022815.7504
 -28714948.58648 -22362529.52746  20612442.9844                   20612439.3244
 -14178056.40247 -11035485.70844  23137127.1884                   23137127.3094
 -43127242.96148 -33588457.40546  21016154.1094                   21016153.9104
   2063257.43847   1627223.55845  22863465.2814                   22863464.9534
 -26768548.89146 -20846460.00744  23465375.7734                   23465378.0984
  -9396045.64147  -7304295.68945  21856014.1484                   21856013.8834
 11  7 24  1 50 30.0000000  0  8G17G10G02G09G04G05G27G12
 -59456735.87947 -46290368.76045  22781076.0234                   22781075.0634
 -18120107.27747 -14107530.56745  21002763.3444                   21002762.6094
 -28803488.07848 -22431521.31646  20595594.5234                   20595591.0784
 -14179884.58247 -11036910.31644  23136779.6804                   23136780.1024
 -43133557.64848 -33593377.94146  21014952.4454                   21014952.0864
   1887956.63747   1490625.62645  22830106.2894                   22830105.5314
 -26781965.82846 -20856914.80043  23462823.0944                   23462823.5704
  -9542576.57447  -7418475.57145  21828129.9774                   21828129.1994
 11  7 24  1 51  0.0000000  0  8G17G10G02G09G04G05G27G12
 -59479892.52347 -46308412.94445  22776669.2664                   22776668.9384
 -18224803.41047 -14189111.95046  20982840.7814                   20982839.3484
 -28891592.73448 -22500174.27346  20578828.4924                   20578825.1604
 -14181320.18747 -11038029.01444  23136505.8834                   23136506.6724
 -43139529.17648 -33598031.08346  21013816.3444                   21013815.3364
   1712920.25447   1354233.72245  22796797.4924                   22796797.7504
 -26795111.53146 -20867158.25043  23460321.0164                   23460321.5744
  -9688665.60547  -7532311.11745  21800330.4064                   21800329.0234
 11  7 24  1 51 30.0000000  0  8G17G10G02G09G04G05G27G12
 -59502814.51647 -46326274.19145  22772307.4694                   22772305.8794
 -18328813.14547 -14270158.45046  20963048.1564                   20963047.0594
 -28979260.99248 -22568487.18546  20562145.9304                   20562142.4184
 -14182364.44147 -11038842.75944  23136307.3284                   23136307.1764
 -43145157.46148 -33602416.75846  21012745.2114                   21012744.6524
   1538153.74247   1218052.13045  22763540.8134                   22763540.4144
 -26807986.29346 -20877190.58743  23457871.8134                   23457872.6524
  -9834307.84447  -7645798.52245  21772615.4454                   21772613.2974
 11  7 24  1 52  0.0000000  0  8G17G10G02G09G04G05G27G12
 -59525500.95347 -46343951.89345  22767990.1094                   22767989.0434
 -18432134.53947 -14350668.60046  20943386.7424                   20943385.5124
 -29066493.48848 -22636460.53446  20545546.3054                   20545542.9494
 -14183020.86747 -11039354.29243  23136182.6884                   23136182.5634
 -43150444.82448 -33606536.79746  21011739.2504                   21011738.7424
   1363659.90247   1082082.98145  22730335.8134                   22730335.1294
 -26820592.89146 -20887013.94243  23455472.9534                   23455474.3874
  -9979500.84047  -7758935.85745  21744986.2734                   21744984.8014
 11  7 24  1 52 30.0000000  0  8G17G10G02G09G04G05G27G12
 -59547952.71147 -46361446.76945  22763717.4304                   22763717.2424
 -18534767.40248 -14430642.23546  20923856.0554                   20923855.2624
 -29153292.00848 -22704095.72846  20529029.1724                   20529025.2384
 -14183294.21547 -11039567.36044  23136130.1484                   23136130.2974
 -43155394.71947 -33610393.85046  21010796.8674                   21010796.2974
   1189440.65247    946327.79945  22697182.8594                   22697182.0004
 -26832935.19546 -20896631.35443  23453124.5944                   23453125.6844
 -10124243.48847  -7871722.26846  21717442.5084                   21717441.3554
 11  7 24  1 53  0.0000000  0  8G17G10G02G09G04G05G27G12
 -59570171.37147 -46378760.04945  22759489.5314                   22759489.0744
 -18636712.64547 -14510080.05146  20904456.5314                   20904456.1684
 -29239660.07048 -22771395.50646  20512593.4304                   20512590.0474
 -14183190.03946 -11039486.21143  23136149.8594                   23136151.0514
 -43160011.69548 -33613991.49646  21009918.4454                   21009917.8754
   1015496.66847    810787.16845  22664081.9694                   22664082.3134
 -26845018.53946 -20906047.01543  23450825.0314                   23450825.9494
 -10268535.32847  -7984157.42545  21689984.7504                   21689983.5704
 11  7 24  1 53 30.0000000  0  8G17G10G02G09G04G05G27G12
 -59592156.59047 -46395891.36445  22755306.4774                   22755304.9614
 -18737968.39847 -14588980.61445  20885188.4614                   20885187.5474
 -29325598.19548 -22838360.26446  20496239.9924                   20496236.3014
 -14182711.74247 -11039113.61144  23136240.9774                   23136242.0004
 -43164297.91448 -33617331.41846  21009103.1884                   21009102.5594
    841830.97347    675463.33945  22631034.4534                   22631034.2424
 -26856845.35246 -20915262.75443  23448574.3364                   23448575.5904
 -10412373.86347  -8096239.36446  21662613.3674                   21662611.9024
 11  7 24  1 54  0.0000000  0  8G17G10G02G09G04G05G27G12
 -59613910.61347 -46412842.52845  22751166.4774                   22751166.3754
 -18838536.05548 -14667344.97946  20866051.1564                   20866050.1804
 -29411109.82848 -22904992.69846  20479967.8914                   20479964.6374
 -14181865.40247 -11038454.15244  23136402.5554                   23136402.8244
 -43168258.52348 -33620417.60446  21008349.3284                   21008348.5314
    668443.93447    540356.60145  22598040.4454                   22598038.9884
 -26868421.15246 -20924282.92443  23446371.3984                   23446373.2384
 -10555759.28547  -8207968.21846  21635327.6484                   21635326.1024
 11  7 24  1 54 30.0000000  0  8G17G10G02G09G04G05G27G12
 -59635431.93447 -46429612.39845  22747070.5164                   22747070.4734
 -18938412.99248 -14745171.13346  20847045.2194                   20847043.6764
 -29496195.37548 -22971293.11146  20463776.2734                   20463772.9454
 -14180653.35947 -11037509.75344  23136632.7194                   23136634.2974
 -43171894.36748 -33623250.73946  21007657.4844                   21007656.7934
    495339.11347    405469.82245  22565099.6254                   22565098.5824
 -26879747.63346 -20933108.81243  23444215.7114                   23444217.6884
 -10698688.28147  -8319341.42846  21608129.0314                   21608127.5824
 11  7 24  1 55  0.0000000  0  8G17G10G02G09G04G05G27G12
 -59656722.64147 -46446202.52845  22743019.4144                   22743018.0004
 -19037600.40247 -14822460.01046  20828170.4304                   20828169.1724
 -29580857.97748 -23037263.95546  20447665.4064                   20447661.8594
 -14179081.51647 -11036284.97744  23136932.9534                   23136933.2544
 -43175210.61348 -33625834.83546  21007026.4384                   21007025.5234
    322517.21147    270803.49645  22532212.0704                   22532212.1414
 -26890830.04346 -20941744.52543  23442106.8594                   23442109.0274
 -10841160.80147  -8430358.94145  21581017.6094                   21581016.2704
 11  7 24  1 55 30.0000000  0  8G17G10G02G09G04G05G27G12
 -58102357.52047 -45235008.89845  23038805.1094                   23038803.6214
 -17560669.57847 -13671604.78646  21109221.0314                   21109220.2114
 -28089671.45748 -21875300.40446  20731429.3914                   20731425.3754
 -12601729.38347  -9807179.42044  23437092.7424                   23437093.3364
 -41602785.48448 -32400568.50246  21306248.6884                   21306248.1454
   1725411.01247   1363967.58345  22799174.0394                   22799174.1294
 -25326247.02746 -19722589.01243  23739838.0394                   23739838.9924
  -9407745.62947  -7313412.02645  21853787.3054                   21853785.8954
 11  7 24  1 56  0.0000000  0  9G17G10G02G09G25G04G05G27G12
 -58123184.84846 -45251238.00845  23034841.8594                   23034841.2544
 -17658473.44147 -13747815.55746  21090609.1334                   21090607.6524
 -28173489.92247 -21940613.49546  20715478.9064                   20715475.3134
 -12599448.00847  -9805401.75944  23437526.1484                   23437527.4344
  20239783.42256  15803569.53853  24769927.2584                   24769929.3874
 -41605468.66848 -32402659.29245  21305738.2584                   21305737.5744
   1553164.26647   1229749.42345  22766396.7274                   22766396.4024
 -25336849.59446 -19730850.80543  23737820.0634                   23737821.9844
  -9549297.01647  -7423711.77946  21826851.0474                   21826850.1214
 11  7 24  1 56 30.0000000  0  9G17G10G02G09G25G04G05G27G12
 -58143794.54347 -45267297.49545  23030920.6804                   23030919.0354
 -17755598.19147 -13823497.16446  21072127.2344                   21072126.2194
 -28256902.68748 -22005610.42946  20699605.9304                   20699602.6884
 -12596831.66446  -9803363.06143  23438023.8754                   23438024.9224
  20063897.41846  15666515.52643  24736457.2344                   24736459.1094
 -41607853.49648 -32404517.59745  21305284.6644                   21305283.9064
   1381194.90247   1095747.39345  22733672.4064                   22733671.3054
 -25347231.09046 -19738940.30143  23735843.8364                   23735845.8524
  -9690399.06247  -7533661.40546  21800000.1724                   21799998.9574
 11  7 24  1 57  0.0000000  0  9G17G10G02G09G25G04G05G27G12
 -58164193.54747 -45283192.83345  23027038.6484                   23027036.4844
 -17852049.82447 -13898654.25546  21053772.9694                   21053771.9804
 -28339917.94548 -22070297.61046  20683808.8134                   20683805.3554
 -12593891.42246  -9801072.05743  23438583.0234                   23438584.2894
  19888189.11346  15529600.03243  24703021.7344                   24703023.3134
 -41609949.67248 -32406150.97546  21304885.8134                   21304884.9304
   1209498.19547    961957.83145  22700998.8594                   22700998.6214
 -25357401.87946 -19746865.66743  23733909.0004                   23733909.2814
  -9831056.67647  -7643264.70245  21773234.4064                   21773232.7814
 11  7 24  1 57 30.0000000  0  9G17G10G02G09G25G04G05G27G12
 -58184374.36747 -45298918.16244  23023198.2814                   23023196.2814
 -17947820.28947 -13973280.56546  21035548.5394                   21035547.1414
 -28422529.41048 -22134670.15646  20668088.2734                   20668084.6644
 -12590623.80146  -9798525.82643  23439205.1884                   23439205.4734
  19712668.05547  15392830.44643  24669620.8984                   24669623.1954
 -41611752.00448 -32407555.39146  21304542.7114                   21304541.4494
   1038084.34847    828388.66445  22668379.8364                   22668379.0904
 -25367357.64546 -19754623.46343  23732014.7734                   23732014.9574
  -9971260.28547  -7752514.25946  21746554.1644                   21746552.3094
 11  7 24  1 58  0.0000000  0  9G17G10G02G09G25G04G05G27G12
 -58204337.64847 -45314473.93044  23019398.6024                   23019397.9924
 -18042909.37148 -14047375.92946  21017453.6334                   21017452.3284
 -28504739.38748 -22198729.84546  20652444.5704                   20652440.5904
 -12587033.48047  -9795728.25243  23439889.6094                   23439889.7854
  19537335.23447  15256207.54144  24636255.7114                   24636258.1684
 -41613264.41848 -32408733.88045  21304254.8444                   21304253.1884
    866955.05547    695041.22445  22635815.1334                   22635814.3204
 -25377102.37946 -19762216.79443  23730160.3984                   23730161.9184
 -10111008.94547  -7861409.29146  21719961.0784                   21719959.3874
 11  7 24  1 58 30.0000000  0  9G17G10G02G09G25G04G05G27G12
 -58224083.70747 -45329860.49145  23015641.6484                   23015641.3834
 -18137316.58248 -14120939.97546  20999488.5704                   20999487.3714
 -28586549.59448 -22262478.02546  20636876.5474                   20636872.7274
 -12583124.37547  -9792682.18844  23440633.2894                   23440634.0514
  19362192.36747  15119732.72544  24602927.4774                   24602929.7894
 -41614489.82048 -32409688.73345  21304021.2664                   21304020.9804
    696112.49247    561917.21945  22603304.6414                   22603304.2154
 -25386639.56246 -19769648.43243  23728345.8754                   23728347.4574
 -10250300.60247  -7969948.20946  21693454.5864                   21693452.7384
 11  7 24  1 59  0.0000000  0  9G17G10G02G09G25G04G05G27G12
 -58243608.25847 -45345074.41545  23011926.6644                   23011925.3054
 -18231036.91847 -14193968.76845  20981654.0164                   20981652.6254
 -28667957.03548 -22325912.35846  20621385.1414                   20621381.4774
 -12578896.38346  -9789387.71444  23441437.9304                   23441438.5824
  19187245.88347  14983410.82044  24569636.4924                   24569638.4574
 -41615426.61748 -32410418.70145  21303843.4384                   21303843.0204
    525563.38747    429021.86645  22570850.4844                   22570849.6254
 -25395968.37146 -19776917.70243  23726570.1174                   23726572.6254
 -10389129.16047  -8078126.30846  21667036.2274                   21667035.1484
 11  7 24  1 59 30.0000000  0  9G17G10G02G09G25G04G05G27G12
 -58262909.34847 -45360114.24344  23008253.2974                   23008252.6054
 -18324067.78147 -14266460.32146  20963950.7344                   20963949.3204
 -28748961.35548 -22389032.57646  20605970.3134                   20605966.3754
 -12574351.40247  -9785846.20444  23442302.7424                   23442303.7114
  19012499.48846  14847244.89444  24536382.7814                   24536385.9104
 -41616075.50448 -32410924.32146  21303720.1724                   21303719.2544
    355311.95347    296358.45345  22538452.8834                   22538451.7544
 -25405090.11346 -19784025.66143  23724833.7974                   23724836.3754
 -10527490.68747  -8185940.44945  21640706.7504                   21640706.1414
 11  7 24  2  0  0.0000000  0  9G17G10G02G09G25G04G05G27G12
 -58281984.59847 -45374978.07144  23004623.2974                   23004621.8094
 -18416406.42647 -14338412.49246  20946379.3444                   20946377.9024
 -28829561.50848 -22451837.85546  20590632.4454                   20590628.6294
 -12569490.87547  -9782058.81944  23443227.3524                   23443228.0904
  18837957.59846  14711238.31543  24503168.7584                   24503171.0744
 -41616436.81647 -32411205.86145  21303650.9694                   21303649.7664
    185363.18447    163930.91445  22506112.3524                   22506111.7344
 -25414005.60946 -19790972.86143  23723138.2114                   23723140.2034
 -10665381.05147  -8293387.46146  21614466.8674                   21614465.3834
 11  7 24  2  0 30.0000000  0  9G17G10G02G09G25G04G05G27G12
 -58300835.07846 -45389666.73445  23001036.0554                   23001035.3524
 -18508053.03547 -14409825.40346  20928939.8284                   20928938.0234
 -28909759.90648 -22514330.07846  20575371.5394                   20575367.8594
 -12564320.03146  -9778029.61643  23444210.9534                   23444212.3244
  18663621.18446  14575391.81543  24469993.4844                   24469995.8164
 -41616514.29747 -32411266.23446  21303636.8674                   21303635.6804
     15718.25047     31740.14845  22473829.4534                   22473829.7114
 -25422719.25446 -19797762.77243  23721479.7114                   23721481.3874
 -10802799.17647  -8400466.48246  21588317.5394                   21588315.9024
 11  7 24  2  1  0.0000000  0  9G17G10G02G09G25G04G05G27G12
 -58319457.20346 -45404177.47044  22997491.8284                   22997491.7934
 -18599003.37147 -14480695.77246  20911632.0784                   20911630.9884
 -28989554.58648 -22576507.73246  20560186.6644                   20560183.1414
 -12558839.15646  -9773758.91243  23445253.8444                   23445255.2664
  18489495.80546  14439709.72343  24436858.1724                   24436859.7544
 -41616307.13747 -32411104.79745  21303675.8284                   21303674.7274
   -153616.26247   -100208.73545  22441606.3914                   22441606.6094
 -25431230.61746 -19804395.09943  23719860.6564                   23719863.0864
 -10939739.74647  -8507173.39446  21562258.3054                   21562256.6484
 11  7 24  2  1 30.0000000  0  9G17G10G02G09G25G04G05G27G12
 -58337857.68746 -45418515.53744  22993991.1564                   22993989.8484
 -18689263.47747 -14551028.29246  20894456.2974                   20894455.3714
 -29068953.41448 -22638376.91546  20545077.7894                   20545074.1174
 -12553058.66846  -9769254.64443  23446354.4454                   23446354.4454
  18315576.89546  14304188.51242  24403762.3984                   24403763.9384
 -41615824.39847 -32410728.63545  21303767.7194                   21303767.9774
   -322644.54747   -231919.04045  22409441.5394                   22409440.1414
 -25439549.64846 -19810877.49843  23718277.8914                   23718278.8954
 -11076207.24247  -8613511.65246  21536289.0784                   21536287.7424
 11  7 24  2  2  0.0000000  0  9G17G10G02G09G25G04G05G27G12
 -58356032.05147 -45432677.35445  22990532.7274                   22990531.4264
 -18778828.50448 -14620819.18646  20877413.1024                   20877411.6524
 -29147953.55948 -22699935.44646  20530044.6644                   20530041.0394
 -12546978.14147  -9764516.55343  23447511.8284                   23447511.8594
  18141870.81646  14168833.21942  24370706.8444                   24370707.5234
 -41615064.47348 -32410136.50545  21303911.8204                   21303912.1764
   -491360.23047   -363385.73545  22377335.5004                   22377335.4734
 -25447675.31246 -19817209.33443  23716731.2034                   23716732.5664
 -11212195.62947  -8719476.57446  21510411.8984                   21510410.0354
 11  7 24  2  2 30.0000000  0  9G17G10G02G09G25G04G05G27G12
 -58373981.25846 -45446663.70544  22987116.9534                   22987115.9964
 -18867698.89548 -14690068.82746  20860501.2814                   20860499.6294
 -29226557.34448 -22761185.12946  20515086.8284                   20515082.9224
 -12540602.55947  -9759548.66844  23448724.9384                   23448725.9804
  17968378.60246  14033644.52042  24337692.6174                   24337692.9734
 -41614030.94948 -32409331.15945  21304108.8364                   21304107.8594
   -659761.66447   -494607.57545  22345289.5784                   22345289.0904
 -25455611.75046 -19823393.59543  23715220.6804                   23715222.0904
 -11347703.54747  -8825067.10546  21484625.3054                   21484623.8204
 11  7 24  2  3  0.0000000  0  9G17G10G02G09G25G04G05G27G12
 -58391701.43047 -45460471.64445  22983744.5084                   22983744.7934
 -18955870.14147 -14758773.66946  20843722.7664                   20843721.3594
 -29304762.26248 -22822124.01046  20500204.4694                   20500200.9144
 -12533932.01247  -9754350.87243  23449994.5634                   23449994.4494
  17795106.22746  13898627.17543  24304719.4614                   24304721.2624
 -41612722.71547 -32408311.76145  21304357.8444                   21304357.2194
   -827842.44947   -625579.57045  22313305.0004                   22313304.5274
 -25463358.25446 -19829429.85843  23713747.1954                   23713748.1374
 -11482725.50447  -8930278.96146  21458931.8754                   21458930.5634
 11  7 24  2  3 30.0000000  0  9G17G10G02G09G25G04G05G27G12
 -58409190.79046 -45474099.72044  22980416.6414                   22980416.2624
 -19043340.14847 -14826932.09546  20827077.8594                   20827076.9924
 -29382568.17648 -22882751.97946  20485398.4774                   20485395.0124
 -12526968.68047  -9748924.89544  23451319.7274                   23451320.6724
  17622057.39546  13763783.94943  24271790.1644                   24271791.4224
 -41611140.66447 -32407079.00845  21304658.8524                   21304658.0234
   -995598.17247   -756298.24845  22281382.7344                   22281381.7974
 -25470916.46546 -19835319.40643  23712309.1804                   23712310.0554
 -11617257.91447  -9035109.36546  21433330.7894                   21433329.3554
 11  7 24  2  4  0.0000000  0  9G17G10G02G09G25G04G05G27G12
 -58426453.89847 -45487551.44044  22977131.8754                   22977130.6764
 -19130113.00447 -14894547.28646  20810565.1334                   20810564.1564
 -29459981.09448 -22943073.72346  20470667.5314                   20470664.1414
 -12519720.86747  -9743277.25343  23452699.2664                   23452698.6094
  17449229.72747  13629113.05743  24238902.2194                   24238902.8134
 -41609291.89547 -32405638.41645  21305010.8754                   21305009.6054
  -1163031.40647   -886765.61045  22249520.7274                   22249520.1954
 -25478294.27746 -19841068.38843  23710904.9144                   23710906.0514
 -11751303.25848  -9139560.21746  21407822.8914                   21407821.1564
 11  7 24  2  4 30.0000000  0  9G17G10G02G09G25G04G05G27G12
 -58443491.66447 -45500827.60044  22973889.5314                   22973888.1844
 -19216188.69948 -14961619.24246  20794185.8444                   20794184.6174
 -29537003.45748 -23003091.12846  20456010.2734                   20456007.0434
 -12512193.30147  -9737411.71043  23454131.0394                   23454131.0274
  17276624.39846  13494615.37243  24206055.9924                   24206057.6294
 -41607179.77348 -32403992.61345  21305412.2894                   21305412.1334
  -1330140.14547  -1016980.16145  22217721.3834                   22217720.1724
 -25485495.74246 -19846680.03143  23709534.0004                   23709536.3794
 -11884860.47347  -9243630.70746  21382407.6334                   21382406.2704
 11  7 24  2  5  0.0000000  0  9G17G10G02G09G25G04G05G27G12
 -58460299.03146 -45513924.21844  22970691.2194                   22970690.5864
 -19301562.32048 -15028144.10946  20777939.7504                   20777938.3364
 -29613631.55148 -23062801.30046  20441428.9064                   20441425.2384
 -12504385.15246  -9731327.47243  23455616.7344                   23455617.6684
  17104248.42647  13360296.46943  24173254.5314                   24173256.1994
 -41604801.97347 -32402139.77545  21305864.9454                   21305864.0314
  -1496917.02747  -1146936.09445  22185984.4224                   22185983.4344
 -25492519.09046 -19852152.86243  23708197.6884                   23708200.4884
 -12017922.73847  -9347315.53546  21357086.8914                   21357085.0554
 11  7 24  2  5 30.0000000  0  9G17G10G02G09G25G04G05G27G12
 -58476878.70746 -45526843.46244  22967536.2734                   22967535.5474
 -19386236.02348 -15094123.59846  20761826.7974                   20761825.7114
 -29689869.46948 -23122207.46146  20426921.0084                   20426917.3594
 -12496302.60947  -9725029.44544  23457155.2344                   23457156.8714
  16932101.39147  13226155.98844  24140496.0474                   24140497.8754
 -41602163.60547 -32400083.90745  21306367.0314                   21306366.2934
  -1663361.98047  -1276633.38945  22154311.1024                   22154310.0274
 -25499370.00846 -19857491.28943  23706894.4614                   23706895.8984
 -12150490.66847  -9450615.16546  21331859.5084                   21331858.3244
 11  7 24  2  6  0.0000000  0  9G17G10G02G09G25G04G05G27G12
 -56917808.40246 -44311983.45344  23264217.4924                   23264216.3674
 -17894784.81648 -13931953.80546  21045640.8524                   21045639.3634
 -28190294.15248 -21953707.20246  20712280.7814                   20712277.5904
 -10912528.32846  -8490919.71144  23758537.0944                   23758538.4264
  18335612.77047  14319801.23544  24407574.8444                   24407577.0744
 -40023845.60547 -31170225.73145  21606711.1804                   21606710.5824
   -254045.24647   -178464.43745  22422494.6954                   22422493.7624
 -23930629.95746 -18635096.54043  24005415.3284                   24005416.4884
 -10707136.30547  -8325923.41046  21606521.1094                   21606518.9964
 11  7 24  2  6 30.0000000  0  9G17G10G02G09G25G04G05G27G12
 -56933932.70346 -44324547.79144  23261148.5314                   23261147.9614
 -17978057.80948 -13996841.82246  21029794.2894                   21029792.8914
 -28265756.29348 -22012508.85146  20697920.9454                   20697917.3204
 -10903909.35946  -8484203.68143  23760177.8674                   23760178.5704
  18163929.52747  14186022.11243  24374904.8134                   24374906.3984
 -40020694.35247 -31167770.19445  21607311.0944                   21607309.7854
   -419819.38347   -307639.02345  22390949.4844                   22390948.6374
 -23937146.49246 -18640174.40643  24004176.1804                   24004176.8324
 -10838710.23848  -8428448.49646  21581483.4064                   21581481.8404
 11  7 24  2  7  0.0000000  0  9G17G10G02G09G25G04G05G27G12
 -56949831.50047 -44336936.44544  23258124.2114                   23258121.6134
 -18060632.08648 -14061185.37846  21014080.8914                   21014079.6294
 -28340835.09048 -22071011.78546  20683633.5784                   20683630.2114
 -10895030.47346  -8477285.10243  23761867.6804                   23761867.8094
  17992479.01646  14052424.32943  24342279.1724                   24342281.0594
 -40017292.68747 -31165119.53845  21607958.3284                   21607957.4304
   -585256.89547   -436551.31745  22359467.5784                   22359467.2194
 -23943502.83646 -18645127.41443  24002966.3364                   24002967.0634
 -10969787.04747  -8530586.23846  21556540.1334                   21556538.3134
 11  7 24  2  7 30.0000000  0  9G17G10G02G09G25G04G05G27G12
 -56965500.97546 -44349146.40044  23255141.6884                   23255140.2114
 -18142503.48048 -14124981.25046  20998501.2424                   20998500.1524
 -28415528.16048 -22129214.16346  20669420.1334                   20669416.6844
 -10885891.35946  -8470163.75843  23763605.8674                   23763607.0164
  17821267.14846  13919012.62243  24309698.2814                   24309700.7814
 -40013639.31647 -31162272.77245  21608653.2974                   21608652.9224
   -750351.60947   -565196.49745  22328050.6724                   22328050.3204
 -23949698.49646 -18649955.24343  24001787.0704                   24001788.0234
 -11100360.75847  -8632331.93746  21531692.5234                   21531690.9414
 11  7 24  2  8  0.0000000  0  9G17G10G02G09G25G04G05G27G12
 -56980937.18046 -44361174.57245  23252204.2424                   23252203.8874
 -18223667.85247 -14188226.17846  20983056.0784                   20983054.1024
 -28489832.52347 -22187113.66246  20655280.7274                   20655276.8484
 -10876491.92646  -8462839.59944  23765395.0314                   23765395.7814
  17650300.36346  13785791.79743  24277163.8524                   24277167.3674
 -40009732.65247 -31159228.60045  21609397.0704                   21609395.6374
   -915096.46547   -693569.06645  22296700.8054                   22296700.3014
 -23955732.43746 -18654657.05243  24000639.1254                   24000639.8324
 -11230425.04747  -8733680.70646  21506942.1254                   21506940.1644
 11  7 24  2  8 30.0000000  0  9G17G10G02G09G25G04G05G27G12
 -56996141.09047 -44373021.74945  23249311.3054                   23249310.2734
 -18304125.95748 -14250920.78446  20967745.7974                   20967744.3284
 -28563750.93448 -22244712.40146  20641214.4224                   20641211.1804
 -10866837.44546  -8455316.66943  23767232.6804                   23767232.9024
  17479579.61346  13652762.72743  24244676.9774                   24244679.6374
 -40005576.46147 -31155989.99745  21610187.7734                   21610186.9964
  -1079490.16447   -821668.01545  22265417.5314                   22265417.0124
 -23961609.02746 -18659236.15143  23999520.9694                   23999522.0084
 -11359979.47747  -8834632.18346  21482288.6954                   21482286.8524
 11  7 24  2  9  0.0000000  0  9G17G10G02G09G25G04G05G27G12
 -57011116.18746 -44384690.64544  23246461.4064                   23246460.1414
 -18383881.30148 -14313067.77746  20952568.6564                   20952567.7504
 -28637288.69148 -22302014.53946  20627220.3204                   20627216.9654
 -10856935.18746  -8447600.62343  23769116.0634                   23769116.9224
  17309103.43446  13519924.29543  24212236.1884                   24212239.4344
 -40001176.60947 -31152561.52845  21611024.7814                   21611024.1254
  -1243533.82847   -949494.20645  22234201.6094                   22234200.6954
 -23967335.03146 -18663698.09343  23998430.0084                   23998432.5784
 -11489025.57047  -8935187.53946  21457732.1094                   21457730.9384
 11  7 24  2  9 30.0000000  0  9G17G10G02G09G25G04G05G27G12
 -57025860.19146 -44396179.43544  23243655.4224                   23243653.8404
 -18462931.36348 -14374665.19146  20937525.7504                   20937524.5044
 -28710444.73448 -22359019.23546  20613299.3364                   20613295.7974
 -10846786.47746  -8439692.59843  23771047.5314                   23771049.1524
  17138876.40246  13387279.98143  24179842.8914                   24179845.1914
 -39996533.42647 -31148943.44045  21611908.4614                   21611907.2974
  -1407222.88347  -1077044.07345  22203052.2194                   22203051.0864
 -23972911.36746 -18668043.27843  23997369.4694                   23997372.1174
 -11617559.31247  -9035343.68246  21433273.0394                   21433271.1604
 11  7 24  2 10  0.0000000  0  9G17G10G02G09G25G04G05G27G12
 -57040379.52347 -44407493.14244  23240893.1954                   23240892.0634
 -18541282.69548 -14435718.16046  20922616.0704                   20922614.3594
 -28783227.36348 -22415732.96346  20599449.0004                   20599446.1764
 -10836401.68746  -8431600.58943  23773023.8204                   23773024.8164
  16968893.80947  13254826.07843  24147496.6254                   24147498.5904
 -39991656.09447 -31145142.93045  21612836.3834                   21612835.9534
  -1570561.39547  -1204320.78345  22171970.2424                   22171968.8484
 -23978348.20346 -18672279.91743  23996335.0944                   23996337.1914
 -11745585.45347  -9135104.28346  21408910.5084                   21408908.5084
 11  7 24  2 10 30.0000000  0  9G17G10G02G09G25G04G05G27G12
 -57054671.81647 -44418629.98744  23238173.0314                   23238172.1564
 -18618932.31648 -14496224.33346  20907839.6414                   20907838.3094
 -28855635.24648 -22472154.66946  20585670.1724                   20585667.2114
 -10825782.43046  -8423325.91143  23775044.5394                   23775046.8364
  16799160.38347  13122566.41543  24115197.0234                   24115198.8714
 -39986544.48447 -31141159.83345  21613808.8984                   21613808.4884
  -1733544.49247  -1331320.54545  22140955.3524                   22140954.0234
 -23983646.01646 -18676408.06843  23995327.5164                   23995328.7504
 -11873099.80547  -9234466.10246  21384645.0164                   21384643.5514
 11  7 24  2 11  0.0000000  0  9G17G10G02G09G25G04G05G27G12
 -57068734.21146 -44429587.68444  23235497.2974                   23235495.8444
 -18695877.48447 -14556181.56945  20893197.3204                   20893195.7424
 -28927666.98047 -22528283.28546  20571963.5314                   20571959.9734
 -10814929.80146  -8414869.42744  23777110.5084                   23777112.1684
  16629681.36347  12990504.92643  24082946.6024                   24082948.3094
 -39981198.14547 -31136993.83245  21614826.5864                   21614825.7734
  -1896166.58247  -1458039.00745  22110009.5474                   22110008.1024
 -23988804.84446 -18680428.02343  23994346.4224                   23994347.8524
 -12000097.62548  -9333425.40446  21360478.5084                   21360476.2974
 11  7 24  2 11 30.0000000  0  9G17G10G02G09G25G04G05G27G12
 -57082570.39546 -44440369.10444  23232863.8444                   23232862.7074
 -18772121.77348 -14615592.68346  20878689.1174                   20878687.2814
 -28999327.82048 -22584122.88946  20558326.5474                   20558323.1564
 -10803851.01246  -8406236.64544  23779218.7814                   23779219.5784
  16460455.31647  12858640.57143  24050744.0784                   24050745.6254
 -39975623.00047 -31132649.53745  21615887.6644                   21615886.7504
  -2058428.82447  -1584477.07045  22079132.1094                   22079130.5164
 -23993831.51646 -18684344.95443  23993389.9224                   23993391.2544
 -12126580.39548  -9431983.37646  21336409.4144                   21336407.1294
 11  7 24  2 12  0.0000000  0  9G17G10G02G09G25G04G05G27G12
 -57096177.92646 -44450972.34744  23230274.9774                   23230272.7624
 -18847662.93047 -14674455.89646  20864313.3834                   20864312.3524
 -29070617.00847 -22639672.90146  20544761.1884                   20544757.7584
 -10792547.96147  -8397429.13044  23781370.1644                   23781370.9614
  16291486.41847  12726976.62744  24018590.2274                   24018591.9694
 -39969819.66847 -31128127.46845  21616991.8364                   21616990.5664
  -2220326.73047  -1710631.21445  22048323.5234                   22048322.6884
 -23998727.23046 -18688159.81843  23992458.3914                   23992459.7504
 -12252544.35248  -9530137.09246  21312439.1884                   21312437.3324
 11  7 24  2 12 30.0000000  0  9G17G10G02G09G25G04G05G27G12
 -57109556.71146 -44461397.32244  23227728.0164                   23227727.1414
 -18922500.59048 -14732770.95246  20850072.2504                   20850070.8404
 -29141535.81648 -22694934.29346  20531265.5704                   20531261.9304
 -10781024.24647  -8388449.63644  23783563.1024                   23783564.3714
  16122777.06647  12595514.89644  23986485.7424                   23986487.5904
 -39963790.12547 -31123429.10745  21618139.1804                   21618138.5664
  -2381857.76247  -1836499.50345  22017585.0314                   22017584.1054
 -24003495.02546 -18691875.04143  23991549.8594                   23991551.1564
 -12377987.52747  -9627884.98446  21288568.1484                   21288566.1454
 11  7 24  2 13  0.0000000  0  9G17G10G02G09G25G04G05G27G12
 -57122705.93047 -44471643.47844  23225226.1724                   23225225.4884
 -18996634.59048 -14790537.67346  20835964.7894                   20835963.8364
 -29212085.24648 -22749907.85746  20517840.1644                   20517836.5084
 -10769282.74646  -8379300.44544  23785796.4454                   23785797.6094
  15954330.17247  12464257.65544  23954431.2664                   23954433.4344
 -39957536.39847 -31118556.04445  21619329.6644                   21619328.3874
  -2543018.44547  -1962079.20545  21986917.2274                   21986916.3914
 -24008137.18046 -18695492.39143  23990666.9844                   23990668.3324
 -12502907.40248  -9725225.12346  21264796.9454                   21264795.1484
 11  7 24  2 13 30.0000000  0  9G17G10G02G09G25G04G05G27G12
 -57135627.37147 -44481712.10044  23222767.7274                   23222765.4844
 -19070065.90648 -14847756.84846  20821991.4224                   20821990.2544
 -29282268.05148 -22804595.75946  20504484.9844                   20504481.1684
 -10757328.97346  -8369985.86043  23788071.1174                   23788071.7464
  15786146.32447  12333205.40844  23922427.4774                   23922429.5204
 -39951062.07047 -31113511.11845  21620561.3134                   21620560.6724
  -2703807.88347  -2087369.61845  21956319.8364                   21956318.5944
 -24012658.57446 -18699015.59343  23989806.3984                   23989808.6484
 -12627303.70348  -9822157.28146  21241124.8914                   21241122.8054
 11  7 24  2 14  0.0000000  0  9G17G10G02G09G25G04G05G27G12
 -57148320.12147 -44491602.52244  23220352.3204                   23220351.0704
 -19142793.91048 -14904427.99846  20808152.1174                   20808150.7814
 -29352085.11748 -22858998.65746  20491199.2664                   20491195.4224
 -10745166.12146  -8360508.36143  23790386.0164                   23790386.9804
  15618228.64547  12202360.50644  23890473.3134                   23890475.6684
 -39944368.91047 -31108295.65245  21621834.9924                   21621834.1374
  -2864223.02747  -2212368.40345  21925793.9774                   21925792.7154
 -24017061.52046 -18702446.55143  23988968.6484                   23988971.3554
 -12751173.82448  -9918679.41846  21217553.0634                   21217551.7194
 11  7 24  2 14 30.0000000  0  9G17G10G02G09G25G04G05G27G12
 -57160785.76247 -44501315.99144  23217979.8984                   23217978.6644
 -19214820.60547 -14960552.67346  20794446.0554                   20794444.1524
 -29421539.43048 -22913118.88846  20477982.4534                   20477979.2304
 -10732799.47346  -8350872.07143  23792738.8984                   23792741.0394
  15450577.58246  12071723.37144  23858569.7664                   23858572.1884
 -39937461.09447 -31102912.92845  21623149.9144                   21623148.7704
  -3024263.15647  -2337074.94146  21895338.7664                   21895338.4144
 -24021350.92645 -18705788.98243  23988151.6094                   23988154.8754
 -12874517.96548 -10014791.71046  21194081.3134                   21194079.9264
 11  7 24  2 15  0.0000000  0  9G17G10G02G09G25G04G05G27G12
 -57173017.81246 -44510847.39944  23215651.4924                   23215651.9804
 -19286139.74247 -15016125.98046  20780873.6884                   20780872.2304
 -29490626.10948 -22966952.65646  20464835.8984                   20464832.4534
 -10720226.18546  -8341074.75643  23795131.7734                   23795132.2504
  15283201.83246  11941300.77144  23826719.4694                   23826721.9574
 -39930334.36747 -31097359.62145  21624505.8364                   21624505.1054
  -3183919.31647  -2461482.26945  21864957.6484                   21864957.0704
 -24025523.53946 -18709040.47943  23987358.4774                   23987361.1914
 -12997327.85548 -10110487.68546  21170711.6334                   21170709.7344
 11  7 24  2 15 30.0000000  0  9G17G10G02G09G25G04G05G27G12
 -57185021.29346 -44520200.76044  23213367.6174                   23213366.9454
 -19356756.06247 -15071151.66146  20767436.1334                   20767434.6054
 -29559351.61348 -23020504.99046  20451757.8914                   20451753.4064
 -10707455.15246  -8331123.30043  23797562.3134                   23797563.2154
  15116098.78946  11811090.64644  23794920.7894                   23794922.5434
 -39922996.03547 -31091641.43645  21625902.1804                   21625901.1294
  -3343194.19147  -2585592.51945  21834648.5634                   21834647.9884
 -24029587.34846 -18712207.09843  23986586.7114                   23986586.8324
 -13119606.44948 -10205769.68146  21147442.7194                   21147441.0234
 11  7 24  2 16  0.0000000  0  9G17G10G02G09G25G04G05G27G12
 -57196794.04347 -44529374.32544  23211127.6334                   23211126.3324
 -19426667.59447 -15125628.15546  20754132.4224                   20754131.5434
 -29627715.18748 -23073775.29646  20438748.5944                   20438744.9024
 -10694488.09046  -8321019.18643  23800030.0944                   23800031.2114
  14949272.58246  11681096.23044  23763174.6954                   23763176.9494
 -39915446.43447 -31085758.60645  21627338.5704                   21627337.8094
  -3502082.90647  -2709401.86046  21804413.1414                   21804411.9064
 -24033543.48046 -18715289.82843  23985832.5554                   23985834.0434
 -13241350.15648 -10300634.88246  21124275.5004                   21124273.6994
 11  7 24  2 16 30.0000000  0  9G17G10G02G09G25G04G05G27G12
 -57208338.37547 -44538369.91444  23208931.0084                   23208930.0904
 -19495877.35547 -15179557.81446  20740962.5864                   20740961.2344
 -29695720.88347 -23126766.73346  20425807.3524                   20425804.1914
 -10681331.36346  -8310767.25343  23802533.1884                   23802535.0744
  14782723.08246  11551317.45443  23731481.1414                   23731483.8164
 -39907690.69147 -31079715.18245  21628814.5704                   21628814.2584
  -3660585.52047  -2832910.34845  21774251.0634                   21774250.5744
 -24037397.55946 -18718293.08143  23985099.3444                   23985101.2234
 -13362559.55148 -10395083.74346  21101210.1254                   21101208.7274
 11  7 24  2 17  0.0000000  0  9G17G10G02G09G25G04G05G27G12
 -57219651.64547 -44547185.42044  23206778.2664                   23206776.8714
 -19564382.60947 -15232938.51046  20727926.1884                   20727924.8364
 -29763367.32447 -23179478.22446  20412934.7814                   20412931.2624
 -10667985.66046  -8300368.06443  23805072.8754                   23805073.8984
  14616455.68447  11421758.43144  23699842.0234                   23699843.8244
 -39899727.66047 -31073510.20245  21630329.7504                   21630329.0664
  -3818696.41847  -2956113.59245  21744163.2274                   21744162.7814
 -24041149.77346 -18721216.83643  23984385.5234                   23984387.0864
 -13483229.85548 -10489112.50846  21078247.5394                   21078246.1414
 11  7 24  2 17 30.0000000  0  9G17G10G02G09G25G04G05G27G12
 -55655314.84046 -43328221.71844  23504462.1954                   23504460.7344
 -18056762.79747 -14058169.78946  21014816.3594                   21014815.1914
 -28255235.19948 -22004310.31946  20699922.9694                   20699919.2074
  -9079036.80946  -7062226.15543  24107439.7504                   24107441.9844
  16025896.45747  12520023.98944  23968049.0394                   23968051.4574
 -38316141.76647 -29839547.15045  21931676.0004                   21931674.9654
  -2400990.15647  -1851407.38345  22013943.7504                   22013942.8634
 -22469384.47346 -17496464.77043  24283482.5864                   24283484.1024
 -12027937.10248  -9355118.12946  21355180.5864                   21355178.2034
 11  7 24  2 18  0.0000000  0  9G17G10G02G09G25G04G05G27G12
 -55666169.57447 -43336679.92444  23502396.3054                   23502394.9144
 -18123863.52747 -14110456.07946  21002047.9534                   21002046.5744
 -28322171.91048 -22056468.79346  20687185.1954                   20687181.3914
  -9065328.90246  -7051544.73343  24110047.7274                   24110050.5704
  15860195.56647  12390906.40744  23936517.6174                   23936519.3714
 -38307775.78947 -29833028.20045  21933268.3524                   21933267.7464
  -2558315.48447  -1973998.49045  21984005.8754                   21984005.1134
 -22472946.31646 -17499240.26343  24282804.4224                   24282806.3714
 -12147528.66848  -9448306.33546  21332423.2814                   21332420.9574
 11  7 24  2 18 30.0000000  0  9G17G10G02G09G25G04G05G27G12
 -55676795.23846 -43344959.64744  23500374.2894                   23500372.0944
 -18190262.82847 -14162195.75446  20989412.2734                   20989410.9184
 -28388755.67247 -22108352.22346  20674514.4064                   20674511.1374
  -9051445.51246  -7040726.56243  24112690.8134                   24112692.4774
  15694781.21947  12262012.06744  23905041.0004                   23905041.8164
 -38299211.92647 -29826355.05645  21934897.8594                   21934897.2304
  -2715244.34847  -2096280.67246  21954143.5164                   21954142.3484
 -22476417.95346 -17501945.53143  24282144.2974                   24282146.1134
 -12266578.34848  -9541072.28846  21309768.5474                   21309766.2664
 11  7 24  2 19  0.0000000  0  9G17G10G02G09G25G04G05G27G12
 -55687189.37146 -43353059.00944  23498395.8914                   23498394.6804
 -18255958.19947 -14213386.92746  20976911.0864                   20976909.5274
 -28454985.68047 -22159960.01046  20661911.6644                   20661907.9804
  -9037388.02346  -7029772.65343  24115365.6024                   24115366.6564
  15529658.16847  12133344.82644  23873618.7344                   23873620.1334
 -38290449.81647 -29819527.42645  21936565.1954                   21936565.4454
  -2871771.84447  -2218250.09146  21924357.1174                   21924356.3524
 -22479799.87546 -17504580.95543  24281500.1804                   24281502.9264
 -12385082.09448  -9633412.84046  21287218.2664                   21287216.3244
 11  7 24  2 19 30.0000000  0  9G17G10G02G09G25G04G05G27G12
 -55697353.32846 -43360978.97744  23496462.2584                   23496460.5984
 -18320951.41847 -14264030.98446  20964543.2274                   20964542.2894
 -28520864.85247 -22211294.40846  20649374.9064                   20649371.8244
  -9023161.43446  -7018687.09443  24118072.7114                   24118073.3094
  15364827.38747  12004905.28844  23842252.6094                   23842254.2624
 -38281493.20347 -29812548.25345  21938270.0784                   21938268.6054
  -3027896.70347  -2339905.76646  21894647.5704                   21894646.9804
 -22483096.28546 -17507149.62643  24280872.9064                   24280875.9414
 -12503039.59448  -9725327.72946  21264771.3834                   21264769.5474
 11  7 24  2 20  0.0000000  0  9G17G10G02G09G25G04G05G27G12
 -55707287.92246 -43368720.20344  23494570.8914                   23494569.9454
 -18385243.96147 -14314129.05446  20952308.6414                   20952307.6804
 -28586395.55548 -22262357.28346  20636905.0474                   20636901.3554
  -9008770.25046  -7007473.21143  24120811.0944                   24120812.8984
  15200290.12147  11876694.44444  23810942.2734                   23810943.5554
 -38272345.27747 -29805419.98845  21940010.2894                   21940009.3324
  -3183617.62147  -2461246.68746  21865015.0084                   21865013.7504
 -22486311.63746 -17509655.15243  24280262.0864                   24280263.9304
 -12620450.07448  -9816816.39646  21242428.6254                   21242426.9304
 11  7 24  2 20 30.0000000  0  9G17G10G02G09G25G04G05G27G12
 -55716995.02046 -43376284.18344  23492723.7194                   23492722.9694
 -18448838.16047 -14363682.95246  20940207.1414                   20940205.7274
 -28651581.41448 -22313151.44646  20624500.6024                   20624497.1844
  -8994220.23447  -6996135.60243  24123580.4224                   24123582.1254
  15036046.78547  11748712.65043  23779687.2734                   23779688.5744
 -38263010.24247 -29798145.94345  21941786.6094                   21941785.7704
  -3338934.30547  -2582272.63845  21835458.6484                   21835457.3524
 -22489450.70745 -17512101.26242  24279663.6724                   24279666.1134
 -12737313.80148  -9907879.01346  21220190.2734                   21220188.6134
 11  7 24  2 21  0.0000000  0  9G17G10G02G09G25G04G05G27G12
 -55726472.96947 -43383669.66544  23490920.7504                   23490919.1764
 -18511732.64548 -14412691.63046  20928238.7584                   20928237.0784
 -28716421.89548 -22363676.47446  20612162.0004                   20612158.6524
  -8979513.30146  -6984675.70143  24126378.7814                   24126379.7704
  14872101.55947  11620963.16044  23748489.0784                   23748491.3714
 -38253488.44147 -29790726.34845  21943599.0004                   21943597.4804
  -3493842.40647  -2702980.20046  21805980.9844                   21805980.3364
 -22492514.75045 -17514488.92642  24279080.3914                   24279082.6054
 -12853627.26248  -9998512.85346  21198056.4924                   21198055.0664
 11  7 24  2 21 30.0000000  0  9G17G10G02G09G25G04G05G27G12
 -55735724.82447 -43390878.92544  23489160.3284                   23489158.8674
 -18573930.92247 -14461157.80546  20916402.7344                   20916401.3954
 -28780922.00048 -22413936.28546  20599887.7344                   20599884.3714
  -8964656.37946  -6973098.94343  24129205.5784                   24129207.7624
  14708453.44147  11493445.21344  23717347.7734                   23717350.2774
 -38243785.46947 -29783165.57945  21945445.1024                   21945444.6454
  -3648342.69547  -2823369.98346  21776580.6334                   21776579.5784
 -22495510.13345 -17516823.05942  24278511.7814                   24278513.1094
 -12969392.24648 -10088719.28946  21176027.3984                   21176025.3404
 11  7 24  2 22  0.0000000  0  9G17G10G02G09G25G04G05G27G12
 -55744750.15647 -43397911.69044  23487443.0084                   23487441.6294
 -18635433.10247 -14509081.57046  20904699.2424                   20904697.7114
 -28845082.26247 -22463931.27646  20587678.3364                   20587674.8984
  -8949652.67646  -6961407.89143  24132061.8054                   24132063.3874
  14545105.24247  11366161.01344  23686263.7664                   23686266.0354
 -38233902.91047 -29775464.88745  21947325.8444                   21947324.7544
  -3802432.17247  -2943439.66346  21747257.8364                   21747256.8134
 -22498439.57846 -17519105.82543  24277954.5474                   24277956.5634
 -13084606.32048 -10178496.47146  21154102.7974                   21154100.9414
 11  7 24  2 22 30.0000000  0  9G17G10G02G09G25G04G05G27G12
 -55753548.75046 -43404767.76944  23485768.5004                   23485766.7854
 -18696239.34848 -14556463.04946  20893128.5314                   20893126.3134
 -28908904.21948 -22513662.64946  20575533.9614                   20575530.3054
  -8934505.64146  -6949605.03543  24134943.9064                   24134946.0204
  14382059.53547  11239112.51344  23655237.2034                   23655238.8794
 -38223842.71547 -29767625.79045  21949240.3444                   21949239.4264
  -3956108.40647  -3063187.32146  21718014.7424                   21718013.5044
 -22501305.53946 -17521339.10743  24277408.6884                   24277411.2734
 -13199268.08648 -10267843.27246  21132282.9064                   21132281.3324
 11  7 24  2 23  0.0000000  0  9G17G10G02G09G25G04G05G27G12
 -55762117.61747 -43411444.81544  23484137.9454                   23484136.5164
 -18756347.45348 -14603300.52346  20881690.2664                   20881688.8134
 -28972386.27048 -22563129.16846  20563453.5084                   20563449.1764
  -8919216.00846  -6937691.13543  24137853.8984                   24137854.6134
  14219321.48047  11112303.80944  23624269.1484                   23624270.7384
 -38213604.21947 -29759647.75545  21951188.6484                   21951187.6214
  -4109366.25847  -3182608.98646  21688850.6254                   21688849.5554
 -22504108.32846 -17523523.17843  24276875.8284                   24276877.5474
 -13313372.98448 -10356756.14146  21110569.8674                   21110567.6024
 11  7 24  2 23 30.0000000  0  9G17G10G02G09G25G04G05G27G12
 -55770461.47747 -43417946.52644  23482549.9304                   23482548.3524
 -18815762.58647 -14649598.00846  20870383.4384                   20870382.6334
 -29035534.61348 -22612335.65546  20551436.5634                   20551432.6724
  -8903792.03946  -6925672.52643  24140788.0164                   24140790.4224
  14056888.80947  10985733.01244  23593359.1254                   23593361.0204
 -38203194.24247 -29751536.09245  21953169.1484                   21953168.3404
  -4262207.67247  -3301706.14846  21659765.3754                   21659764.1994
 -22506855.77046 -17525664.08443  24276352.3674                   24276355.0634
 -13426923.93448 -10445237.37046  21088961.6644                   21088959.8014
 11  7 24  2 24  0.0000000  0  9G17G10G02G09G25G04G05G27G12
 -55778578.19947 -43424271.24644  23481005.5554                   23481003.6134
 -18874483.34048 -14695354.44646  20859209.5084                   20859207.9064
 -29098348.74248 -22661281.70346  20539483.6724                   20539479.9574
  -8888235.50846  -6913550.61843  24143748.9844                   24143750.4454
  13894765.92647  10859403.64944  23562508.4844                   23562510.2304
 -38192612.82447 -29743290.84645  21955182.7034                   21955181.9534
  -4414628.28547  -3420475.40846  21630760.7274                   21630760.0164
 -22509548.64846 -17527762.52343  24275840.2664                   24275843.1844
 -13539917.12548 -10533283.98446  21067459.9774                   21067457.5984
 11  7 24  2 24 30.0000000  0  9G17G10G02G09G25G04G05G27G12
 -55786468.49647 -43430419.53144  23479504.2974                   23479503.0354
 -18932510.59048 -14740570.47346  20848167.4534                   20848165.3954
 -29160830.67648 -22709968.90646  20527593.3834                   20527589.7234
  -8872550.68447  -6901328.71444  24146734.2814                   24146735.5864
  13732954.57047  10733317.02144  23531716.7664                   23531718.5004
 -38181862.56647 -29734914.01845  21957228.5234                   21957227.5944
  -4566626.27047  -3538915.34446  21601836.4694                   21601835.9534
 -22512190.43745 -17529821.16443  24275337.3284                   24275340.0274
 -13652351.27048 -10620894.97446  21046064.3594                   21046062.2074
 11  7 24  2 25  0.0000000  0  9G17G10G02G09G25G04G05G27G12
 -55794131.53147 -43436390.80944  23478045.7734                   23478044.1564
 -18989844.54348 -14785246.27946  20837257.1954                   20837255.6294
 -29222981.24248 -22758397.91546  20515766.8284                   20515763.0434
  -8856740.51246  -6889009.12643  24149742.6804                   24149744.2664
  13571457.65647  10607475.40944  23500984.1414                   23500986.4614
 -38170945.17647 -29726406.94745  21959306.2194                   21959305.8794
  -4718198.84447  -3657023.79146  21572993.0474                   21572992.8594
 -22514783.46545 -17531841.78243  24274843.7034                   24274846.1374
 -13764225.25448 -10708069.47146  21024775.2504                   21024773.4024
 11  7 24  2 25 30.0000000  0  9G17G10G02G09G25G04G05G27G12
 -55801568.09847 -43442185.51144  23476631.5704                   23476629.0704
 -19046486.59048 -14829382.92046  20826478.2664                   20826476.7344
 -29284802.52348 -22806570.33746  20504002.3754                   20503998.9694
  -8840809.19146  -6876595.22743  24152773.9774                   24152775.6174
  13410276.71147  10481880.02644  23470312.3284                   23470314.7854
 -38159863.54747 -29717771.92745  21961415.2034                   21961414.4024
  -4869344.39847  -3774799.51046  21544231.1804                   21544230.3914
 -22517331.79745 -17533827.60242  24274358.2344                   24274361.4064
 -13875537.90248 -10794806.59546  21003593.3364                   21003591.3914
 11  7 24  2 26  0.0000000  0  9G17G10G02G09G25G04G05G27G12
 -55808776.31246 -43447802.31344  23475258.9384                   23475258.5634
 -19102435.63348 -14872979.56346  20815831.4224                   20815829.5594
 -29346294.53948 -22854486.15646  20492300.7274                   20492297.4304
  -8824758.68746  -6864088.39743  24155827.6884                   24155830.0124
  13249415.89147  10356534.07844  23439702.0164                   23439703.0554
 -38148617.89147 -29709009.06745  21963554.3914                   21963553.5314
  -5020058.76647  -3892239.22946  21515551.7274                   21515550.2274
 -22519836.92645 -17535779.73042  24273883.2894                   24273883.8794
 -13986286.00848 -10881103.79146  20982518.6564                   20982516.7624
 11  7 24  2 26 30.0000000  0  9G17G10G02G09G25G04G05G27G12
 -55815761.97347 -43453245.69044  23473930.4694                   23473928.3444
 -19157698.27747 -14916041.35746  20805315.4844                   20805314.0474
 -29407464.03148 -22902150.67446  20480660.8674                   20480657.1374
  -8808597.87946  -6851495.66943  24158903.1334                   24158905.7034
  13088871.94147  10231434.96444  23409150.9224                   23409152.1914
 -38137215.95347 -29700124.46045  21965724.8204                   21965724.0354
  -5170345.06247  -4009345.40646  21486952.6644                   21486951.6604
 -22522307.18746 -17537704.70342  24273413.5314                   24273415.1914
 -14096473.19948 -10966963.91746  20961550.9384                   20961548.9184
 11  7 24  2 27  0.0000000  0  9G17G10G02G09G25G04G05G27G12
 -55822519.97347 -43458511.65944  23472644.1094                   23472642.8364
 -19212269.93748 -14958564.73746  20794931.1174                   20794929.6644
 -29468307.54348 -22949561.18546  20469082.5394                   20469078.6684
  -8792325.60546  -6838816.08243  24161999.5864                   24162001.7624
  12928652.38747  10106588.71744  23378661.6094                   23378664.0634
 -38125654.50047 -29691115.53945  21967924.8834                   21967923.8594
  -5320195.68447  -4126112.08446  21458436.8754                   21458435.7894
 -22524740.32846 -17539600.60143  24272950.1024                   24272951.6094
 -14206092.82047 -11052381.78946  20940690.7974                   20940688.7584
 11  7 24  2 27 30.0000000  0  9G17G10G02G09G25G04G05G27G12
 -55829049.71146 -43463599.75644  23471400.4774                   23471399.6294
 -19266151.01248 -15000549.96445  20784677.2814                   20784675.4264
 -29528826.12948 -22996718.50546  20457566.7734                   20457562.6954
  -8775945.14846  -6826052.13643  24165117.9534                   24165119.4574
  12768759.88747   9981997.25844  23348235.3674                   23348237.2974
 -38113935.49247 -29681983.81845  21970154.8444                   21970153.6214
  -5469608.37947  -4242537.51446  21430004.8134                   21430003.4844
 -22527139.07046 -17541469.81543  24272493.3914                   24272495.4024
 -14315143.44547 -11137356.29046  20919939.4454                   20919937.4694
 11  7 24  2 28  0.0000000  0  9G17G10G02G09G25G04G05G27G12
 -55835353.19146 -43468511.58544  23470201.4844                   23470200.4144
 -19319343.99248 -15041999.02546  20774555.3984                   20774553.4924
 -29589023.07447 -23043625.19346  20446110.8364                   20446107.6484
  -8759462.06646  -6813208.22643  24168254.1724                   24168255.8754
  12609194.79347   9857660.88044  23317871.0084                   23317872.2974
 -38102062.94947 -29672732.50245  21972414.4614                   21972413.4384
  -5618582.64847  -4358621.32046  21401656.0004                   21401654.6454
 -22529508.27046 -17543316.07443  24272042.6484                   24272044.6764
 -14423625.36747 -11221887.64146  20899295.6174                   20899293.7584
 11  7 24  2 28 30.0000000  0  9G17G10G02G09G25G04G05G27G12
 -55841432.47346 -43473248.70244  23469044.6334                   23469043.9614
 -19371851.81247 -15082914.18846  20764563.8364                   20764562.3364
 -29648901.54348 -23090283.71646  20434716.5474                   20434713.2704
  -8742881.49646  -6800288.39443  24171408.8524                   24171410.9184
  12449957.89547   9733580.26644  23287569.9694                   23287570.4964
 -38090040.48447 -29663364.33145  21974701.9224                   21974701.0274
  -5767117.62947  -4474362.81546  21373390.5554                   21373389.9534
 -22531852.46146 -17545142.85143  24271595.8984                   24271599.5744
 -14531538.84047 -11305976.04746  20878760.3594                   20878758.3244
 11  7 24  2 29  0.0000000  0  9G17G10G02G09G25G04G05G27G12
 -54271865.41446 -42250209.40544  23767722.9694                   23767722.0824
 -17848251.50848 -13895693.14546  21054494.4384                   21054493.5084
 -28133039.47348 -21909092.47146  20723175.9064                   20723171.9614
  -7150785.55546  -5559694.19243  24474374.9694                   24474377.7734
  13866478.53147  10837362.64743  23557123.9924                   23557125.1604
 -36502448.77047 -28426279.86445  22276810.5314                   22276809.5784
  -4339784.32047  -3362154.98146  21645002.9844                   21645002.2344
 -20958752.88746 -16319351.01143  24570948.1174                   24570949.9774
 -13063457.28147 -10162016.37546  21158127.0394                   21158125.0004
 11  7 24  2 29 30.0000000  0  9G17G10G02G09G25G04G05G27G12
 -54277494.89546 -42254596.00444  23766651.7814                   23766651.3204
 -17899389.79347 -13935541.12946  21044763.3754                   21044762.2424
 -28192284.53548 -21955257.44546  20711901.4384                   20711897.7704
  -7134019.06646  -5546629.54243  24477566.2114                   24477567.5554
  13707906.10246  10713799.76844  23526948.2734                   23526949.9924
 -36490131.53147 -28416681.99545  22279154.6644                   22279153.1414
  -4487432.75447  -3477205.67346  21616906.7584                   21616905.4344
 -20961055.03946 -16321144.94943  24570509.2814                   24570511.6604
 -13170228.40247 -10245214.64246  21137809.1954                   21137807.0314
 11  7 24  2 30  0.0000000  0  9G17G10G02G09G25G04G05G27G12
 -54282899.86346 -42258807.67244  23765624.1564                   23765623.2464
 -17949845.69148 -13974857.40246  21035162.0554                   21035160.3554
 -28251215.79748 -22001177.88446  20700687.4924                   20700683.5864
  -7117165.87946  -5533497.21843  24480772.8284                   24480775.4494
  13549668.72747  10590497.98044  23496837.2584                   23496838.8914
 -36477670.45747 -28406972.06745  22281525.6024                   22281524.8634
  -4634635.45747  -3591909.02946  21588894.5554                   21588893.6294
 -20963341.22345 -16322926.63342  24570074.2894                   24570077.2114
 -13276427.45747 -10327967.13546  21117600.1334                   21117598.0084
 11  7 24  2 30 30.0000000  0  9G17G10G02G09G25G04G05G27G12
 -54288081.33246 -42262845.22843  23764637.5944                   23764636.2934
 -17999620.73048 -14013643.13046  21025690.1644                   21025688.6844
 -28309835.35248 -22046855.44346  20689532.5554                   20689528.9384
  -7100230.35946  -5520300.76843  24483995.8284                   24483997.8094
  13391768.12147  10467458.61644  23466789.5234                   23466791.0274
 -36465068.40647 -28397152.29445  22283924.2114                   22283922.9774
  -4781390.92247  -3706263.89646  21560967.8594                   21560966.8204
 -20965615.05545 -16324698.57442  24569641.0784                   24569645.1804
 -13382053.39848 -10410273.04846  21097500.2114                   21097498.4574
 11  7 24  2 31  0.0000000  0  9G17G10G02G09G25G04G05G27G12
 -54293037.64846 -42266707.24644  23763695.2814                   23763692.1804
 -18048714.40648 -14051897.91546  21016348.1414                   21016346.5434
 -28368142.88348 -22092289.86446  20678436.8984                   20678433.4144
  -7083214.21946  -5507041.48843  24487232.8364                   24487235.1094
  13234208.29347  10344684.79144  23436807.0554                   23436808.1414
 -36452325.72747 -28387222.92545  22286348.5474                   22286347.7854
  -4927694.83648  -3820266.90046  21533127.2274                   21533126.1214
 -20967877.88746 -16326462.00042  24569211.4774                   24569213.7194
 -13487102.98447 -10492129.85046  21077509.7814                   21077507.8484
 11  7 24  2 31 30.0000000  0  9G17G10G02G09G25G04G05G27G12
 -54297770.14546 -42270394.91743  23762793.2814                   23762791.9654
 -18097128.80548 -14089623.40445  21007135.5944                   21007132.6804
 -28426141.47348 -22137483.54546  20667400.1804                   20667396.3954
  -7066122.19546  -5493723.14043  24490486.2194                   24490488.5744
  13076990.34847  10222177.37544  23406889.4304                   23406890.4774
 -36439445.48447 -28377186.37145  22288800.1484                   22288798.9384
  -5073546.38348  -3933917.39946  21505372.5314                   21505371.4224
 -20970133.96946 -16328220.12543  24568782.5944                   24568784.6954
 -13591576.37147 -10573537.66446  21057629.5164                   21057627.7734
 11  7 24  2 32  0.0000000  0  8G17G10G02G09G25G04G05G12
 -54302279.80146 -42273909.03843  23761936.8754                   23761934.4614
 -18144865.79748 -14126821.03446  20998050.8204                   20998049.0554
 -28483833.41848 -22182438.28546  20656421.7424                   20656418.0594
  -7048959.12146  -5480349.45343  24493753.0234                   24493754.5354
  12920115.53947  10099937.38044  23377037.1094                   23377038.3054
 -36426431.06247 -28367045.27645  22291276.0784                   22291275.5124
  -5218944.59448  -4047214.65846  21477703.8594                   21477702.6604
 -13695473.19947 -10654496.22046  21037858.2734                   21037856.5664
 11  7 24  2 32 30.0000000  0  8G17G10G02G09G25G04G05G12
 -54306560.27746 -42277244.45543  23761122.2194                   23761119.0514
 -18191919.68747 -14163486.38246  20989096.4304                   20989094.7384
 -28541213.55948 -22227150.06946  20645502.6174                   20645498.6764
  -7031721.71546  -5466917.76943  24497032.8364                   24497035.2384
  12763592.87947   9977971.75044  23347251.6724                   23347253.4494
 -36413277.45347 -28356795.70445  22293779.3444                   22293777.9804
  -5363880.18448  -4160151.41846  21450123.5084                   21450122.2544
 -13798785.48447 -10734999.27946  21018198.5234                   21018197.0044
 11  7 24  2 33  0.0000000  0  8G17G10G02G09G25G04G05G12
 -54310604.69946 -42280395.95543  23760352.0634                   23760350.7814
 -18238285.07047 -14199615.23646  20980274.1334                   20980272.1454
 -28598276.50048 -22271614.67146  20634643.8134                   20634639.8594
  -7014406.27046  -5453425.27143  24500327.1804                   24500329.2774
  12607431.48847   9856287.66344  23317534.9304                   23317536.4224
 -36399980.04347 -28346434.07345  22296309.3984                   22296308.7194
  -5508344.48048  -4272720.96046  21422633.6254                   21422631.7974
 -13901505.27048 -10815040.64946  20998651.8674                   20998649.5084
 11  7 24  2 33 30.0000000  0  8G17G10G02G09G25G04G05G12
 -54314408.35246 -42283359.79343  23759628.9304                   23759626.8594
 -18283958.25447 -14235204.70946  20971581.9534                   20971581.3554
 -28655019.03948 -22315829.61946  20623845.9144                   20623842.5004
  -6997011.94946  -5439871.31243  24503637.7584                   24503639.3134
  12451638.40647   9734890.54745  23287888.2974                   23287890.0044
 -36386536.00447 -28335958.19744  22298867.8134                   22298866.6334
  -5652330.57448  -4384917.87646  21395233.2114                   21395232.2074
 -14003626.50848 -10894615.62446  20979218.5314                   20979216.7304
 11  7 24  2 34  0.0000000  0  8G17G10G02G09G25G04G05G12
 -54317973.03946 -42286137.49643  23758949.0164                   23758948.3834
 -18328942.47747 -14270257.34346  20963022.7894                   20963020.9184
 -28711444.65648 -22359797.61546  20613108.8054                   20613104.8554
  -6979544.47745  -5426260.37542  24506961.0634                   24506963.0044
  12296214.04747   9613780.71744  23258312.3984                   23258313.9414
 -36372949.19147 -28325371.08344  22301453.7734                   22301452.2154
  -5795838.16048  -4496741.91846  21367924.5784                   21367923.4654
 -14105149.67648 -10973724.55846  20959899.2974                   20959897.2384
 11  7 24  2 34 30.0000000  0  8G17G10G02G09G25G04G05G12
 -54321300.68746 -42288730.48043  23758316.1334                   23758314.6174
 -18373240.54348 -14304775.28846  20954592.7114                   20954590.9414
 -28767556.36748 -22403521.01146  20602430.9384                   20602426.9264
  -6962008.75846  -5412596.24643  24510298.9534                   24510300.9064
  12141159.11347   9492958.81144  23228805.7504                   23228808.5274
 -36359222.97747 -28314675.31644  22304065.3834                   22304064.6604
  -5938866.63748  -4608192.63046  21340707.3364                   21340706.0904
 -14206075.77347 -11052368.22946  20940693.7424                   20940691.5004
 11  7 24  2 35  0.0000000  0  8G17G10G02G09G25G04G05G12
 -54324394.67246 -42291141.44143  23757728.1414                   23757725.7814
 -18416856.46547 -14338761.70246  20946293.0004                   20946291.2814
 -28823358.86348 -22447003.42846  20591811.9614                   20591808.2304
  -6944411.08646  -5398883.84143  24513648.3444                   24513648.8204
  11986472.98047   9372424.20944  23199370.4304                   23199372.5204
 -36345362.63747 -28303875.07144  22306703.1334                   22306701.9844
  -6081416.72348  -4719270.56546  21313581.2344                   21313579.4024
 -14306406.20348 -11130547.74546  20921601.4614                   20921599.6134
 11  7 24  2 35 30.0000000  0  8G17G10G02G09G25G04G05G12
 -54327259.03546 -42293373.40043  23757182.6724                   23757181.5864
 -18459795.94947 -14372221.01946  20938121.5314                   20938119.4924
 -28878857.86348 -22490249.41046  20581250.9924                   20581247.3134
  -6926759.68046  -5385129.47443  24517007.0164                   24517008.0634
  11832153.44947   9252175.28444  23170003.8284                   23170005.8984
 -36331374.22747 -28292975.00245  22309365.2114                   22309363.5434
  -6223490.99648  -4829977.74746  21286544.7974                   21286544.0944
 -14406144.42247 -11208265.81346  20902621.7974                   20902619.7814
 11  7 24  2 36  0.0000000  0  8G17G10G02G09G25G04G05G12
 -54329893.64546 -42295426.38143  23756681.1414                   23756679.9344
 -18502059.78147 -14405153.84546  20930079.1644                   20930077.1414
 -28934054.23448 -22533259.54746  20570747.5704                   20570743.8324
  -6909057.20746  -5371335.40943  24520375.0864                   24520378.1334
  11678203.38347   9132214.26744  23140708.4144                   23140710.4384
 -36317259.10547 -28281976.16045  22312051.3134                   22312049.3674
  -6365086.62548  -4940311.95746  21259600.5234                   21259599.2034
 -14505288.43447 -11285520.86446  20883755.2734                   20883753.6684
 11  7 24  2 36 30.0000000  0  8G17G10G02G09G25G04G05G12
 -54332294.72346 -42297297.37143  23756225.4454                   23756222.2934
 -18543645.32048 -14437558.14645  20922165.5314                   20922163.9964
 -28988945.90648 -22576032.26346  20560301.7894                   20560298.4144
  -6891303.26646  -5357501.19843  24523753.3834                   24523756.5554
  11524628.99247   9012545.96144  23111484.5704                   23111486.2384
 -36303015.73447 -28270877.46244  22314761.0944                   22314760.3794
  -6506197.87548  -5050268.72146  21232747.5554                   21232746.0784
 -14603833.28547 -11362309.03546  20865002.5864                   20865000.9964
 11  7 24  2 37  0.0000000  0  8G17G10G02G09G25G04G05G12
 -54334468.78546 -42298991.45743  23755810.6644                   23755809.5634
 -18584560.25447 -14469439.89246  20914379.6414                   20914378.0354
 -29043540.66048 -22618573.62446  20549912.7424                   20549909.2154
  -6873507.75046  -5343634.71143  24527140.6414                   24527142.7464
  11371426.21547   8893167.21644  23082330.2894                   23082332.1054
 -36288652.08247 -28259684.97445  22317494.2894                   22317494.3164
  -6646828.71548  -5159851.15546  21205986.4224                   21205985.0164
 -14701784.42648 -11438634.57546  20846363.2424                   20846361.4454
 11  7 24  2 37 30.0000000  0  8G17G10G02G09G25G04G05G12
 -54336416.39146 -42300509.07943  23755440.0234                   23755437.6994
 -18624806.59848 -14500800.66846  20906720.7974                   20906719.2814
 -29097840.40648 -22660885.10246  20539579.8284                   20539576.2344
  -6855674.90645  -5329738.98843  24530534.2424                   24530535.2274
  11218596.91847   8774079.50244  23053247.8984                   23053249.5474
 -36274170.60947 -28248400.71644  22320250.2274                   22320249.7384
  -6786977.67648  -5269058.09746  21179317.1644                   21179315.4344
 -14799141.71148 -11514497.37746  20827836.7894                   20827835.2274
 11  7 24  2 38  0.0000000  0  8G17G10G02G09G25G04G05G12
 -54338139.47346 -42301851.68743  23755113.3914                   23755110.3284
 -18664387.31648 -14531642.77946  20899188.7814                   20899187.3524
 -29151848.21548 -22702969.10246  20529302.2584                   20529298.7894
  -6837809.72745  -5315818.11743  24533933.0634                   24533935.5514
  11066141.50847   8655283.14744  23024236.9454                   23024238.3674
 -36259574.81247 -28237027.34245  22323028.0084                   22323027.2074
  -6926644.41448  -5377889.27546  21152739.2734                   21152737.7114
 -14895905.31647 -11589897.55446  20809423.3284                   20809421.4304
 11  7 24  2 38 30.0000000  0  8G17G10G02G09G25G04G05G12
 -54339637.54746 -42303019.08043  23754827.4454                   23754825.0634
 -18703303.56247 -14561967.11046  20891783.3284                   20891782.3834
 -29205565.42248 -22744826.66646  20519080.3204                   20519076.7074
  -6819914.77745  -5301874.00643  24537338.6804                   24537341.4774
  10914062.91847   8536780.42344  22995297.2424                   22995298.4614
 -36244866.14847 -28225566.03844  22325826.7274                   22325825.7734
  -7065826.62148  -5486342.91046  21126253.5784                   21126252.6254
 -14992073.73447 -11664833.96446  20791123.5164                   20791121.0234
 11  7 24  2 39  0.0000000  0  8G17G10G02G09G25G04G05G12
 -54340911.30146 -42304011.55543  23754583.6644                   23754583.0904
 -18741556.90247 -14591774.88946  20884504.3674                   20884503.0084
 -29258993.75848 -22786459.12946  20508913.2034                   20508909.7664
  -6801994.34855  -5287910.14552  24540748.9384                   24540750.5164
  10762362.95347   8418572.74144  22966429.1884                   22966431.0824
 -36230046.94547 -28214018.60944  22328646.8594                   22328645.6884
  -7204522.67648  -5594417.70946  21099860.9844                   21099860.0594
 -15087646.30948 -11739306.07846  20772936.4774                   20772934.0984
 11  7 24  2 39 30.0000000  0  8G17G10G02G09G25G04G05G12
 -54341962.25446 -42304830.48343  23754384.4304                   23754383.8834
 -18779150.07447 -14621068.26245  20877349.9774                   20877348.5394
 -29312136.07048 -22827868.71946  20498800.7734                   20498796.7624
  -6784053.45346  -5273930.24642  24544163.5864                   24544164.8594
  10611042.54347   8300660.81044  22937634.2814                   22937635.5394
 -36215120.58247 -28202387.69744  22331487.5084                   22331485.8484
  -7342731.85548  -5702113.13046  21073560.1174                   21073559.1724
 -15182623.47348 -11813314.22346  20754862.5554                   20754860.7074
 11  7 24  2 40  0.0000000  0  8G17G10G02G09G25G04G05G12
 -54342790.65246 -42305476.01943  23754226.7734                   23754225.9494
 -18816084.75847 -14649848.51645  20870322.3204                   20870319.9614
 -29364994.03948 -22869056.72546  20488742.2974                   20488738.5864
  -6766095.46146  -5259937.04843  24547580.3204                   24547581.7154
  10460103.88347   8183046.35444  22908911.6414                   22908912.3794
 -36200088.58247 -28190674.43044  22334347.6484                   22334346.5314
  -7480452.35248  -5809427.76046  21047353.1644                   21047351.7424
 -15277004.48848 -11886857.85246  20736902.5234                   20736900.4304
 11  7 24  2 40 30.0000000  0  8G17G10G02G09G25G04G05G12
 -52767975.07046 -41078346.97443  24053904.4384                   24053902.3134
 -17276939.92248 -13450514.86946  21163211.5004                   21163210.0594
 -27842145.80148 -21682421.72946  20778530.8364                   20778526.9924
  -5172702.71546  -4018332.37143  24850793.6644                   24850794.4774
  11884975.74647   9293336.23244  23180055.4304                   23180057.0634
 -34609532.05547 -26951279.69444  22637020.3444                   22637019.7854
  -6042255.74248  -4688755.03446  21321032.5474                   21321031.5664
 -13795363.57048 -10732332.44846  21018849.4384                   21018847.3714
 11  7 24  2 41  0.0000000  0  8G17G10G02G09G25G04G05G12
 -52768352.83646 -41078641.38343  24053832.1484                   24053831.4304
 -17312556.27347 -13478267.86746  21156433.9534                   21156432.7934
 -27894433.20748 -21723165.15546  20768580.6804                   20768577.0634
  -5154714.32446  -4004315.35243  24854216.3364                   24854216.9494
  11734813.62947   9176326.88344  23151480.7504                   23151481.6374
 -34594288.56647 -26939401.64044  22639921.4694                   22639920.3714
  -6178986.35948  -4795298.33446  21295013.8594                   21295012.1604
 -13888543.00048 -10804939.78746  21001117.9614                   21001115.8674
 11  7 24  2 41 30.0000000  0  8G17G10G02G09G25G04G05G12
 -52768508.60546 -41078762.80043  24053802.7034                   24053801.9104
 -17347519.00047 -13505511.56145  21149780.2734                   21149779.3244
 -27946440.71548 -21763690.45246  20758684.0704                   20758680.4304
  -5136719.00446  -3990293.06843  24857640.7274                   24857642.8954
  11585039.91847   9059620.17844  23122979.9844                   23122980.6094
 -34578945.27347 -26927445.80744  22642841.1484                   22642839.9924
  -6315222.20748  -4901456.10046  21269088.8834                   21269087.2934
 -13981123.03548 -10877080.03946  20983500.5084                   20983498.6024
 11  7 24  2 42  0.0000000  0  8G17G10G02G09G25G04G05G12
 -52768438.65246 -41078708.24043  24053816.9774                   24053814.3634
 -17381825.69547 -13532244.02445  21143252.3444                   21143250.6914
 -27998166.07448 -21803995.91446  20748840.8054                   20748837.4104
  -5118716.20745  -3976265.00043  24861066.5314                   24861068.8094
  11435661.01647   8943221.09245  23094553.8054                   23094555.1214
 -34563499.94947 -26915410.48144  22645779.6094                   22645779.5554
  -6450957.65648  -5007223.93746  21243259.2034                   21243258.1294
 -14073099.56248 -10948750.07346  20965998.2814                   20965996.0664
 11  7 24  2 42 30.0000000  0  8G17G10G02G09G25G04G05G12
 -52768145.48846 -41078479.87543  24053872.2114                   24053870.8834
 -17415480.18748 -13558468.30746  21136848.1414                   21136846.4454
 -28049612.84448 -21844084.28446  20739050.9844                   20739047.0944
  -5100711.67246  -3962235.46543  24864492.8594                   24864495.1374
  11286676.68447   8827129.52244  23066202.3284                   23066203.2854
 -34547956.67647 -26903298.87744  22648737.6644                   22648737.1804
  -6586192.94147  -5112602.03446  21217524.8754                   21217523.1174
 -14164473.62148 -11019950.62146  20948610.0084                   20948608.1724
 11  7 24  2 43  0.0000000  0  8G17G10G02G09G25G04G05G12
 -52767630.85545 -41078078.83443  24053969.6564                   24053969.2544
 -17448485.78947 -13584186.95045  21130567.1564                   21130566.0664
 -28100784.35248 -21883958.17546  20729313.2194                   20729309.4774
  -5082710.20345  -3948208.52743  24867917.3054                   24867920.6884
  11138087.62147   8711345.92145  23037927.2504                   23037928.2814
 -34532318.87547 -26891113.55844  22651713.6884                   22651712.6804
  -6720927.91848  -5217590.28946  21191885.3444                   21191884.2504
 -14255246.34448 -11090682.60146  20931336.5864                   20931334.3094
 11  7 24  2 43 30.0000000  0  8G17G10G02G09G25G04G05G12
 -52766894.19945 -41077504.85242  24054110.4844                   24054108.3444
 -17480843.27347 -13609400.57645  21124409.8674                   21124408.3524
 -28151680.90248 -21923617.79546  20719627.6724                   20719624.2074
  -5064714.19145  -3934185.73042  24871341.9384                   24871345.3444
  10989897.09847   8595872.83045  23009727.3364                   23009729.1024
 -34516587.27747 -26878855.20044  22654707.4694                   22654706.6484
  -6855159.66448  -5322186.41846  21166341.9694                   21166340.5474
 -14345415.50848 -11160944.28446  20914178.1644                   20914175.7114
 11  7 24  2 44  0.0000000  0  8G17G10G02G09G25G04G05G12
 -52765935.98845 -41076758.16042  24054291.2274                   24054290.5514
 -17512554.59447 -13634110.67846  21118375.0554                   21118374.0744
 -28202304.31248 -21963064.58446  20709994.9384                   20709990.7544
  -5046727.81245  -3920170.49242  24874765.3674                   24874767.4224
  10842106.89847   8480711.72545  22981603.5084                   22981605.0514
 -34500764.12147 -26866525.44144  22657718.0084                   22657717.0824
  -6988886.39148  -5426389.01946  21140895.1024                   21140893.1174
 -14434981.00448 -11230735.56846  20897134.2034                   20897132.0664
 11  7 24  2 44 30.0000000  0  8G17G10G02G09G25G04G05G12
 -52764759.03945 -41075841.10942  24054517.6644                   24054515.0594
 -17543623.98047 -13658320.59246  21112463.3364                   21112461.4344
 -28252658.79748 -22002301.81346  20700412.4694                   20700408.7934
  -5028756.76246  -3906167.07643  24878185.1724                   24878187.2544
  10694716.90647   8365862.44944  22953555.5004                   22953556.8674
 -34484853.59447 -26854127.61244  22660745.8364                   22660744.7424
  -7122109.05948  -5530198.83446  21115542.9614                   21115541.6294
 -14523944.35548 -11300057.64746  20880204.9924                   20880202.6094
 11  7 24  2 45  0.0000000  0  8G17G10G02G09G25G04G05G12
 -52763358.45754 -41074749.77352  24054781.7974                   24054780.4734
 -17574048.47347 -13682027.95345  21106673.4694                   21106671.0824
 -28302740.85548 -22041326.77646  20690882.3674                   20690878.4574
  -5010799.16046  -3892174.30043  24881603.0394                   24881604.6094
  10547734.09447   8251330.43845  22925586.5314                   22925587.9494
 -34468852.52747 -26841659.24444  22663791.0084                   22663789.8794
  -7254821.04748  -5633610.74546  21090288.7664                   21090287.6684
 -14612299.86748 -11368906.09346  20863391.8524                   20863389.5354
 11  7 24  2 45 30.0000000  0  7G17G10G02G25G04G05G12
 -52761734.69945 -41073484.39842  24055092.6804                   24055089.4924
 -17603829.74247 -13705234.14145  21101006.2114                   21101005.1174
 -28352552.17648 -22080140.77546  20681403.6334                   20681399.5514
  10401160.56647   8137117.34545  22897694.2274                   22897695.5824
 -34452763.07447 -26829122.01944  22666853.2274                   22666851.8134
  -7387020.44548  -5736623.21846  21065132.2504                   21065130.5004
 -14700047.22348 -11437280.65346  20846694.1024                   20846691.9804
 11  7 24  2 46  0.0000000  0  7G17G10G02G25G04G05G12
 -52759886.09855 -41072043.90252  24055443.7344                   24055441.8204
 -17632967.36348 -13727938.77246  21095461.9384                   21095460.1484
 -28402091.97348 -22118743.19946  20671976.2734                   20671972.3324
  10255000.80547   8023226.66945  22869880.7814                   22869882.4654
 -34436584.33647 -26816515.17944  22669931.5164                   22669929.9734
  -7518703.36347  -5839233.25046  21040073.5944                   21040072.2154
 -14787182.93748 -11505178.61546  20830112.6564                   20830109.8634
 11  7 24  2 46 30.0000000  0  7G17G10G02G25G04G05G12
 -52757804.33645 -41070421.75042  24055840.7894                   24055837.3914
 -17661455.24647 -13750137.10345  21090040.8524                   21090039.1994
 -28451353.46948 -22157128.75246  20662601.7584                   20662598.0594
  10109265.32847   7909666.59645  22842148.3754                   22842149.6764
 -34420310.03947 -26803833.89944  22673028.4694                   22673027.2894
  -7649859.51647  -5941432.79546  21015115.3834                   21015114.0204
 -14873698.65647 -11572593.45746  20813649.1724                   20813646.9844
 11  7 24  2 47  0.0000000  0  7G17G10G02G25G04G05G12
 -52755483.10554 -41068612.95752  24056281.8984                   24056280.1134
 -17689288.25447 -13771825.13845  21084743.9144                   21084742.6564
 -28500331.48048 -22195293.40846  20653281.5314                   20653277.8484
   9963963.00447   7796444.03445  22814498.1484                   22814499.0124
 -34403934.99647 -26791074.10244  22676144.3834                   22676143.8914
  -7780480.55547  -6043215.37346  20990258.8444                   20990257.9344
 -14959586.78547 -11639519.24846  20797305.0164                   20797303.0044
 11  7 24  2 47 30.0000000  0  7G17G10G02G25G04G05G12
 -52752922.79715                  24056768.445
 -17716468.50447 -13793004.54645  21079571.6094                   21079570.8204
 -28549027.28948 -22233238.18646  20644015.4304                   20644011.6954
   9819095.93047   7683560.65345  22786930.9144                   22786932.2704
 -34387461.21547 -26778237.36844  22679278.8674                   22679278.0784
  -7910564.91048  -6144579.75246  20965504.6024                   20965503.6884
 -15044846.73848 -11705955.57846  20781080.8364                   20781078.3714
 11  7 24  2 48  0.0000000  0  7G17G10G02G25G04G05G12
 -52750127.852 5                  24057302.000
 -17743002.32847 -13813680.25646  21074522.7734                   21074520.9804
 -28597447.10948 -22270967.89346  20634801.0784                   20634797.2464
   9674661.75847   7571014.57045  22759446.0944                   22759447.3484
 -34370894.73847 -26765328.43744  22682432.3054                   22682429.9304
  -8040115.37548  -6245528.12746  20940852.1884                   20940850.4344
 -15129482.56648 -11771905.56746  20764974.9614                   20764972.9454
 11  7 24  2 48 30.0000000  0  7G17G10G02G25G04G05G12
 -52747098.863 5                  24057876.531
 -17768891.65647 -13833853.74746  21069596.2274                   21069594.0234
 -28645592.49248 -22308483.75846  20625639.5944                   20625635.4144
   9530662.79747   7458807.65145  22732043.9304                   22732045.5394
 -34354237.22347 -26752348.50644  22685601.7504                   22685600.9694
  -8169130.11348  -6346059.03946  20916301.2894                   20916299.6844
 -15213493.45348 -11837368.58046  20748988.5704                   20748985.7774
 11  7 24  2 49  0.0000000  0  7G17G10G02G25G04G05G12
 -52743840.01215                  24058496.031
 -17794142.42647 -13853529.65145  21064791.4454                   21064789.4694
 -28693468.82848 -22345789.98146  20616529.2734                   20616524.8714
   9387097.14547   7346938.34145  22704723.7664                   22704725.5784
 -34337494.40647 -26739302.15744  22688787.6724                   22688787.5314
  -8297611.40648  -6446174.28046  20891852.0554                   20891850.0664
 -15296883.04347 -11902347.46546  20733119.6954                   20733117.6374
 11  7 24  2 49 30.0000000  0  7G17G10G02G25G04G05G12
 -52740348.508 5                  24059162.172
 -17818753.54347 -13872707.12045  21060107.8754                   21060105.6094
 -28741074.64548 -22382885.40646  20607470.0634                   20607465.5784
   9243970.07847   7235410.78745  22677488.3524                   22677488.6294
 -34320664.89147 -26726188.22944  22691990.1334                   22691989.6524
  -8425554.59047  -6545870.22146  20867505.7034                   20867503.7814
 -15379647.86748 -11966839.53446  20717370.5234                   20717367.7504
 11  7 24  2 50  0.0000000  0  7G17G10G02G25G04G05G12
 -52736628.094 6                  24059869.648
 -17842730.17247 -13891390.20045  21055545.5084                   21055543.3014
 -28788414.51648 -22419773.61846  20598461.5474                   20598457.5084
   9101280.36747   7124224.07445  22650335.3134                   22650335.7814
 -34303753.53547 -26713010.50344  22695207.9064                   22695207.0394
  -8552961.26647  -6645148.09746  20843260.7814                   20843258.7304
 -15461790.28548 -12030846.60146  20701738.7814                   20701736.5354
 11  7 24  2 50 30.0000000  0  7G17G10G02G25G04G05G12
 -52732680.453 5                  24060620.117
 -17866075.99647 -13909581.73446  21051102.3984                   21051100.5984
 -28835491.33648 -22456456.83346  20589502.8754                   20589499.1254
   8959028.95747   7013378.85645  22623265.3204                   22623266.3954
 -34286763.37147 -26699771.40444  22698441.9924                   22698440.6054
  -8679831.20347  -6744007.74946  20819118.3364                   20819115.9884
 -15543311.46948 -12094369.59246  20686226.0784                   20686223.8714
 11  7 24  2 51  0.0000000  0  7G17G10G02G25G04G05G12
 -52728503.664 6                  24061416.570
 -17888790.69547 -13927281.50045  21046780.2814                   21046777.9774
 -28882304.43048 -22492934.54946  20580594.6804                   20580590.6764
   8817220.00847   6902878.45845  22596280.3524                   22596281.4734
 -34269693.94147 -26686470.55044  22701689.7814                   22701688.9694
  -8806160.59447  -6842446.18946  20795078.6884                   20795076.7814
 -15624208.60247 -12157406.30346  20670831.6564                   20670829.4144
 11  7 24  2 51 30.0000000  0  7G17G10G02G25G04G05G12
 -52724099.730 6                  24062254.016
 -17910877.39547 -13944491.87845  21042577.1414                   21042575.7774
 -28928856.66848 -22529209.01446  20571736.0084                   20571731.7504
   8675854.28947   6792723.40845  22569378.9694                   22569380.0314
 -34252548.15247 -26673110.16544  22704951.9144                   22704951.4414
  -8931949.35948  -6940463.36746  20771141.4844                   20771139.9144
 -15704482.85547 -12219957.65446  20655556.1334                   20655553.7934
 11  7 24  2 52  0.0000000  0  7G17G10G02G25G04G05G12
 -52719470.32046 -41040551.00452  24063135.1884                   24063132.8794
 -17932340.46547 -13961216.34945  21038492.4614                   21038491.4414
 -28975150.89148 -22565282.41946  20562926.4774                   20562922.6334
   8534932.30947   6682914.12145  22542562.5554                   22542563.3754
 -34235329.28947 -26659692.84244  22708228.3134                   22708227.8554
  -9057197.30548  -7038059.14046  20747307.8674                   20747305.9224
 -15784135.38747 -12282024.55746  20640398.6724                   20640396.2584
 11  7 24  2 52 30.0000000  0  7G17G10G02G25G04G05G12
 -51139192.53146 -39809165.74242  24363851.8134                   24363849.0204
 -16377757.43447 -12749852.93245  21334320.4304                   21334318.3204
 -27445764.12948 -21373552.45646  20853959.1954                   20853955.4344
   9969884.39847   7801058.64945  22815624.8914                   22815625.4574
 -32642616.07047 -25418617.60644  23011312.2664                   23011311.5434
  -7606475.34048  -5907626.39246  21023370.7734                   21023369.3094
 -14287739.33248 -11116001.65046  20925153.4304                   20925150.9184
 11  7 24  2 53  0.0000000  0  7G17G10G02G25G04G05G12
 -51134109.98445 -39805205.24642  24364818.8594                   24364816.8754
 -16397975.56247 -12765607.30645  21330472.5784                   21330471.2424
 -27491544.41448 -21409225.37846  20845247.0554                   20845243.3594
   9829859.62947   7691948.52445  22788978.8284                   22788979.3324
 -32625252.61747 -25405087.62844  23014615.6954                   23014615.0904
  -7730633.77348  -6004373.18646  20999744.0784                   20999742.5554
 -14366143.44948 -11177095.76046  20910233.8754                   20910231.2424
 11  7 24  2 53 30.0000000  0  7G17G10G02G25G04G05G12
 -51128802.54745 -39801069.55942  24365828.6484                   24365826.3324
 -16417575.71947 -12780880.15446  21326743.0234                   21326741.6524
 -27537070.58248 -21444700.30546  20836583.9304                   20836580.0124
   9690285.32847   7583189.36645  22762418.5784                   22762419.2504
 -32607820.45347 -25391504.10744  23017933.4614                   23017931.8594
  -7854246.49647  -6100694.75046  20976221.4064                   20976219.7154
 -14443924.54747 -11237704.39246  20895432.2974                   20895430.0234
 11  7 24  2 54  0.0000000  0  8G17G10G02G29G25G04G05G12
 -51123266.81246 -39796756.10942  24366882.9144                   24366880.3094
 -16436556.03547 -12795670.02545  21323130.6724                   21323129.0124
 -27582340.68047 -21479975.69846  20827969.4064                   20827965.6604
  28141285.05956  21945002.51853  24757310.3364                   24757310.8484
   9551167.45747   7474785.92445  22735945.7894                   22735946.4844
 -32590317.13747 -25377865.16044  23021264.0784                   23021263.0634
  -7977308.23848  -6196586.97346  20952803.5944                   20952801.8364
 -14521078.13347 -11297824.05346  20880750.2114                   20880748.0274
 11  7 24  2 54 30.0000000  0  8G17G10G02G29G25G04G05G12
 -51117514.85246 -39792274.04342  24367977.0864                   24367975.6024
 -16454930.50047 -12809987.79345  21319634.5704                   21319632.1054
 -27627367.45748 -21515061.46446  20819401.1024                   20819397.2194
  27995693.55546  21831554.71942  24729605.2894                   24729605.4844
   9412496.67647   7366730.80545  22709557.1804                   22709558.6604
 -32572755.65247 -25364180.91444  23024606.0004                   23024605.3634
  -8099828.80548  -6292057.50846  20929488.7664                   20929486.5234
 -14597615.26647 -11357463.36546  20866185.9064                   20866183.5394
 11  7 24  2 55  0.0000000  0  8G17G10G02G29G25G04G05G12
 -51111553.43745 -39787628.82442  24369111.7114                   24369108.9344
 -16472708.03147 -12823840.39745  21316251.3444                   21316249.4224
 -27672159.35947 -21549964.23046  20810877.5314                   20810873.6844
  27850065.78946  21718078.67743  24701893.0164                   24701893.4264
   9274268.22747   7259020.37545  22683253.1094                   22683254.3834
 -32555144.77747 -25350458.12344  23027957.6484                   23027956.2704
  -8221813.41448  -6387110.42346  20906275.6334                   20906273.5044
 -14673542.53547 -11416627.46746  20851737.2584                   20851735.0004
 11  7 24  2 55 30.0000000  0  8G17G10G02G29G25G04G05G12
 -51105383.34045 -39782820.89142  24370285.0784                   24370283.5704
 -16489891.08647 -12837229.75545  21312981.6024                   21312980.1804
 -27716717.99648 -21584685.20946  20802398.0164                   20802394.2034
  27704401.59046  21604574.17443  24674173.5784                   24674174.3914
   9136483.87147   7151655.98145  22657033.5864                   22657033.7154
 -32537486.19947 -25336698.14944  23031316.9454                   23031315.9064
  -8343261.18448  -6481745.01546  20883164.7584                   20883163.1414
 -14748860.21547 -11475316.55646  20837404.4144                   20837402.6764
 11  7 24  2 56  0.0000000  0  8G17G10G02G29G25G04G05G12
 -51099001.06645 -39777847.72342  24371498.8754                   24371498.8324
 -16506477.87147 -12850154.48845  21309825.2664                   21309823.4774
 -27761040.56248 -21619222.25046  20793963.8524                   20793959.9104
  27558705.27746  21491044.62643  24646448.7504                   24646449.4574
   8999149.75847   7044642.45845  22630899.6254                   22630901.2424
 -32519777.22346 -25322898.99644  23034687.3754                   23034686.5044
  -8464166.49248  -6575956.90146  20860157.2504                   20860155.6844
 -14823563.96547 -11533527.26346  20823189.2664                   20823187.3094
 11  7 24  2 56 30.0000000  0  8G17G10G02G29G25G04G05G12
 -51092406.95345 -39772709.45342  24372753.2034                   24372753.4064
 -16522470.76647 -12862616.49245  21306782.1414                   21306780.3524
 -27805128.76248 -21653576.67146  20785574.2974                   20785570.2154
  27412976.98046  21377490.19943  24618717.2734                   24618718.6804
   8862267.96547   6937981.35845  22604852.0004                   22604853.2114
 -32502019.43746 -25309061.74944  23038067.1024                   23038065.6684
  -8584527.80148  -6669744.89946  20837253.5554                   20837252.0474
 -14897653.18748 -11591259.10846  20809090.8754                   20809088.3834
 11  7 24  2 57  0.0000000  0  8G17G10G02G29G25G04G05G12
 -51085603.29745 -39767407.89142  24374048.9064                   24374048.2114
 -16537873.88347 -12874618.89946  21303850.7974                   21303849.2344
 -27848985.42247 -21687750.69146  20777228.4924                   20777224.1804
  27267214.98446  21263909.52843  24590980.9384                   24590980.6024
   8725838.69547   6831672.87045  22578889.6724                   22578891.2664
 -32484216.13746 -25295189.03944  23041454.1644                   23041452.9454
  -8704345.56248  -6763109.35746  20814452.9064                   20814451.2584
 -14971130.00447 -11648513.76446  20795108.4924                   20795106.0124
 11  7 24  2 57 30.0000000  0  8G17G10G02G29G25G04G05G12
 -51078583.66046 -39761938.13742  24375384.9614                   24375384.2854
 -16552682.67647 -12886158.22345  21301032.5784                   21301031.2464
 -27892605.55947 -21721740.38946  20768927.6334                   20768923.9654
  27121426.19146  21150308.02243  24563237.1484                   24563237.4224
   8589870.64547   6725723.77045  22553016.8444                   22553017.2704
 -32466362.05946 -25281276.79044  23044851.6334                   23044850.0084
  -8823611.81248  -6856044.05246  20791757.2034                   20791755.6644
 -15043987.54747 -11705285.87546  20781244.2034                   20781241.6024
 11  7 24  2 58  0.0000000  0  8G17G10G02G29G25G04G05G12
 -51071351.95345 -39756303.10542  24376760.8914                   24376760.5044
 -16566902.76247 -12897238.77245  21298326.6644                   21298325.0904
 -27935994.07047 -21755549.61446  20760670.8524                   20760667.4774
  26975607.61746  21036683.26143  24535488.8284                   24535490.1094
   8454362.42647   6620132.98145  22527229.8134                   22527230.2114
 -32448462.23446 -25267328.85544  23048258.4924                   23048257.2424
  -8942328.62548  -6948550.62846  20769166.0084                   20769165.0784
 -15116228.89847 -11761577.82646  20767497.0944                   20767494.7034
 11  7 24  2 58 30.0000000  0  8G17G10G02G29G25G04G05G12
 -51063902.58245 -39750498.24642  24378178.5234                   24378175.9654
 -16580530.42247 -12907857.70845  21295733.3134                   21295731.9734
 -27979146.43048 -21789174.81546  20752459.9694                   20752455.7934
  26829765.19146  20923039.93743  24507735.8914                   24507736.8634
   8319322.11747   6514906.81745  22501532.4224                   22501533.6294
 -32430512.06646 -25253341.75444  23051673.6804                   23051673.2114
  -9060488.61748  -7040623.30746  20746680.5944                   20746679.6684
 -15187847.83647 -11817384.78446  20753868.6254                   20753866.0704
 11  7 24  2 59  0.0000000  0  8G17G10G02G29G25G04G05G12
 -51056239.58646 -39744527.15642  24379638.1564                   24379634.1214
 -16593571.99247 -12918019.93945  21293251.3914                   21293250.1054
 -28022067.96147 -21822620.15546  20744292.0864                   20744288.1024
  26683895.73046  20809375.55343  24479977.7814                   24479977.1954
   8184748.06647   6410043.94945  22475924.0554                   22475925.0234
 -32412516.46946 -25239319.20944  23055098.2814                   23055096.9734
  -9178094.13748  -7132263.92246  20724300.9774                   20724299.8324
 -15258848.22347 -11872709.75546  20740357.3834                   20740354.9694
 11  7 24  2 59 30.0000000  0  8G17G10G02G29G25G04G05G12
 -51048361.109 5                  24381136.055
 -16606027.66847 -12927725.65945  21290881.6254                   21290880.1024
 -28064756.85548 -21855884.22046  20736168.1414                   20736164.4494
  26538002.10246  20695692.34543  24452215.2734                   24452215.2854
   8050644.63747   6305547.82645  22450404.7814                   22450405.7974
 -32394474.74646 -25225260.73544  23058531.6094                   23058531.0784
  -9295141.09448  -7223469.29946  20702027.6804                   20702026.4264
 -15329227.36748 -11927550.61946  20726964.7584                   20726962.5744
 11  7 24  3  0  0.0000000  0  8G17G10G02G29G25G04G05G12
 -51040267.547 5                  24382676.594
 -16617899.77347 -12936976.63245  21288622.5784                   21288620.5274
 -28107214.94547 -21888968.44146  20728089.3204                   20728085.0984
  26392083.51246  20581989.71943  24424447.8284                   24424448.2894
   7917013.75447   6201419.89645  22424975.8834                   22424976.5514
 -32376388.26646 -25211167.36344  23061973.3914                   23061972.3164
  -9411628.69548  -7314238.83146  20679861.0784                   20679859.3164
 -15398985.41447 -11981907.53646  20713690.1884                   20713687.8594
 11  7 24  3  0 30.0000000  0  8G17G10G02G29G25G04G05G12
 -51031958.449 5                  24384258.031
 -16629189.45747 -12945773.77645  21286474.0004                   21286472.7154
 -28149442.55947 -21921873.06246  20720053.4224                   20720049.3404
  26246141.98046  20468269.21143  24396676.2194                   24396675.4024
   7783858.44147   6097662.57145  22399636.8984                   22399637.7274
 -32358257.45746 -25197039.44544  23065424.1884                   23065422.9654
  -9527554.66448  -7404570.72046  20657801.2424                   20657799.3524
 -15468121.38748 -12035779.71546  20700533.8594                   20700531.6524
 11  7 24  3  1  0.0000000  0  8G17G10G02G29G25G04G05G12
 -51023433.508 5                  24385880.156
 -16639898.54347 -12954118.50845  21284436.1414                   21284434.3404
 -28191440.67247 -21954598.85946  20712061.0634                   20712057.4454
  26100178.27046  20354531.36143  24368900.1724                   24368900.1604
   7651181.37947   5994277.87245  22374389.7344                   22374389.9924
 -32340083.18746 -25182877.70044  23068882.0314                   23068881.5274
  -9642917.13348  -7494463.50846  20635848.2424                   20635846.6644
 -15536634.27048 -12089166.37546  20687496.4924                   20687494.1724
 11  7 24  3  1 30.0000000  0  8G17G10G02G29G25G04G05G12
 -51014691.746 5                  24387542.977
 -16650027.84447 -12962011.45445  21282508.1724                   21282506.3754
 -28233208.92647 -21987145.55646  20704112.7664                   20704109.1844
  25954193.80546  20240777.38143  24341119.1564                   24341119.3244
   7518986.02747   5891268.53545  22349234.2274                   22349233.9654
 -32321865.22747 -25168681.87444  23072348.9224                   23072347.6414
  -9757713.24248  -7583914.98846  20614002.7424                   20614001.4534
 -15604522.94548 -12142066.62546  20674577.7344                   20674574.7384
 11  7 24  3  2  0.0000000  0  8G17G10G02G29G25G04G05G12
 -51005731.426 5                  24389247.758
 -16659578.02347 -12969453.13845  21280691.3674                   21280689.5474
 -28274746.81648 -22019512.73646  20696208.5394                   20696204.8674
  25808191.52746  20127009.51943  24313336.2584                   24313335.6054
   7387276.30147   5788637.61745  22324169.8524                   22324171.5824
 -32303602.79747 -25154451.40044  23075824.1334                   23075823.3914
  -9871939.71548  -7672922.59746  20592266.6564                   20592264.9774
 -15671785.13747 -12194478.70746  20661778.1954                   20661776.0744
 11  7 24  3  2 30.0000000  0  8G17G10G02G29G25G04G05G12
 -50996552.492 5                  24390995.156
 -16668551.02047 -12976445.06745  21278983.8594                   21278981.7624
 -28316055.20348 -22051701.11046  20688348.0784                   20688343.6994
  25662171.85545  20013228.11742  24285549.5634                   24285548.8134
   7256054.64547   5686387.01345  22299199.5864                   22299200.1054
 -32285296.84446 -25140187.04544  23079308.2664                   23079306.7584
  -9985594.82848  -7761485.00546  20570638.7584                   20570637.0434
 -15738420.69947 -12246402.51246  20649098.0554                   20649095.4734
 11  7 24  3  3  0.0000000  0  8G17G10G02G29G25G04G05G12
 -50987160.402 5                  24392782.211
 -16676954.32447 -12982993.08245  21277384.6024                   21277383.0784
 -28357140.03148 -22083715.25146  20680529.8284                   20680525.9884
  25516130.82046  19899430.03243  24257758.6954                   24257758.8594
   7125318.41447   5584514.63545  22274321.3444                   22274321.7704
 -32266953.34846 -25125893.40444  23082798.1174                   23082797.5744
 -10098681.95348  -7849604.80446  20549119.0554                   20549117.5274
 -15804434.57048 -12297841.88146  20636535.5164                   20636533.3164
 11  7 24  3  3 30.0000000  0  7G10G02G29G25G04G05G12
 -16684787.71547 -12989097.01745  21275893.7274                   21275891.6684
 -28398000.11348 -22115554.26646  20672754.5864                   20672750.5514
  25370070.71146  19785617.13743  24229963.8134                   24229963.8634
   6995071.78147   5483023.78445  22249535.6254                   22249536.9574
 -32248571.57846 -25111569.94644  23086296.0554                   23086294.9924
 -10211197.78148  -7937279.44946  20527707.8524                   20527706.4344
 -15869824.43747 -12348795.01646  20624092.2664                   20624090.0634
 11  7 24  3  4  0.0000000  0  7G10G02G29G25G04G05G12
 -16692055.22347 -12994759.99945  21274511.1414                   21274509.1844
 -28438638.25447 -22147220.34246  20665021.4304                   20665017.3714
  25223990.56346  19671788.56543  24202165.9384                   24202165.3834
   6865315.48047   5381915.01345  22224844.0084                   22224845.0084
 -32230153.85946 -25097218.43544  23089800.6884                   23089798.7154
 -10323142.54748  -8024509.09746  20506405.7734                   20506403.8324
 -15934591.55147 -12399262.89446  20611767.3204                   20611765.4774
 11  7 24  3  4 30.0000000  0  7G10G02G29G25G04G05G12
 -15123329.09447 -11772375.98745  21573029.9224                   21573028.1994
 -26903624.85547 -20951105.97446  20957124.5784                   20957120.7584
  26653325.59046  20785556.27343  24474159.9224                   24474158.2584
   8311485.38747   6508800.69645  22500041.0164                   22500042.9024
 -30636272.37546 -23855232.88644  23393106.2664                   23393105.6254
  -8859081.64148  -6883682.38646  20785007.0314                   20785004.8594
 -14423303.97347 -11221636.20346  20899355.8134                   20899353.6094
 11  7 24  3  5  0.0000000  0  7G10G02G29G25G04G05G12
 -15129444.55547 -11777141.27345  21571865.8914                   21571864.2194
 -26943795.52348 -20982407.77546  20949479.9774                   20949476.3244
  26507234.33246  20671718.93043  24446358.7194                   24446358.3244
   8182743.07447   6408482.05145  22475542.7814                   22475542.6334
 -30617759.13746 -23840806.96043  23396629.1724                   23396627.8554
  -8969853.10248  -6969997.77746  20763927.8134                   20763926.3094
 -14486797.94947 -11271112.00646  20887273.3594                   20887271.2974
 11  7 24  3  5 30.0000000  0  7G10G02G29G25G04G05G12
 -15134983.45347 -11781457.28245  21570811.7894                   21570810.0234
 -26983730.21147 -21013525.70746  20941881.0634                   20941877.4574
  26361142.36346  20557881.19443  24418558.4384                   24418558.8094
   8054514.85947   6308563.98845  22451141.5004                   22451141.9304
 -30599195.64846 -23826341.87844  23400161.7504                   23400160.5664
  -9080031.88348  -7055851.33246  20742961.7664                   20742959.8914
 -14549652.22347 -11320089.35846  20875312.6884                   20875310.3094
 11  7 24  3  6  0.0000000  0  7G10G02G29G25G04G05G12
 -15139949.83247 -11785327.17545  21569866.8834                   21569864.9924
 -27023431.68448 -21044461.91246  20934326.4304                   20934322.3404
  26215048.45746  20444041.80143  24390757.8054                   24390757.8164
   7926801.04747   6209046.76945  22426837.5234                   22426838.4534
 -30580585.00846 -23811840.07143  23403702.9844                   23403702.0904
  -9189618.71548  -7141243.65346  20722107.8594                   20722106.1454
 -14611868.10248 -11368569.25346  20863473.4774                   20863471.3754
 11  7 24  3  6 30.0000000  0  7G10G02G29G25G04G05G12
 -15144349.74647 -11788755.67445  21569029.1094                   21569027.4694
 -27062904.61348 -21075220.03946  20926815.0474                   20926810.7894
  26068950.01247  20330198.93744  24362956.3594                   24362956.0314
   7799600.30947   6109929.34345  22402632.3674                   22402633.3164
 -30561931.68046 -23797304.98744  23407253.0394                   23407252.3404
  -9298615.44548  -7226176.13746  20701366.5944                   20701364.7194
 -14673448.87948 -11416554.25546  20851755.2344                   20851752.9574
 11  7 24  3  7  0.0000000  0  7G10G02G29G25G04G05G12
 -15148184.19947 -11791743.52745  21568299.9224                   21568298.2344
 -27102148.81648 -21105799.93846  20919346.5314                   20919342.9344
  25922848.50847  20216353.71544  24335154.0314                   24335154.6884
   7672915.84847   6011214.21345  22378525.2664                   22378526.1804
 -30543235.48446 -23782736.56544  23410810.4144                   23410810.5394
  -9407019.89848  -7310647.12146  20680737.9614                   20680736.0904
 -14734393.41048 -11464043.49946  20840157.7974                   20840155.5004
 11  7 24  3  7 30.0000000  0  7G10G02G29G25G04G05G12
 -15151458.41447 -11794294.87345  21567676.9224                   21567675.3164
 -27141167.91048 -21136204.42846  20911921.6174                   20911917.6604
  25776742.18446  20102504.72344  24307350.4224                   24307350.7854
   7546747.10247   5912900.93645  22354516.1724                   22354516.7464
 -30524499.87546 -23768137.37644  23414376.3054                   23414375.6024
  -9514833.69548  -7394657.85746  20660221.6804                   20660219.4024
 -14794704.81648 -11511039.39246  20828680.8754                   20828678.0514
 11  7 24  3  8  0.0000000  0  7G10G02G29G25G04G05G12
 -15154175.50847 -11796412.08245  21567159.6724                   21567158.0164
 -27179963.90248 -21166435.04546  20904538.9924                   20904535.0824
  25630630.60546  19988651.64244  24279546.8444                   24279547.1524
   7421095.31647   5814990.48945  22330604.9614                   22330606.4384
 -30505727.03947 -23753509.12044  23417948.2274                   23417947.7074
  -9622056.42648  -7478207.99646  20639817.4694                   20639816.3204
 -14854383.83648 -11557542.51346  20817324.2974                   20817321.7544
 11  7 24  3  8 30.0000000  0  7G10G02G29G25G04G05G12
 -15156342.68047 -11798100.77545  21566747.0234                   21566745.3984
 -27218542.35248 -21196496.16446  20897197.6254                   20897193.9344
  25484510.04746  19874791.59444  24251741.1644                   24251740.8674
   7295957.93047   5717480.85545  22306792.3284                   22306792.9804
 -30486922.42647 -23738856.15244  23421526.9224                   23421525.8524
  -9728691.04748  -7561299.88146  20619525.4454                   20619523.9024
 -14913434.85948 -11603556.28846  20806087.2424                   20806085.0634
 11  7 24  3  9  0.0000000  0  7G10G02G29G25G04G05G12
 -15157960.49647 -11799361.40145  21566439.5314                   21566437.5434
 -27256902.68748 -21226387.32746  20889897.8444                   20889894.3444
  25338382.98446  19760926.53643  24223933.4534                   24223933.3794
   7171338.77347   5620375.02845  22283078.2734                   22283078.9304
 -30468085.17647 -23724177.76644  23425111.1254                   23425110.8014
  -9834734.72748  -7643931.28746  20599346.4064                   20599344.3674
 -14971856.80948 -11649079.87646  20794970.0004                   20794967.6884
 11  7 24  3  9 30.0000000  0  7G10G02G29G25G04G05G12
 -15159034.31647 -11800198.13745  21566235.0634                   21566233.0984
 -27295049.21148 -21256111.88946  20882639.0864                   20882635.7234
  25192246.90645  19647054.43243  24196124.0394                   24196124.7154
   7047236.59447   5523672.07045  22259462.3594                   22259463.1604
 -30449219.53147 -23709477.23644  23428701.3914                   23428700.7544
  -9940189.72348  -7726103.97846  20579278.7814                   20579276.9344
 -15029652.81248 -11694115.70346  20783971.5084                   20783969.4964
 11  7 24  3 10  0.0000000  0  7G10G02G29G25G04G05G12
 -15159561.24247 -11800608.72245  21566134.5164                   21566133.2664
 -27332976.75448 -21285665.82146  20875421.8134                   20875417.7664
  25046108.22745  19533180.15043  24168315.0314                   24168315.3094
   6923659.27347   5427378.07345  22235946.7734                   22235946.9734
 -30430320.44947 -23694750.70344  23432296.8054                   23432296.7894
 -10045049.09848  -7807812.55546  20559324.6484                   20559323.0594
 -15086817.30948 -11738659.46046  20773093.6094                   20773091.3914
 11  7 24  3 10 30.0000000  0  7G10G02G29G25G04G05G12
 -15159549.47347 -11800599.54445  21566137.2894                   21566135.8834
 -27370692.71148 -21315054.85846  20868244.6094                   20868240.2194
  24899961.59846  19419299.89143  24140504.8674                   24140503.6454
   6800602.66447   5331489.83345  22212529.5004                   22212529.8554
 -30411395.17647 -23680003.72943  23435899.2274                   23435898.4024
 -10149317.88748  -7889060.91846  20539482.8364                   20539481.2344
 -15143356.91448 -11782716.28446  20762334.4304                   20762332.2074
 11  7 24  3 11  0.0000000  0  7G10G02G29G25G04G05G12
 -15159001.70747 -11800172.72145  21566240.9384                   21566239.6644
 -27408197.91848 -21344279.68346  20861107.4144                   20861103.6454
  24753807.90246  19305414.00843  24112692.1094                   24112690.8284
   6678068.82047   5236008.93845  22189211.6024                   22189212.9264
 -30392444.64147 -23665237.01843  23439505.3444                   23439504.5594
 -10252994.87548  -7969848.13246  20519754.2114                   20519752.0594
 -15199271.09848 -11826285.76046  20751694.5554                   20751691.9344
 11  7 24  3 11 30.0000000  0  7G10G02G29G25G04G05G12
 -15157919.94947 -11799329.77545  21566447.1174                   21566444.8554
 -27445492.91448 -21373340.71446  20854010.2504                   20854006.9304
  24607648.33246  19191523.59543  24084879.1724                   24084878.1524
   6556060.37947   5140937.43745  22165994.4304                   22165995.3284
 -30373469.17246 -23650450.96343  23443116.2034                   23443115.3284
 -10356078.46948  -8050172.98046  20500137.7274                   20500135.6564
 -15254560.28148 -11869368.24646  20741173.3594                   20741170.8554
 11  7 24  3 12  0.0000000  0  7G10G02G29G25G04G05G12
 -15156309.10247 -11798074.54745  21566753.6334                   21566751.8524
 -27482581.17248 -21402240.62546  20846952.9304                   20846949.3674
  24461480.75446  19077626.87343  24057063.5004                   24057062.4844
   6434576.66447   5046274.86145  22142876.6024                   22142877.2274
 -30354471.86746 -23635647.82744  23446730.7034                   23446729.8914
 -10458570.07448  -8130036.51646  20480634.0164                   20480632.1454
 -15309226.91048 -11911965.60146  20730770.6724                   20730768.1094
 11  7 24  3 12 30.0000000  0  7G10G02G29G25G04G05G12
 -15154169.01247 -11796406.92645  21567160.6334                   21567158.7344
 -27519460.85248 -21430978.02746  20839934.7734                   20839930.4964
  24315309.35946  18963727.07343  24029248.6174                   24029246.5204
   6313622.60947   4952024.97845  22119859.8984                   22119860.6254
 -30335450.83646 -23620826.24343  23450351.1174                   23450349.2814
 -10560465.87148  -8209435.79446  20461243.7734                   20461242.1094
 -15363268.43448 -11954075.86946  20720486.4064                   20720484.4964
 11  7 24  3 13  0.0000000  0  7G10G02G29G25G04G05G12
 -15151502.74647 -11794329.32545  21567668.0944                   21567666.2854
 -27556133.45748 -21459554.07146  20832956.1254                   20832952.0164
  24169134.25046  18849824.53343  24001431.6644                   24001429.9734
   6193199.28147   4858188.61645  22096943.9534                   22096944.6024
 -30316407.94146 -23605987.59143  23453974.4844                   23453973.2234
 -10661765.62148  -8288370.62146  20441967.2664                   20441965.2034
 -15416685.90648 -11995699.87546  20710321.2194                   20710319.4574
 11  7 24  3 13 30.0000000  0  7G10G02G29G25G04G05G12
 -15148314.77047 -11791845.18445  21568274.7974                   21568272.9494
 -27592602.30948 -21487971.34246  20826016.3054                   20826012.0664
  24022954.12946  18735918.09243  23973615.0394                   23973612.4414
   6073306.71947   4764765.89045  22074129.6954                   22074129.5044
 -30297345.79746 -23591133.94843  23457601.5704                   23457599.6024
 -10762470.27048  -8366841.72846  20422804.0234                   20422802.1684
 -15469481.87548 -12036839.58346  20700275.1254                   20700272.5664
 11  7 24  3 14  0.0000000  0  7G10G02G29G25G04G05G12
 -15144605.17247 -11788954.57645  21568980.7664                   21568979.2544
 -27628866.23448 -21516228.94446  20819115.8054                   20819112.1914
  23876771.83246  18622009.99143  23945797.4694                   23945795.5004
   5953948.96947   4671759.84945  22051416.3524                   22051416.7664
 -30278263.34846 -23576264.49843  23461232.8914                   23461231.4414
 -10862576.45348  -8444846.50846  20403754.1804                   20403752.1954
 -15521654.44148 -12077493.51546  20690346.5234                   20690344.2384
 11  7 24  3 14 30.0000000  0  7G10G02G29G25G04G05G12
 -15140375.96947 -11785659.09545  21569785.4774                   21569783.5984
 -27664925.17248 -21544326.80946  20812253.8834                   20812249.9804
  23730589.12146  18508101.50243  23917979.2974                   23917979.0824
   5835128.82848   4579172.79045  22028805.6024                   22028806.3594
 -30259160.21146 -23561378.89243  23464868.3754                   23464867.0204
 -10962082.70748  -8522383.81246  20384818.8754                   20384817.2034
 -15573202.88748 -12117661.13846  20680537.5394                   20680535.4384
 11  7 24  3 15  0.0000000  0  7G10G02G29G25G04G05G12
 -15135630.23847 -11781961.08245  21570688.5474                   21570686.7114
 -27700780.63348 -21572266.11446  20805430.7734                   20805426.7194
  23584406.07446  18394192.74144  23890162.2194                   23890161.4184
   5716847.51247   4487005.55345  22006297.6724                   22006298.4844
 -30240038.20747 -23546478.57443  23468507.5864                   23468505.7154
 -11060988.64148  -8599453.33146  20365997.4774                   20365995.6054
 -15624128.74648 -12157343.63446  20670846.6254                   20670844.0984
 11  7 24  3 15 30.0000000  0  7G10G02G29G25G04G05G12
 -15130372.64147 -11777864.25345  21571689.0084                   21571687.2034
 -27736435.42648 -21600049.04546  20798645.2974                   20798641.7894
  23438221.62546  18280282.86343  23862343.8054                   23862343.0554
   5599104.94147   4395258.14145  21983891.8834                   21983892.5984
 -30220899.92646 -23531565.63743  23472148.5864                   23472147.6094
 -11159295.53548  -8676056.06746  20347290.4224                   20347287.8984
 -15674434.21948 -12196542.69046  20661273.8364                   20661271.2774
 11  7 24  3 16  0.0000000  0  7G10G02G29G25G04G05G12
 -15124609.19547 -11773373.24645  21572785.7034                   21572784.2934
 -27771894.10948 -21627679.18046  20791898.3134                   20791894.2154
  23292033.40246  18166370.08843  23834524.8204                   23834524.1484
   5481899.62148   4303929.35445  21961588.3834                   21961588.9344
 -30201749.36747 -23516643.09644  23475793.4534                   23475792.0314
 -11257005.74648  -8752193.86446  20328696.6174                   20328694.7544
 -15724123.06248 -12235261.27046  20651818.3134                   20651816.2034
 11  7 24  3 16 30.0000000  0  7G10G02G29G25G04G05G12
 -15118338.91447 -11768487.28845  21573978.6564                   21573977.2734
 -27807153.84447 -21655154.27246  20785188.3674                   20785184.6724
  23145845.53146  18052457.58943  23806706.4924                   23806705.3914
   5365236.86747   4213023.36545  21939388.0474                   21939389.0394
 -30182584.14147 -23501709.06143  23479440.5084                   23479438.8204
 -11354114.70347  -8827863.16346  20310217.2584                   20310215.9344
 -15773192.53548 -12273497.21546  20642480.7504                   20642478.3554
 11  7 24  3 17  0.0000000  0  7G10G02G29G25G04G05G12
 -13536144.16047 -10535608.26845  21875060.4384                   21875058.8404
 -26266794.30147 -20454874.08246  21078309.2424                   21078305.0354
  24575084.28146  19166150.20144  24078680.3834                   24078679.8554
   6824542.58648   5350144.74945  22217084.6724                   22217085.2154
 -28587985.13747 -22259164.37944  23782882.1174                   23782880.5554
  -9875198.16047  -7675460.62546  20591645.6024                   20591643.9304
 -14246220.63748 -11083648.97746  20933053.5634                   20933051.6294
 11  7 24  3 17 30.0000000  0  7G10G02G29G25G04G05G12
 -13528869.23847 -10529939.48945  21876444.6954                   21876443.1094
 -26301660.19547 -20482042.31046  21071674.5314                   21071670.3984
  24428899.10946  19052239.78943  24050862.3284                   24050862.2814
   6708969.22747   5260087.64545  22195091.8134                   22195091.5984
 -28568793.62146 -22244209.92543  23786534.6024                   23786533.1764
  -9971103.73848  -7750192.22546  20573395.5704                   20573393.5124
 -14294053.60548 -11120921.40946  20923951.4614                   20923949.2624
 11  7 24  3 18  0.0000000  0  7G10G02G29G25G04G05G12
 -13521096.92647 -10523883.13845  21877924.2504                   21877922.4654
 -26336331.84847 -20509059.17746  21065076.5704                   21065072.4774
  24282715.45746  18938330.59844  24023044.7734                   24023044.0394
   6593942.24648   5170456.26045  22173202.9064                   22173204.0204
 -28549591.20746 -22229246.93143  23790188.3054                   23790186.7504
 -10066407.45747  -7824454.84946  20555259.9774                   20555258.0904
 -14341270.50848 -11157713.81046  20914966.2424                   20914964.6804
 11  7 24  3 18 30.0000000  0  7G10G02G29G25G04G05G12
 -13512826.97747 -10517439.00045  21879497.2734                   21879496.1134
 -26370807.10948 -20535922.99846  21058515.9384                   21058512.6844
  24136536.92246  18824425.37344  23995226.9774                   23995227.9654
   6479466.07448   5081254.10645  22151418.5554                   22151419.0634
 -28530375.96947 -22214273.99343  23793845.0784                   23793843.3134
 -10161105.59448  -7898245.59146  20537239.6954                   20537237.6524
 -14387868.94548 -11194024.27346  20906098.9694                   20906096.5274
 11  7 24  3 19  0.0000000  0  7G10G02G29G25G04G05G12
 -13504062.26247 -10510609.33545  21881165.1954                   21881164.1844
 -26405087.31648 -20562634.83346  21051992.6254                   21051989.2034
  23990364.27346  18710524.70743  23967412.1564                   23967412.0554
   6365542.44148   4992482.49345  22129739.8364                   22129740.3874
 -28511148.73447 -22199291.74543  23797503.4774                   23797501.8364
 -10255197.84848  -7971564.21546  20519334.2584                   20519332.4614
 -14433850.00448 -11229853.66346  20897349.3984                   20897347.1764
 11  7 24  3 19 30.0000000  0  7G10G02G29G25G04G05G12
 -13494808.16447 -10503398.36545  21882926.9454                   21882925.1484
 -26439175.56247 -20589197.10246  21045506.1484                   21045501.9344
  23844195.98446  18596627.47044  23939597.2034                   23939596.7544
   6252170.50848   4904140.77845  22108165.8284                   22108166.9224
 -28491912.71947 -22184302.56643  23801164.0554                   23801162.6484
 -10348685.81647  -8044411.96646  20501544.2274                   20501542.4534
 -14479216.32048 -11265204.05846  20888716.4304                   20888713.7854
 11  7 24  3 20  0.0000000  0  7G10G02G29G25G04G05G12
 -13485068.08647 -10495808.71145  21884780.1334                   21884777.8094
 -26473073.41847 -20615611.00846  21039055.8674                   21039051.5944
  23698032.62547  18482733.93744  23911783.9224                   23911782.8364
   6139351.36348   4816229.79445  22086696.7814                   22086697.3674
 -28472669.21947 -22169307.55143  23804825.4924                   23804824.8794
 -10441569.61747  -8116788.94646  20483868.9534                   20483867.1374
 -14523969.58248 -11300076.72646  20880199.8594                   20880197.4964
 11  7 24  3 20 30.0000000  0  7G10G02G29G25G04G05G12
 -13474842.55547 -10487840.73645  21886726.1334                   21886723.1914
 -26506779.97347 -20641875.82846  21032641.1414                   21032637.0904
  23551876.75047  18368846.33744  23883970.9224                   23883970.0084
   6027088.48848   4728752.25545  22065334.0784                   22065334.8714
 -28453417.29747 -22154306.05443  23808490.2664                   23808488.7384
 -10533847.12947  -8188693.47346  20466309.3914                   20466306.9184
 -14568108.06648 -11334470.35046  20871800.9224                   20871798.5084
 11  7 24  3 21  0.0000000  0  7G10G02G29G25G04G05G12
 -13464138.60547 -10479499.99145  21888763.0084                   21888760.8364
 -26540300.67647 -20667995.85446  21026262.7664                   21026258.6294
  23405724.70347  18254961.68844  23856159.2504                   23856158.3984
   5915379.02348   4641705.96345  22044076.2664                   22044076.2854
 -28434162.13347 -22139301.95243  23812153.8524                   23812152.5664
 -10625521.62947  -8260128.13446  20448863.6484                   20448862.1054
 -14611637.98448 -11368389.76446  20863516.8054                   20863514.8834
 11  7 24  3 21 30.0000000  0  7G10G02G29G25G04G05G12
 -13452956.12147 -10470786.34645  21890890.6334                   21890888.8954
 -26573633.28548 -20693969.31946  21019919.6174                   21019916.3284
  23259580.65247  18141083.26044  23828348.6564                   23828346.9884
   5804227.64148   4555094.52045  22022924.8674                   22022926.2034
 -28414901.37946 -22124293.62043  23815819.2664                   23815817.3204
 -10716589.60548  -8331090.18846  20431534.0944                   20431532.2464
 -14654556.97748 -11401833.14246  20855350.0004                   20855347.7114
 11  7 24  3 22  0.0000000  0  7G10G02G29G25G04G05G12
 -13441294.12947 -10461699.10245  21893109.9924                   21893108.2774
 -26606775.23447 -20719794.20146  21013613.0784                   21013609.0944
  23113449.20347  18027214.62244  23800540.9694                   23800539.6764
   5693639.57048   4468922.00745  22001880.6024                   22001881.1644
 -28395632.24246 -22109278.69143  23819486.3834                   23819484.0124
 -10807046.86748  -8401576.36346  20414320.4534                   20414318.8794
 -14696861.51648 -11434797.71446  20847299.9844                   20847297.2894
 11  7 24  3 22 30.0000000  0  7G10G02G29G25G04G05G12
 -13429157.05147 -10452241.63745  21895419.6414                   21895417.6334
 -26639728.98047 -20745472.44746  21007342.0474                   21007337.8714
  22967329.55147  17913355.23444  23772734.8914                   23772734.4224
   5583614.85947   4383188.50045  21980943.6804                   21980944.0784
 -28376356.89546 -22094258.89843  23823153.3444                   23823152.3834
 -10896894.81648  -8471587.73046  20397223.3444                   20397221.3204
 -14738554.49248 -11467285.76046  20839365.4614                   20839363.8554
 11  7 24  3 23  0.0000000  0  7G10G02G29G25G04G05G12
 -13416548.49647 -10442416.77345  21897818.8284                   21897817.0124
 -26672496.13748 -20771005.28046  21001106.6414                   21001102.6134
  22821221.83646  17799505.10343  23744931.6254                   23744930.3364
   5474154.16848   4297894.47645  21960113.8204                   21960114.9574
 -28357076.83246 -22079235.51543  23826822.2194                   23826821.7034
 -10986133.56648  -8541124.40946  20380241.8204                   20380239.7274
 -14779637.57048 -11499298.56646  20831547.9304                   20831545.9774
 11  7 24  3 23 30.0000000  0  7G10G02G29G25G04G05G12
 -13403472.16847 -10432227.43945  21900307.3834                   21900305.6254
 -26705078.66448 -20796394.27046  20994906.1174                   20994902.5904
  22675125.97746  17685664.24444  23717131.5944                   23717129.5864
   5365258.03548   4213040.35545  21939391.4304                   21939391.9694
 -28337793.91046 -22064209.83143  23830491.9384                   23830490.4494
 -11074763.56648  -8610186.71047  20363376.0004                   20363374.3524
 -14820112.60248 -11530837.56446  20823845.4454                   20823843.9654
 11  7 24  3 24  0.0000000  0  7G10G02G29G25G04G05G12
 -13389928.58247 -10421673.99145  21902884.6024                   21902882.3054
 -26737474.70747 -20821637.95046  20988741.7894                   20988737.4344
  22529045.53146  17571835.38444  23689332.1094                   23689331.0984
   5256930.69548   4128629.44846  21918777.5554                   21918778.5784
 -28318506.28146 -22049180.54443  23834162.3364                   23834160.3364
 -11162781.87548  -8678772.39547  20346626.7504                   20346624.6524
 -14859978.04748 -11561901.55446  20816259.9614                   20816257.1294
 11  7 24  3 24 30.0000000  0  7G10G02G29G25G04G05G12
 -13375922.00447 -10410759.76645  21905549.6484                   21905547.6134
 -26769687.01647 -20846738.43046  20982611.6174                   20982607.3524
  22382979.84046  17458018.10444  23661536.6174                   23661535.2814
   5149171.83248   4044661.53545  21898271.9774                   21898272.6294
 -28299216.39846 -22034149.46843  23837832.5554                   23837831.2154
 -11250190.02348  -8746882.60646  20329993.2894                   20329991.2624
 -14899236.68448 -11592492.69046  20808788.6954                   20808787.0434
 11  7 24  3 25  0.0000000  0  7G10G02G29G25G04G05G12
 -13361456.01247 -10399487.54045  21908302.8054                   21908300.7234
 -26801716.89147 -20871696.77146  20976516.4774                   20976512.9694
  22236929.65646  17344212.85444  23633744.6024                   23633743.3674
   5041982.60547   3961137.46245  21877874.2344                   21877875.2074
 -28279924.83646 -22019117.13543  23841503.9144                   23841502.1994
 -11336987.87948  -8814517.27547  20313475.9924                   20313474.3444
 -14937889.64548 -11622611.89046  20801433.9144                   20801431.2464
 11  7 24  3 25 30.0000000  0  7G10G02G29G25G04G05G12
 -13346531.48047 -10387858.04545  21911142.9534                   21911141.2384
 -26833564.04747 -20896512.73046  20970456.2504                   20970452.6524
  22090896.92646  17230421.19544  23605954.4304                   23605954.4884
   4935365.54347   3878059.23845  21857586.0234                   21857586.7624
 -28260631.46147 -22004083.27043  23845174.6954                   23845174.4224
 -11423173.77748  -8881675.10647  20297076.0004                   20297073.8874
 -14975936.74248 -11652258.98246  20794193.3524                   20794191.4804
 11  7 24  3 26  0.0000000  0  7G10G02G29G25G04G05G12
 -13331149.68747 -10375872.22945  21914069.4774                   21914068.8204
 -26865227.30947 -20921185.41046  20964431.2034                   20964426.9884
  21944884.78946  17116645.61343  23578169.2664                   23578168.8524
   4829323.99647   3795429.47746  21837406.7814                   21837407.0234
 -28241335.14147 -21989047.19243  23848848.2584                   23848845.9064
 -11508745.46548  -8948354.32446  20280791.7974                   20280789.8634
 -15013377.25848 -11681433.41446  20787068.4064                   20787067.3204
 11  7 24  3 26 30.0000000  0  7G10G02G29G25G04G05G12
 -13315315.66447 -10363534.04445  21917082.8364                   21917081.0124
 -26896709.82448 -20945717.24046  20958439.8984                   20958436.2194
  21798891.96546  17002885.06444  23550387.9924                   23550386.8204
   4723857.29747   3713247.64445  21817337.4064                   21817337.7584
 -28222038.31647 -21974010.68343  23852519.5394                   23852518.1724
 -11593705.09848  -9014556.60347  20264624.4924                   20264622.9304
 -15050214.50848 -11710137.76446  20780058.8204                   20780056.5354
 11  7 24  3 27  0.0000000  0  7G10G02G29G25G04G05G12
 -13299034.92647 -10350847.73745  21920180.9924                   21920178.2274
 -26928014.94547 -20970110.85446  20952483.0164                   20952479.3054
  21652916.70746  16889138.17244  23522609.3834                   23522609.1294
   4618964.21147   3631512.76645  21797376.4224                   21797377.0164
 -28202744.51646 -21958976.63343  23856190.8984                   23856189.2424
 -11678054.52348  -9080283.40846  20248573.2424                   20248571.2504
 -15086451.84048 -11738374.64746  20773163.2034                   20773161.1024
 11  7 24  3 27 30.0000000  0  7G10G02G29G25G04G05G12
 -13282308.09447 -10337813.80244  21923363.4844                   21923362.1174
 -26959141.09447 -20994364.98846  20946559.7504                   20946556.2424
  21506962.59446  16775407.78244  23494836.0704                   23494834.8284
   4514648.41448   3550227.76145  21777525.9064                   21777526.5084
 -28183451.94546 -21943943.39843  23859861.8444                   23859860.0084
 -11761791.41848  -9145532.92247  20232638.8524                   20232637.2664
 -15122087.86748 -11766142.98346  20766381.8914                   20766380.0274
 11  7 24  3 28  0.0000000  0  7G10G02G29G25G04G05G12
 -13265140.53147 -10324436.48745  21926630.7974                   21926629.2584
 -26990091.56248 -21018482.22746  20940670.5864                   20940666.5594
  21361028.17647  16661692.76644  23467065.1414                   23467064.6914
   4410908.66847   3469391.62446  21757784.7424                   21757785.3794
 -28164163.80546 -21928913.70443  23863532.6644                   23863530.8554
 -11844917.95748  -9210306.82047  20216820.3594                   20216818.5124
 -15157126.93448 -11793446.15346  20759713.8674                   20759711.9224
 11  7 24  3 28 30.0000000  0  7G10G02G29G25G04G05G12
 -13247530.71547 -10310714.58945  21929982.2114                   21929980.6334
 -27020863.52048 -21042460.38246  20934814.6484                   20934810.3594
  21215118.41047  16547996.92144  23439299.9534                   23439298.8164
   4307750.27048   3389008.46746  21738154.9614                   21738155.0354
 -28144876.94947 -21913885.03243  23867203.0634                   23867201.8204
 -11927430.55948  -9274602.34547  20201118.9454                   20201116.8204
 -15191566.23047 -11820281.98246  20753160.5864                   20753158.4224
 11  7 24  3 29  0.0000000  0  7G10G02G29G25G04G05G12
 -13229483.93047 -10296652.12345  21933416.7034                   21933414.0354
 -27051459.70748 -21066301.55746  20928991.9694                   20928988.0434
  21069232.05947  16434319.30844  23411538.0784                   23411537.5124
   4205172.45748   3309077.74046  21718634.8204                   21718635.1564
 -28125593.92647 -21898859.25243  23870872.6564                   23870870.9804
 -12009330.76648  -9338420.66247  20185533.4694                   20185531.6644
 -15225408.61348 -11846652.66146  20746720.5004                   20746718.0474
